<?xml version="1.0" encoding="UTF-8" standalone="no" ?>
<gpx xmlns="http://www.topografix.com/GPX/1/1" xmlns:xsi="http://www.w3.org/2001/XMLSchema-instance" xsi:schemaLocation="http://www.topografix.com/GPX/1/1 http://www.topografix.com/GPX/1/1/gpx.xsd" version="1.1" creator="VisuGPX - https://www.visugpx.com">
  <metadata>
    <name>Refuge du Grenairon</name>
    <desc><![CDATA[[url]http://www.valdaoste.fr[/url]]]></desc>
  </metadata>
  <trk>
    <name><![CDATA[Sixt-Fer-à-Cheval Randonnée 16 janv. 2021 à 08:01]]></name>
    <trkseg>
      <trkpt lat="46.0412" lon="6.77434">
        <ele>895.4</ele>
        <time>2021-01-16T07:01:05Z</time>
      </trkpt>
      <trkpt lat="46.04117" lon="6.77432">
        <ele>897.4</ele>
        <time>2021-01-16T07:01:22Z</time>
      </trkpt>
      <trkpt lat="46.04121" lon="6.77431">
        <ele>900.3</ele>
        <time>2021-01-16T07:02:57Z</time>
      </trkpt>
      <trkpt lat="46.04115" lon="6.77434">
        <ele>897.5</ele>
        <time>2021-01-16T07:03:01Z</time>
      </trkpt>
      <trkpt lat="46.04116" lon="6.7743">
        <ele>895.9</ele>
        <time>2021-01-16T07:03:42Z</time>
      </trkpt>
      <trkpt lat="46.04112" lon="6.77432">
        <ele>895.3</ele>
        <time>2021-01-16T07:04:15Z</time>
      </trkpt>
      <trkpt lat="46.04111" lon="6.77428">
        <ele>895</ele>
        <time>2021-01-16T07:05:09Z</time>
      </trkpt>
      <trkpt lat="46.04115" lon="6.77433">
        <ele>894.6</ele>
        <time>2021-01-16T07:05:13Z</time>
      </trkpt>
      <trkpt lat="46.04113" lon="6.77438">
        <ele>894.6</ele>
        <time>2021-01-16T07:05:22Z</time>
      </trkpt>
      <trkpt lat="46.04111" lon="6.77443">
        <ele>894.5</ele>
        <time>2021-01-16T07:05:32Z</time>
      </trkpt>
      <trkpt lat="46.04113" lon="6.77442">
        <ele>894.4</ele>
        <time>2021-01-16T07:06:28Z</time>
      </trkpt>
      <trkpt lat="46.04107" lon="6.77442">
        <ele>894.5</ele>
        <time>2021-01-16T07:06:32Z</time>
      </trkpt>
      <trkpt lat="46.04106" lon="6.77448">
        <ele>894.5</ele>
        <time>2021-01-16T07:06:37Z</time>
      </trkpt>
      <trkpt lat="46.04103" lon="6.77452">
        <ele>894.6</ele>
        <time>2021-01-16T07:06:42Z</time>
      </trkpt>
      <trkpt lat="46.04101" lon="6.77458">
        <ele>894.5</ele>
        <time>2021-01-16T07:06:46Z</time>
      </trkpt>
      <trkpt lat="46.04098" lon="6.77463">
        <ele>894.5</ele>
        <time>2021-01-16T07:06:50Z</time>
      </trkpt>
      <trkpt lat="46.04095" lon="6.77468">
        <ele>894.4</ele>
        <time>2021-01-16T07:06:54Z</time>
      </trkpt>
      <trkpt lat="46.04093" lon="6.77474">
        <ele>894.3</ele>
        <time>2021-01-16T07:06:59Z</time>
      </trkpt>
      <trkpt lat="46.0409" lon="6.7748">
        <ele>894.3</ele>
        <time>2021-01-16T07:07:03Z</time>
      </trkpt>
      <trkpt lat="46.04088" lon="6.77486">
        <ele>894.3</ele>
        <time>2021-01-16T07:07:08Z</time>
      </trkpt>
      <trkpt lat="46.04084" lon="6.7749">
        <ele>894.4</ele>
        <time>2021-01-16T07:07:13Z</time>
      </trkpt>
      <trkpt lat="46.04079" lon="6.77494">
        <ele>894.4</ele>
        <time>2021-01-16T07:07:17Z</time>
      </trkpt>
      <trkpt lat="46.04075" lon="6.77497">
        <ele>894.3</ele>
        <time>2021-01-16T07:07:22Z</time>
      </trkpt>
      <trkpt lat="46.04071" lon="6.77498">
        <ele>894.3</ele>
        <time>2021-01-16T07:07:26Z</time>
      </trkpt>
      <trkpt lat="46.04064" lon="6.77498">
        <ele>894.3</ele>
        <time>2021-01-16T07:07:31Z</time>
      </trkpt>
      <trkpt lat="46.04059" lon="6.77498">
        <ele>894.3</ele>
        <time>2021-01-16T07:07:35Z</time>
      </trkpt>
      <trkpt lat="46.04052" lon="6.77494">
        <ele>894.2</ele>
        <time>2021-01-16T07:07:39Z</time>
      </trkpt>
      <trkpt lat="46.04048" lon="6.77492">
        <ele>894.2</ele>
        <time>2021-01-16T07:07:43Z</time>
      </trkpt>
      <trkpt lat="46.04045" lon="6.77488">
        <ele>894.2</ele>
        <time>2021-01-16T07:07:51Z</time>
      </trkpt>
      <trkpt lat="46.04041" lon="6.77486">
        <ele>894.3</ele>
        <time>2021-01-16T07:07:55Z</time>
      </trkpt>
      <trkpt lat="46.04037" lon="6.77483">
        <ele>894.4</ele>
        <time>2021-01-16T07:07:59Z</time>
      </trkpt>
      <trkpt lat="46.04033" lon="6.77479">
        <ele>894.6</ele>
        <time>2021-01-16T07:08:10Z</time>
      </trkpt>
      <trkpt lat="46.04029" lon="6.77479">
        <ele>894.7</ele>
        <time>2021-01-16T07:08:16Z</time>
      </trkpt>
      <trkpt lat="46.04024" lon="6.77476">
        <ele>894.7</ele>
        <time>2021-01-16T07:08:20Z</time>
      </trkpt>
      <trkpt lat="46.04018" lon="6.77472">
        <ele>894.9</ele>
        <time>2021-01-16T07:08:25Z</time>
      </trkpt>
      <trkpt lat="46.04015" lon="6.77468">
        <ele>895</ele>
        <time>2021-01-16T07:08:29Z</time>
      </trkpt>
      <trkpt lat="46.04011" lon="6.77465">
        <ele>895.1</ele>
        <time>2021-01-16T07:08:34Z</time>
      </trkpt>
      <trkpt lat="46.04008" lon="6.7746">
        <ele>895.2</ele>
        <time>2021-01-16T07:08:38Z</time>
      </trkpt>
      <trkpt lat="46.04005" lon="6.77457">
        <ele>895.2</ele>
        <time>2021-01-16T07:08:43Z</time>
      </trkpt>
      <trkpt lat="46.03999" lon="6.77451">
        <ele>895.4</ele>
        <time>2021-01-16T07:08:48Z</time>
      </trkpt>
      <trkpt lat="46.03995" lon="6.77448">
        <ele>895.6</ele>
        <time>2021-01-16T07:08:52Z</time>
      </trkpt>
      <trkpt lat="46.03991" lon="6.77446">
        <ele>895.7</ele>
        <time>2021-01-16T07:08:56Z</time>
      </trkpt>
      <trkpt lat="46.03984" lon="6.77442">
        <ele>895.8</ele>
        <time>2021-01-16T07:09:01Z</time>
      </trkpt>
      <trkpt lat="46.03979" lon="6.77443">
        <ele>896</ele>
        <time>2021-01-16T07:09:06Z</time>
      </trkpt>
      <trkpt lat="46.03976" lon="6.77447">
        <ele>896.2</ele>
        <time>2021-01-16T07:09:11Z</time>
      </trkpt>
      <trkpt lat="46.03971" lon="6.7745">
        <ele>896.3</ele>
        <time>2021-01-16T07:09:16Z</time>
      </trkpt>
      <trkpt lat="46.03968" lon="6.77452">
        <ele>896.4</ele>
        <time>2021-01-16T07:09:21Z</time>
      </trkpt>
      <trkpt lat="46.03964" lon="6.77455">
        <ele>896.4</ele>
        <time>2021-01-16T07:09:26Z</time>
      </trkpt>
      <trkpt lat="46.0396" lon="6.77459">
        <ele>896.3</ele>
        <time>2021-01-16T07:09:31Z</time>
      </trkpt>
      <trkpt lat="46.03957" lon="6.77465">
        <ele>896.3</ele>
        <time>2021-01-16T07:09:35Z</time>
      </trkpt>
      <trkpt lat="46.0395" lon="6.77466">
        <ele>896.5</ele>
        <time>2021-01-16T07:09:40Z</time>
      </trkpt>
      <trkpt lat="46.03944" lon="6.77467">
        <ele>896.6</ele>
        <time>2021-01-16T07:09:45Z</time>
      </trkpt>
      <trkpt lat="46.03937" lon="6.77471">
        <ele>896.6</ele>
        <time>2021-01-16T07:09:49Z</time>
      </trkpt>
      <trkpt lat="46.03933" lon="6.77473">
        <ele>896.6</ele>
        <time>2021-01-16T07:09:54Z</time>
      </trkpt>
      <trkpt lat="46.03928" lon="6.77473">
        <ele>896.5</ele>
        <time>2021-01-16T07:09:58Z</time>
      </trkpt>
      <trkpt lat="46.03923" lon="6.77474">
        <ele>896.4</ele>
        <time>2021-01-16T07:10:03Z</time>
      </trkpt>
      <trkpt lat="46.0392" lon="6.77472">
        <ele>896.5</ele>
        <time>2021-01-16T07:10:07Z</time>
      </trkpt>
      <trkpt lat="46.03914" lon="6.77468">
        <ele>896.6</ele>
        <time>2021-01-16T07:10:12Z</time>
      </trkpt>
      <trkpt lat="46.03911" lon="6.77467">
        <ele>896.8</ele>
        <time>2021-01-16T07:10:19Z</time>
      </trkpt>
      <trkpt lat="46.03905" lon="6.77466">
        <ele>896.9</ele>
        <time>2021-01-16T07:10:23Z</time>
      </trkpt>
      <trkpt lat="46.039" lon="6.77463">
        <ele>897</ele>
        <time>2021-01-16T07:10:27Z</time>
      </trkpt>
      <trkpt lat="46.03894" lon="6.77464">
        <ele>897.4</ele>
        <time>2021-01-16T07:10:32Z</time>
      </trkpt>
      <trkpt lat="46.0389" lon="6.77464">
        <ele>897.5</ele>
        <time>2021-01-16T07:10:41Z</time>
      </trkpt>
      <trkpt lat="46.03881" lon="6.77464">
        <ele>898</ele>
        <time>2021-01-16T07:10:46Z</time>
      </trkpt>
      <trkpt lat="46.03877" lon="6.77467">
        <ele>897.7</ele>
        <time>2021-01-16T07:10:51Z</time>
      </trkpt>
      <trkpt lat="46.03875" lon="6.77472">
        <ele>897.6</ele>
        <time>2021-01-16T07:10:55Z</time>
      </trkpt>
      <trkpt lat="46.0387" lon="6.77472">
        <ele>897.9</ele>
        <time>2021-01-16T07:10:59Z</time>
      </trkpt>
      <trkpt lat="46.03865" lon="6.77476">
        <ele>898</ele>
        <time>2021-01-16T07:11:04Z</time>
      </trkpt>
      <trkpt lat="46.03861" lon="6.77477">
        <ele>898.1</ele>
        <time>2021-01-16T07:11:08Z</time>
      </trkpt>
      <trkpt lat="46.03856" lon="6.77476">
        <ele>898.1</ele>
        <time>2021-01-16T07:11:14Z</time>
      </trkpt>
      <trkpt lat="46.03853" lon="6.77478">
        <ele>898</ele>
        <time>2021-01-16T07:11:19Z</time>
      </trkpt>
      <trkpt lat="46.03848" lon="6.7748">
        <ele>898.5</ele>
        <time>2021-01-16T07:11:24Z</time>
      </trkpt>
      <trkpt lat="46.03843" lon="6.77481">
        <ele>898.7</ele>
        <time>2021-01-16T07:11:28Z</time>
      </trkpt>
      <trkpt lat="46.03841" lon="6.77485">
        <ele>896.6</ele>
        <time>2021-01-16T07:11:34Z</time>
      </trkpt>
      <trkpt lat="46.03836" lon="6.77485">
        <ele>896.7</ele>
        <time>2021-01-16T07:11:38Z</time>
      </trkpt>
      <trkpt lat="46.03833" lon="6.77485">
        <ele>896.4</ele>
        <time>2021-01-16T07:11:42Z</time>
      </trkpt>
      <trkpt lat="46.03828" lon="6.77483">
        <ele>896.3</ele>
        <time>2021-01-16T07:11:47Z</time>
      </trkpt>
      <trkpt lat="46.03824" lon="6.77486">
        <ele>896.3</ele>
        <time>2021-01-16T07:11:52Z</time>
      </trkpt>
      <trkpt lat="46.03819" lon="6.77489">
        <ele>896.3</ele>
        <time>2021-01-16T07:11:56Z</time>
      </trkpt>
      <trkpt lat="46.03815" lon="6.77491">
        <ele>896.1</ele>
        <time>2021-01-16T07:12:00Z</time>
      </trkpt>
      <trkpt lat="46.03812" lon="6.77493">
        <ele>895.9</ele>
        <time>2021-01-16T07:12:04Z</time>
      </trkpt>
      <trkpt lat="46.03807" lon="6.77496">
        <ele>895.7</ele>
        <time>2021-01-16T07:12:09Z</time>
      </trkpt>
      <trkpt lat="46.03801" lon="6.77497">
        <ele>895.8</ele>
        <time>2021-01-16T07:12:14Z</time>
      </trkpt>
      <trkpt lat="46.03797" lon="6.77499">
        <ele>896</ele>
        <time>2021-01-16T07:12:18Z</time>
      </trkpt>
      <trkpt lat="46.03795" lon="6.77502">
        <ele>896.1</ele>
        <time>2021-01-16T07:12:22Z</time>
      </trkpt>
      <trkpt lat="46.03791" lon="6.77504">
        <ele>896.4</ele>
        <time>2021-01-16T07:12:27Z</time>
      </trkpt>
      <trkpt lat="46.03787" lon="6.77506">
        <ele>896.4</ele>
        <time>2021-01-16T07:12:32Z</time>
      </trkpt>
      <trkpt lat="46.03784" lon="6.77509">
        <ele>896.7</ele>
        <time>2021-01-16T07:12:36Z</time>
      </trkpt>
      <trkpt lat="46.03779" lon="6.77508">
        <ele>897.1</ele>
        <time>2021-01-16T07:12:40Z</time>
      </trkpt>
      <trkpt lat="46.03774" lon="6.7751">
        <ele>897.4</ele>
        <time>2021-01-16T07:12:45Z</time>
      </trkpt>
      <trkpt lat="46.03769" lon="6.77513">
        <ele>897.4</ele>
        <time>2021-01-16T07:12:49Z</time>
      </trkpt>
      <trkpt lat="46.03766" lon="6.77514">
        <ele>897.6</ele>
        <time>2021-01-16T07:12:54Z</time>
      </trkpt>
      <trkpt lat="46.03761" lon="6.77513">
        <ele>897.7</ele>
        <time>2021-01-16T07:12:58Z</time>
      </trkpt>
      <trkpt lat="46.03759" lon="6.77518">
        <ele>898</ele>
        <time>2021-01-16T07:13:05Z</time>
      </trkpt>
      <trkpt lat="46.03761" lon="6.77525">
        <ele>898.3</ele>
        <time>2021-01-16T07:13:10Z</time>
      </trkpt>
      <trkpt lat="46.0376" lon="6.77532">
        <ele>899.6</ele>
        <time>2021-01-16T07:13:15Z</time>
      </trkpt>
      <trkpt lat="46.03752" lon="6.77537">
        <ele>900.8</ele>
        <time>2021-01-16T07:13:20Z</time>
      </trkpt>
      <trkpt lat="46.03749" lon="6.77532">
        <ele>901.8</ele>
        <time>2021-01-16T07:13:30Z</time>
      </trkpt>
      <trkpt lat="46.03749" lon="6.77527">
        <ele>903</ele>
        <time>2021-01-16T07:13:40Z</time>
      </trkpt>
      <trkpt lat="46.03749" lon="6.77526">
        <ele>903.5</ele>
        <time>2021-01-16T07:13:52Z</time>
      </trkpt>
      <trkpt lat="46.03741" lon="6.7753">
        <ele>904.2</ele>
        <time>2021-01-16T07:13:57Z</time>
      </trkpt>
      <trkpt lat="46.03738" lon="6.77534">
        <ele>905</ele>
        <time>2021-01-16T07:14:03Z</time>
      </trkpt>
      <trkpt lat="46.03734" lon="6.77535">
        <ele>906.4</ele>
        <time>2021-01-16T07:14:09Z</time>
      </trkpt>
      <trkpt lat="46.03731" lon="6.77538">
        <ele>908.3</ele>
        <time>2021-01-16T07:14:16Z</time>
      </trkpt>
      <trkpt lat="46.03728" lon="6.77543">
        <ele>910.3</ele>
        <time>2021-01-16T07:14:25Z</time>
      </trkpt>
      <trkpt lat="46.03727" lon="6.77539">
        <ele>911.2</ele>
        <time>2021-01-16T07:14:31Z</time>
      </trkpt>
      <trkpt lat="46.03724" lon="6.77534">
        <ele>911.3</ele>
        <time>2021-01-16T07:14:38Z</time>
      </trkpt>
      <trkpt lat="46.03721" lon="6.77535">
        <ele>911.9</ele>
        <time>2021-01-16T07:14:44Z</time>
      </trkpt>
      <trkpt lat="46.03718" lon="6.77535">
        <ele>913.2</ele>
        <time>2021-01-16T07:14:51Z</time>
      </trkpt>
      <trkpt lat="46.03714" lon="6.77536">
        <ele>916.3</ele>
        <time>2021-01-16T07:14:55Z</time>
      </trkpt>
      <trkpt lat="46.03709" lon="6.77538">
        <ele>918.4</ele>
        <time>2021-01-16T07:14:59Z</time>
      </trkpt>
      <trkpt lat="46.03705" lon="6.7754">
        <ele>920.1</ele>
        <time>2021-01-16T07:15:06Z</time>
      </trkpt>
      <trkpt lat="46.03702" lon="6.77544">
        <ele>921.5</ele>
        <time>2021-01-16T07:15:13Z</time>
      </trkpt>
      <trkpt lat="46.03695" lon="6.77541">
        <ele>922.9</ele>
        <time>2021-01-16T07:15:18Z</time>
      </trkpt>
      <trkpt lat="46.03691" lon="6.77544">
        <ele>923.8</ele>
        <time>2021-01-16T07:15:25Z</time>
      </trkpt>
      <trkpt lat="46.03689" lon="6.77549">
        <ele>925.5</ele>
        <time>2021-01-16T07:15:31Z</time>
      </trkpt>
      <trkpt lat="46.03685" lon="6.77552">
        <ele>926.1</ele>
        <time>2021-01-16T07:15:39Z</time>
      </trkpt>
      <trkpt lat="46.03682" lon="6.77556">
        <ele>927.2</ele>
        <time>2021-01-16T07:15:51Z</time>
      </trkpt>
      <trkpt lat="46.03682" lon="6.77561">
        <ele>929.9</ele>
        <time>2021-01-16T07:15:58Z</time>
      </trkpt>
      <trkpt lat="46.03678" lon="6.77563">
        <ele>933.3</ele>
        <time>2021-01-16T07:16:05Z</time>
      </trkpt>
      <trkpt lat="46.03674" lon="6.77562">
        <ele>935.8</ele>
        <time>2021-01-16T07:16:10Z</time>
      </trkpt>
      <trkpt lat="46.03668" lon="6.77562">
        <ele>937.6</ele>
        <time>2021-01-16T07:16:15Z</time>
      </trkpt>
      <trkpt lat="46.03665" lon="6.77558">
        <ele>939.4</ele>
        <time>2021-01-16T07:16:21Z</time>
      </trkpt>
      <trkpt lat="46.03661" lon="6.77561">
        <ele>940.1</ele>
        <time>2021-01-16T07:16:29Z</time>
      </trkpt>
      <trkpt lat="46.03657" lon="6.77565">
        <ele>940.7</ele>
        <time>2021-01-16T07:16:34Z</time>
      </trkpt>
      <trkpt lat="46.03658" lon="6.77571">
        <ele>941.2</ele>
        <time>2021-01-16T07:16:40Z</time>
      </trkpt>
      <trkpt lat="46.03654" lon="6.77574">
        <ele>941.4</ele>
        <time>2021-01-16T07:16:48Z</time>
      </trkpt>
      <trkpt lat="46.0365" lon="6.77575">
        <ele>941.7</ele>
        <time>2021-01-16T07:16:56Z</time>
      </trkpt>
      <trkpt lat="46.03648" lon="6.77577">
        <ele>942.6</ele>
        <time>2021-01-16T07:17:06Z</time>
      </trkpt>
      <trkpt lat="46.03643" lon="6.77583">
        <ele>944.7</ele>
        <time>2021-01-16T07:17:10Z</time>
      </trkpt>
      <trkpt lat="46.0364" lon="6.77587">
        <ele>947.2</ele>
        <time>2021-01-16T07:17:14Z</time>
      </trkpt>
      <trkpt lat="46.03637" lon="6.77591">
        <ele>947.9</ele>
        <time>2021-01-16T07:17:23Z</time>
      </trkpt>
      <trkpt lat="46.03635" lon="6.77596">
        <ele>948.7</ele>
        <time>2021-01-16T07:17:31Z</time>
      </trkpt>
      <trkpt lat="46.03634" lon="6.77598">
        <ele>948.8</ele>
        <time>2021-01-16T07:17:45Z</time>
      </trkpt>
      <trkpt lat="46.0363" lon="6.77603">
        <ele>949.9</ele>
        <time>2021-01-16T07:17:49Z</time>
      </trkpt>
      <trkpt lat="46.03626" lon="6.77606">
        <ele>950.4</ele>
        <time>2021-01-16T07:17:54Z</time>
      </trkpt>
      <trkpt lat="46.03622" lon="6.77606">
        <ele>951.3</ele>
        <time>2021-01-16T07:18:02Z</time>
      </trkpt>
      <trkpt lat="46.03618" lon="6.7761">
        <ele>951.5</ele>
        <time>2021-01-16T07:18:08Z</time>
      </trkpt>
      <trkpt lat="46.03616" lon="6.77614">
        <ele>952.1</ele>
        <time>2021-01-16T07:18:19Z</time>
      </trkpt>
      <trkpt lat="46.03612" lon="6.77614">
        <ele>952.5</ele>
        <time>2021-01-16T07:18:24Z</time>
      </trkpt>
      <trkpt lat="46.03608" lon="6.77614">
        <ele>953</ele>
        <time>2021-01-16T07:18:29Z</time>
      </trkpt>
      <trkpt lat="46.03604" lon="6.77615">
        <ele>953.2</ele>
        <time>2021-01-16T07:18:44Z</time>
      </trkpt>
      <trkpt lat="46.03602" lon="6.77616">
        <ele>953.7</ele>
        <time>2021-01-16T07:18:50Z</time>
      </trkpt>
      <trkpt lat="46.03598" lon="6.77618">
        <ele>954.1</ele>
        <time>2021-01-16T07:18:58Z</time>
      </trkpt>
      <trkpt lat="46.03589" lon="6.77614">
        <ele>956.3</ele>
        <time>2021-01-16T07:19:03Z</time>
      </trkpt>
      <trkpt lat="46.03588" lon="6.77619">
        <ele>959</ele>
        <time>2021-01-16T07:19:24Z</time>
      </trkpt>
      <trkpt lat="46.03582" lon="6.77619">
        <ele>957.8</ele>
        <time>2021-01-16T07:19:28Z</time>
      </trkpt>
      <trkpt lat="46.03579" lon="6.77616">
        <ele>958.5</ele>
        <time>2021-01-16T07:19:35Z</time>
      </trkpt>
      <trkpt lat="46.03578" lon="6.77616">
        <ele>957.9</ele>
        <time>2021-01-16T07:19:45Z</time>
      </trkpt>
      <trkpt lat="46.0357" lon="6.77617">
        <ele>957.4</ele>
        <time>2021-01-16T07:19:49Z</time>
      </trkpt>
      <trkpt lat="46.03565" lon="6.77619">
        <ele>957.9</ele>
        <time>2021-01-16T07:19:53Z</time>
      </trkpt>
      <trkpt lat="46.03557" lon="6.77616">
        <ele>959.2</ele>
        <time>2021-01-16T07:19:57Z</time>
      </trkpt>
      <trkpt lat="46.03553" lon="6.77613">
        <ele>960.5</ele>
        <time>2021-01-16T07:20:09Z</time>
      </trkpt>
      <trkpt lat="46.0355" lon="6.77614">
        <ele>961.1</ele>
        <time>2021-01-16T07:20:16Z</time>
      </trkpt>
      <trkpt lat="46.03546" lon="6.77615">
        <ele>961.3</ele>
        <time>2021-01-16T07:20:21Z</time>
      </trkpt>
      <trkpt lat="46.03543" lon="6.77619">
        <ele>961.5</ele>
        <time>2021-01-16T07:20:25Z</time>
      </trkpt>
      <trkpt lat="46.03539" lon="6.77621">
        <ele>962.5</ele>
        <time>2021-01-16T07:20:33Z</time>
      </trkpt>
      <trkpt lat="46.03534" lon="6.77624">
        <ele>963.5</ele>
        <time>2021-01-16T07:20:37Z</time>
      </trkpt>
      <trkpt lat="46.03531" lon="6.77631">
        <ele>963.7</ele>
        <time>2021-01-16T07:20:42Z</time>
      </trkpt>
      <trkpt lat="46.03527" lon="6.77631">
        <ele>965.8</ele>
        <time>2021-01-16T07:21:03Z</time>
      </trkpt>
      <trkpt lat="46.03523" lon="6.7763">
        <ele>965.9</ele>
        <time>2021-01-16T07:21:10Z</time>
      </trkpt>
      <trkpt lat="46.0352" lon="6.77628">
        <ele>966.1</ele>
        <time>2021-01-16T07:21:14Z</time>
      </trkpt>
      <trkpt lat="46.0351" lon="6.77626">
        <ele>966</ele>
        <time>2021-01-16T07:21:18Z</time>
      </trkpt>
      <trkpt lat="46.03506" lon="6.77628">
        <ele>966.7</ele>
        <time>2021-01-16T07:21:32Z</time>
      </trkpt>
      <trkpt lat="46.03502" lon="6.77629">
        <ele>966.9</ele>
        <time>2021-01-16T07:21:39Z</time>
      </trkpt>
      <trkpt lat="46.03498" lon="6.77627">
        <ele>967.7</ele>
        <time>2021-01-16T07:21:46Z</time>
      </trkpt>
      <trkpt lat="46.03496" lon="6.77628">
        <ele>969.8</ele>
        <time>2021-01-16T07:22:03Z</time>
      </trkpt>
      <trkpt lat="46.03489" lon="6.77627">
        <ele>971.1</ele>
        <time>2021-01-16T07:22:07Z</time>
      </trkpt>
      <trkpt lat="46.03484" lon="6.77624">
        <ele>971.9</ele>
        <time>2021-01-16T07:22:12Z</time>
      </trkpt>
      <trkpt lat="46.03479" lon="6.77623">
        <ele>972.8</ele>
        <time>2021-01-16T07:22:18Z</time>
      </trkpt>
      <trkpt lat="46.03474" lon="6.77626">
        <ele>975.1</ele>
        <time>2021-01-16T07:22:23Z</time>
      </trkpt>
      <trkpt lat="46.03473" lon="6.77631">
        <ele>975.9</ele>
        <time>2021-01-16T07:22:38Z</time>
      </trkpt>
      <trkpt lat="46.03472" lon="6.77631">
        <ele>977.3</ele>
        <time>2021-01-16T07:22:45Z</time>
      </trkpt>
      <trkpt lat="46.03463" lon="6.77641">
        <ele>980.3</ele>
        <time>2021-01-16T07:22:50Z</time>
      </trkpt>
      <trkpt lat="46.03464" lon="6.77647">
        <ele>981</ele>
        <time>2021-01-16T07:22:55Z</time>
      </trkpt>
      <trkpt lat="46.03464" lon="6.77652">
        <ele>982</ele>
        <time>2021-01-16T07:22:59Z</time>
      </trkpt>
      <trkpt lat="46.03461" lon="6.77657">
        <ele>982.6</ele>
        <time>2021-01-16T07:23:03Z</time>
      </trkpt>
      <trkpt lat="46.0346" lon="6.77663">
        <ele>982.9</ele>
        <time>2021-01-16T07:23:07Z</time>
      </trkpt>
      <trkpt lat="46.03459" lon="6.77668">
        <ele>984.3</ele>
        <time>2021-01-16T07:23:27Z</time>
      </trkpt>
      <trkpt lat="46.03452" lon="6.7767">
        <ele>988.1</ele>
        <time>2021-01-16T07:23:32Z</time>
      </trkpt>
      <trkpt lat="46.03448" lon="6.77671">
        <ele>989.5</ele>
        <time>2021-01-16T07:23:39Z</time>
      </trkpt>
      <trkpt lat="46.03444" lon="6.77669">
        <ele>990.4</ele>
        <time>2021-01-16T07:23:48Z</time>
      </trkpt>
      <trkpt lat="46.03441" lon="6.77667">
        <ele>991</ele>
        <time>2021-01-16T07:23:52Z</time>
      </trkpt>
      <trkpt lat="46.03436" lon="6.77667">
        <ele>993.1</ele>
        <time>2021-01-16T07:23:57Z</time>
      </trkpt>
      <trkpt lat="46.03432" lon="6.77668">
        <ele>995.9</ele>
        <time>2021-01-16T07:24:05Z</time>
      </trkpt>
      <trkpt lat="46.03428" lon="6.77666">
        <ele>996.2</ele>
        <time>2021-01-16T07:24:12Z</time>
      </trkpt>
      <trkpt lat="46.03424" lon="6.7767">
        <ele>997.9</ele>
        <time>2021-01-16T07:24:24Z</time>
      </trkpt>
      <trkpt lat="46.03419" lon="6.77668">
        <ele>997.6</ele>
        <time>2021-01-16T07:24:28Z</time>
      </trkpt>
      <trkpt lat="46.03415" lon="6.77666">
        <ele>997.9</ele>
        <time>2021-01-16T07:24:33Z</time>
      </trkpt>
      <trkpt lat="46.03411" lon="6.77663">
        <ele>998</ele>
        <time>2021-01-16T07:24:37Z</time>
      </trkpt>
      <trkpt lat="46.03406" lon="6.77662">
        <ele>998.1</ele>
        <time>2021-01-16T07:24:42Z</time>
      </trkpt>
      <trkpt lat="46.03403" lon="6.77663">
        <ele>998.2</ele>
        <time>2021-01-16T07:24:48Z</time>
      </trkpt>
      <trkpt lat="46.03399" lon="6.77662">
        <ele>998.2</ele>
        <time>2021-01-16T07:24:54Z</time>
      </trkpt>
      <trkpt lat="46.03393" lon="6.77661">
        <ele>998.5</ele>
        <time>2021-01-16T07:24:59Z</time>
      </trkpt>
      <trkpt lat="46.0339" lon="6.7766">
        <ele>998.2</ele>
        <time>2021-01-16T07:25:06Z</time>
      </trkpt>
      <trkpt lat="46.03388" lon="6.77663">
        <ele>996.4</ele>
        <time>2021-01-16T07:25:16Z</time>
      </trkpt>
      <trkpt lat="46.03381" lon="6.77668">
        <ele>996</ele>
        <time>2021-01-16T07:25:21Z</time>
      </trkpt>
      <trkpt lat="46.03377" lon="6.77665">
        <ele>995.7</ele>
        <time>2021-01-16T07:25:26Z</time>
      </trkpt>
      <trkpt lat="46.03373" lon="6.7766">
        <ele>995.6</ele>
        <time>2021-01-16T07:25:31Z</time>
      </trkpt>
      <trkpt lat="46.03368" lon="6.7766">
        <ele>993.4</ele>
        <time>2021-01-16T07:25:38Z</time>
      </trkpt>
      <trkpt lat="46.03367" lon="6.77655">
        <ele>993.2</ele>
        <time>2021-01-16T07:25:52Z</time>
      </trkpt>
      <trkpt lat="46.03362" lon="6.77653">
        <ele>993.6</ele>
        <time>2021-01-16T07:25:56Z</time>
      </trkpt>
      <trkpt lat="46.03356" lon="6.77651">
        <ele>994.2</ele>
        <time>2021-01-16T07:26:00Z</time>
      </trkpt>
      <trkpt lat="46.03354" lon="6.77652">
        <ele>995.5</ele>
        <time>2021-01-16T07:26:15Z</time>
      </trkpt>
      <trkpt lat="46.03349" lon="6.77646">
        <ele>999.4</ele>
        <time>2021-01-16T07:26:19Z</time>
      </trkpt>
      <trkpt lat="46.03345" lon="6.77643">
        <ele>1000.8</ele>
        <time>2021-01-16T07:26:25Z</time>
      </trkpt>
      <trkpt lat="46.03342" lon="6.77639">
        <ele>1001.8</ele>
        <time>2021-01-16T07:26:30Z</time>
      </trkpt>
      <trkpt lat="46.0334" lon="6.77633">
        <ele>1003.4</ele>
        <time>2021-01-16T07:26:37Z</time>
      </trkpt>
      <trkpt lat="46.03336" lon="6.77632">
        <ele>1003.2</ele>
        <time>2021-01-16T07:26:42Z</time>
      </trkpt>
      <trkpt lat="46.03332" lon="6.77634">
        <ele>1004.2</ele>
        <time>2021-01-16T07:26:47Z</time>
      </trkpt>
      <trkpt lat="46.03329" lon="6.77636">
        <ele>1007.1</ele>
        <time>2021-01-16T07:27:07Z</time>
      </trkpt>
      <trkpt lat="46.03323" lon="6.7763">
        <ele>1011.2</ele>
        <time>2021-01-16T07:27:12Z</time>
      </trkpt>
      <trkpt lat="46.03323" lon="6.7763">
        <ele>1011.2</ele>
        <time>2021-01-16T07:27:18Z</time>
      </trkpt>
      <trkpt lat="46.03315" lon="6.77627">
        <ele>1015.1</ele>
        <time>2021-01-16T07:27:23Z</time>
      </trkpt>
      <trkpt lat="46.03311" lon="6.77626">
        <ele>1019.1</ele>
        <time>2021-01-16T07:27:42Z</time>
      </trkpt>
      <trkpt lat="46.03307" lon="6.77627">
        <ele>1018.8</ele>
        <time>2021-01-16T07:27:47Z</time>
      </trkpt>
      <trkpt lat="46.03303" lon="6.77628">
        <ele>1018.7</ele>
        <time>2021-01-16T07:27:55Z</time>
      </trkpt>
      <trkpt lat="46.03298" lon="6.77631">
        <ele>1019.4</ele>
        <time>2021-01-16T07:28:00Z</time>
      </trkpt>
      <trkpt lat="46.03294" lon="6.77634">
        <ele>1020.6</ele>
        <time>2021-01-16T07:28:08Z</time>
      </trkpt>
      <trkpt lat="46.0329" lon="6.77635">
        <ele>1025.2</ele>
        <time>2021-01-16T07:28:15Z</time>
      </trkpt>
      <trkpt lat="46.03288" lon="6.77635">
        <ele>1027.2</ele>
        <time>2021-01-16T07:28:29Z</time>
      </trkpt>
      <trkpt lat="46.03282" lon="6.77636">
        <ele>1032.8</ele>
        <time>2021-01-16T07:28:34Z</time>
      </trkpt>
      <trkpt lat="46.03278" lon="6.77635">
        <ele>1035.7</ele>
        <time>2021-01-16T07:28:40Z</time>
      </trkpt>
      <trkpt lat="46.03276" lon="6.77633">
        <ele>1038.3</ele>
        <time>2021-01-16T07:28:49Z</time>
      </trkpt>
      <trkpt lat="46.0327" lon="6.77631">
        <ele>1041.3</ele>
        <time>2021-01-16T07:28:53Z</time>
      </trkpt>
      <trkpt lat="46.03267" lon="6.77633">
        <ele>1046.6</ele>
        <time>2021-01-16T07:29:00Z</time>
      </trkpt>
      <trkpt lat="46.03263" lon="6.7763">
        <ele>1047.9</ele>
        <time>2021-01-16T07:29:04Z</time>
      </trkpt>
      <trkpt lat="46.03259" lon="6.77629">
        <ele>1049.7</ele>
        <time>2021-01-16T07:29:10Z</time>
      </trkpt>
      <trkpt lat="46.03254" lon="6.77627">
        <ele>1050.8</ele>
        <time>2021-01-16T07:29:15Z</time>
      </trkpt>
      <trkpt lat="46.03251" lon="6.77629">
        <ele>1051.6</ele>
        <time>2021-01-16T07:29:27Z</time>
      </trkpt>
      <trkpt lat="46.03246" lon="6.77624">
        <ele>1053</ele>
        <time>2021-01-16T07:29:31Z</time>
      </trkpt>
      <trkpt lat="46.03242" lon="6.77621">
        <ele>1056.3</ele>
        <time>2021-01-16T07:29:39Z</time>
      </trkpt>
      <trkpt lat="46.03238" lon="6.7762">
        <ele>1057.3</ele>
        <time>2021-01-16T07:29:43Z</time>
      </trkpt>
      <trkpt lat="46.03234" lon="6.7762">
        <ele>1058.9</ele>
        <time>2021-01-16T07:29:54Z</time>
      </trkpt>
      <trkpt lat="46.03232" lon="6.77625">
        <ele>1061.2</ele>
        <time>2021-01-16T07:30:02Z</time>
      </trkpt>
      <trkpt lat="46.03229" lon="6.77626">
        <ele>1061.6</ele>
        <time>2021-01-16T07:30:06Z</time>
      </trkpt>
      <trkpt lat="46.03224" lon="6.77627">
        <ele>1062</ele>
        <time>2021-01-16T07:30:11Z</time>
      </trkpt>
      <trkpt lat="46.03221" lon="6.77627">
        <ele>1062</ele>
        <time>2021-01-16T07:30:18Z</time>
      </trkpt>
      <trkpt lat="46.03217" lon="6.77624">
        <ele>1062.1</ele>
        <time>2021-01-16T07:30:23Z</time>
      </trkpt>
      <trkpt lat="46.03213" lon="6.77621">
        <ele>1062.3</ele>
        <time>2021-01-16T07:30:28Z</time>
      </trkpt>
      <trkpt lat="46.0321" lon="6.77622">
        <ele>1061.9</ele>
        <time>2021-01-16T07:30:33Z</time>
      </trkpt>
      <trkpt lat="46.03207" lon="6.77627">
        <ele>1063</ele>
        <time>2021-01-16T07:30:42Z</time>
      </trkpt>
      <trkpt lat="46.03204" lon="6.7763">
        <ele>1063.8</ele>
        <time>2021-01-16T07:30:50Z</time>
      </trkpt>
      <trkpt lat="46.032" lon="6.77628">
        <ele>1064.1</ele>
        <time>2021-01-16T07:30:54Z</time>
      </trkpt>
      <trkpt lat="46.03196" lon="6.7763">
        <ele>1063.6</ele>
        <time>2021-01-16T07:30:59Z</time>
      </trkpt>
      <trkpt lat="46.03193" lon="6.77621">
        <ele>1063.3</ele>
        <time>2021-01-16T07:31:03Z</time>
      </trkpt>
      <trkpt lat="46.0319" lon="6.77618">
        <ele>1062.6</ele>
        <time>2021-01-16T07:31:10Z</time>
      </trkpt>
      <trkpt lat="46.03186" lon="6.77616">
        <ele>1062.7</ele>
        <time>2021-01-16T07:31:15Z</time>
      </trkpt>
      <trkpt lat="46.03182" lon="6.77618">
        <ele>1062.8</ele>
        <time>2021-01-16T07:31:24Z</time>
      </trkpt>
      <trkpt lat="46.03177" lon="6.7762">
        <ele>1066.6</ele>
        <time>2021-01-16T07:31:33Z</time>
      </trkpt>
      <trkpt lat="46.03175" lon="6.77624">
        <ele>1067.4</ele>
        <time>2021-01-16T07:31:41Z</time>
      </trkpt>
      <trkpt lat="46.03172" lon="6.77625">
        <ele>1068</ele>
        <time>2021-01-16T07:31:47Z</time>
      </trkpt>
      <trkpt lat="46.03169" lon="6.77631">
        <ele>1068.2</ele>
        <time>2021-01-16T07:31:52Z</time>
      </trkpt>
      <trkpt lat="46.03164" lon="6.77629">
        <ele>1068.5</ele>
        <time>2021-01-16T07:31:57Z</time>
      </trkpt>
      <trkpt lat="46.03161" lon="6.77633">
        <ele>1069.1</ele>
        <time>2021-01-16T07:32:03Z</time>
      </trkpt>
      <trkpt lat="46.03157" lon="6.77636">
        <ele>1069.5</ele>
        <time>2021-01-16T07:32:11Z</time>
      </trkpt>
      <trkpt lat="46.03153" lon="6.77638">
        <ele>1070</ele>
        <time>2021-01-16T07:32:19Z</time>
      </trkpt>
      <trkpt lat="46.0315" lon="6.7764">
        <ele>1070.8</ele>
        <time>2021-01-16T07:32:28Z</time>
      </trkpt>
      <trkpt lat="46.03147" lon="6.77644">
        <ele>1071.4</ele>
        <time>2021-01-16T07:32:33Z</time>
      </trkpt>
      <trkpt lat="46.03146" lon="6.77664">
        <ele>1070</ele>
        <time>2021-01-16T07:32:37Z</time>
      </trkpt>
      <trkpt lat="46.03146" lon="6.77672">
        <ele>1069.5</ele>
        <time>2021-01-16T07:32:42Z</time>
      </trkpt>
      <trkpt lat="46.03148" lon="6.77666">
        <ele>1069.8</ele>
        <time>2021-01-16T07:33:01Z</time>
      </trkpt>
      <trkpt lat="46.03144" lon="6.77668">
        <ele>1071.8</ele>
        <time>2021-01-16T07:33:07Z</time>
      </trkpt>
      <trkpt lat="46.03141" lon="6.77671">
        <ele>1072</ele>
        <time>2021-01-16T07:33:11Z</time>
      </trkpt>
      <trkpt lat="46.03137" lon="6.7767">
        <ele>1073.5</ele>
        <time>2021-01-16T07:33:15Z</time>
      </trkpt>
      <trkpt lat="46.03133" lon="6.77673">
        <ele>1075.3</ele>
        <time>2021-01-16T07:33:19Z</time>
      </trkpt>
      <trkpt lat="46.03131" lon="6.77677">
        <ele>1077.1</ele>
        <time>2021-01-16T07:33:24Z</time>
      </trkpt>
      <trkpt lat="46.03128" lon="6.77682">
        <ele>1077.6</ele>
        <time>2021-01-16T07:33:28Z</time>
      </trkpt>
      <trkpt lat="46.03122" lon="6.77681">
        <ele>1078.6</ele>
        <time>2021-01-16T07:33:33Z</time>
      </trkpt>
      <trkpt lat="46.03117" lon="6.77685">
        <ele>1079.5</ele>
        <time>2021-01-16T07:33:37Z</time>
      </trkpt>
      <trkpt lat="46.03114" lon="6.77686">
        <ele>1080.8</ele>
        <time>2021-01-16T07:33:41Z</time>
      </trkpt>
      <trkpt lat="46.03111" lon="6.77691">
        <ele>1079.9</ele>
        <time>2021-01-16T07:33:47Z</time>
      </trkpt>
      <trkpt lat="46.03107" lon="6.77694">
        <ele>1080</ele>
        <time>2021-01-16T07:33:51Z</time>
      </trkpt>
      <trkpt lat="46.03101" lon="6.77697">
        <ele>1080.7</ele>
        <time>2021-01-16T07:33:56Z</time>
      </trkpt>
      <trkpt lat="46.03097" lon="6.77702">
        <ele>1081</ele>
        <time>2021-01-16T07:34:00Z</time>
      </trkpt>
      <trkpt lat="46.03093" lon="6.77706">
        <ele>1081.3</ele>
        <time>2021-01-16T07:34:05Z</time>
      </trkpt>
      <trkpt lat="46.03088" lon="6.77708">
        <ele>1081.5</ele>
        <time>2021-01-16T07:34:10Z</time>
      </trkpt>
      <trkpt lat="46.03082" lon="6.77712">
        <ele>1081.8</ele>
        <time>2021-01-16T07:34:15Z</time>
      </trkpt>
      <trkpt lat="46.03078" lon="6.77716">
        <ele>1081.7</ele>
        <time>2021-01-16T07:34:19Z</time>
      </trkpt>
      <trkpt lat="46.03075" lon="6.77718">
        <ele>1082.1</ele>
        <time>2021-01-16T07:34:23Z</time>
      </trkpt>
      <trkpt lat="46.0307" lon="6.77719">
        <ele>1082.9</ele>
        <time>2021-01-16T07:34:28Z</time>
      </trkpt>
      <trkpt lat="46.03067" lon="6.77722">
        <ele>1083.3</ele>
        <time>2021-01-16T07:34:32Z</time>
      </trkpt>
      <trkpt lat="46.03063" lon="6.77725">
        <ele>1083.9</ele>
        <time>2021-01-16T07:34:36Z</time>
      </trkpt>
      <trkpt lat="46.03058" lon="6.77729">
        <ele>1084.2</ele>
        <time>2021-01-16T07:34:41Z</time>
      </trkpt>
      <trkpt lat="46.03054" lon="6.7773">
        <ele>1084.9</ele>
        <time>2021-01-16T07:34:45Z</time>
      </trkpt>
      <trkpt lat="46.03048" lon="6.77732">
        <ele>1084.5</ele>
        <time>2021-01-16T07:34:50Z</time>
      </trkpt>
      <trkpt lat="46.03046" lon="6.77737">
        <ele>1083.8</ele>
        <time>2021-01-16T07:34:56Z</time>
      </trkpt>
      <trkpt lat="46.03042" lon="6.77741">
        <ele>1083.2</ele>
        <time>2021-01-16T07:35:01Z</time>
      </trkpt>
      <trkpt lat="46.0304" lon="6.77749">
        <ele>1081.8</ele>
        <time>2021-01-16T07:35:05Z</time>
      </trkpt>
      <trkpt lat="46.03037" lon="6.77754">
        <ele>1080.8</ele>
        <time>2021-01-16T07:35:09Z</time>
      </trkpt>
      <trkpt lat="46.03033" lon="6.77758">
        <ele>1080.4</ele>
        <time>2021-01-16T07:35:13Z</time>
      </trkpt>
      <trkpt lat="46.03029" lon="6.77761">
        <ele>1080</ele>
        <time>2021-01-16T07:35:17Z</time>
      </trkpt>
      <trkpt lat="46.03022" lon="6.77762">
        <ele>1080</ele>
        <time>2021-01-16T07:35:22Z</time>
      </trkpt>
      <trkpt lat="46.03017" lon="6.77764">
        <ele>1079.9</ele>
        <time>2021-01-16T07:35:26Z</time>
      </trkpt>
      <trkpt lat="46.03013" lon="6.77767">
        <ele>1079.4</ele>
        <time>2021-01-16T07:35:31Z</time>
      </trkpt>
      <trkpt lat="46.03011" lon="6.77771">
        <ele>1078.9</ele>
        <time>2021-01-16T07:35:35Z</time>
      </trkpt>
      <trkpt lat="46.03007" lon="6.77771">
        <ele>1078.9</ele>
        <time>2021-01-16T07:35:39Z</time>
      </trkpt>
      <trkpt lat="46.03003" lon="6.77774">
        <ele>1078.7</ele>
        <time>2021-01-16T07:35:43Z</time>
      </trkpt>
      <trkpt lat="46.02999" lon="6.77777">
        <ele>1078.6</ele>
        <time>2021-01-16T07:35:48Z</time>
      </trkpt>
      <trkpt lat="46.02995" lon="6.77782">
        <ele>1079.5</ele>
        <time>2021-01-16T07:35:53Z</time>
      </trkpt>
      <trkpt lat="46.0299" lon="6.77785">
        <ele>1079.7</ele>
        <time>2021-01-16T07:35:57Z</time>
      </trkpt>
      <trkpt lat="46.02983" lon="6.77787">
        <ele>1079.2</ele>
        <time>2021-01-16T07:36:01Z</time>
      </trkpt>
      <trkpt lat="46.02979" lon="6.77788">
        <ele>1078.6</ele>
        <time>2021-01-16T07:36:05Z</time>
      </trkpt>
      <trkpt lat="46.02976" lon="6.7779">
        <ele>1078</ele>
        <time>2021-01-16T07:36:10Z</time>
      </trkpt>
      <trkpt lat="46.02972" lon="6.77792">
        <ele>1077.2</ele>
        <time>2021-01-16T07:36:16Z</time>
      </trkpt>
      <trkpt lat="46.02968" lon="6.77793">
        <ele>1076.9</ele>
        <time>2021-01-16T07:36:23Z</time>
      </trkpt>
      <trkpt lat="46.02964" lon="6.77792">
        <ele>1077.8</ele>
        <time>2021-01-16T07:36:28Z</time>
      </trkpt>
      <trkpt lat="46.02961" lon="6.77796">
        <ele>1077.7</ele>
        <time>2021-01-16T07:36:36Z</time>
      </trkpt>
      <trkpt lat="46.02957" lon="6.778">
        <ele>1077.7</ele>
        <time>2021-01-16T07:36:43Z</time>
      </trkpt>
      <trkpt lat="46.02955" lon="6.77806">
        <ele>1077.3</ele>
        <time>2021-01-16T07:36:51Z</time>
      </trkpt>
      <trkpt lat="46.02952" lon="6.77808">
        <ele>1077.1</ele>
        <time>2021-01-16T07:36:57Z</time>
      </trkpt>
      <trkpt lat="46.02949" lon="6.77813">
        <ele>1076.4</ele>
        <time>2021-01-16T07:37:01Z</time>
      </trkpt>
      <trkpt lat="46.02946" lon="6.77816">
        <ele>1075.5</ele>
        <time>2021-01-16T07:37:10Z</time>
      </trkpt>
      <trkpt lat="46.02941" lon="6.7782">
        <ele>1075.4</ele>
        <time>2021-01-16T07:37:14Z</time>
      </trkpt>
      <trkpt lat="46.0294" lon="6.7783">
        <ele>1075.4</ele>
        <time>2021-01-16T07:37:19Z</time>
      </trkpt>
      <trkpt lat="46.0294" lon="6.77836">
        <ele>1076.1</ele>
        <time>2021-01-16T07:37:25Z</time>
      </trkpt>
      <trkpt lat="46.02944" lon="6.77845">
        <ele>1076.2</ele>
        <time>2021-01-16T07:37:29Z</time>
      </trkpt>
      <trkpt lat="46.02942" lon="6.77851">
        <ele>1076</ele>
        <time>2021-01-16T07:37:34Z</time>
      </trkpt>
      <trkpt lat="46.02939" lon="6.77855">
        <ele>1075.9</ele>
        <time>2021-01-16T07:37:41Z</time>
      </trkpt>
      <trkpt lat="46.02935" lon="6.77857">
        <ele>1076</ele>
        <time>2021-01-16T07:37:45Z</time>
      </trkpt>
      <trkpt lat="46.02931" lon="6.77857">
        <ele>1075.9</ele>
        <time>2021-01-16T07:37:49Z</time>
      </trkpt>
      <trkpt lat="46.02929" lon="6.77854">
        <ele>1075.7</ele>
        <time>2021-01-16T07:37:57Z</time>
      </trkpt>
      <trkpt lat="46.02926" lon="6.77856">
        <ele>1076</ele>
        <time>2021-01-16T07:38:19Z</time>
      </trkpt>
      <trkpt lat="46.02925" lon="6.77864">
        <ele>1076.2</ele>
        <time>2021-01-16T07:38:23Z</time>
      </trkpt>
      <trkpt lat="46.02921" lon="6.77869">
        <ele>1076.1</ele>
        <time>2021-01-16T07:38:28Z</time>
      </trkpt>
      <trkpt lat="46.02919" lon="6.77875">
        <ele>1076</ele>
        <time>2021-01-16T07:38:33Z</time>
      </trkpt>
      <trkpt lat="46.02918" lon="6.77881">
        <ele>1076.2</ele>
        <time>2021-01-16T07:38:37Z</time>
      </trkpt>
      <trkpt lat="46.02918" lon="6.77886">
        <ele>1076.3</ele>
        <time>2021-01-16T07:38:41Z</time>
      </trkpt>
      <trkpt lat="46.02922" lon="6.77889">
        <ele>1076.6</ele>
        <time>2021-01-16T07:38:49Z</time>
      </trkpt>
      <trkpt lat="46.02921" lon="6.77894">
        <ele>1076.8</ele>
        <time>2021-01-16T07:38:55Z</time>
      </trkpt>
      <trkpt lat="46.0292" lon="6.779">
        <ele>1077.1</ele>
        <time>2021-01-16T07:39:01Z</time>
      </trkpt>
      <trkpt lat="46.02922" lon="6.77905">
        <ele>1077.7</ele>
        <time>2021-01-16T07:39:29Z</time>
      </trkpt>
      <trkpt lat="46.0292" lon="6.77911">
        <ele>1077.9</ele>
        <time>2021-01-16T07:39:34Z</time>
      </trkpt>
      <trkpt lat="46.02916" lon="6.77914">
        <ele>1078.1</ele>
        <time>2021-01-16T07:39:39Z</time>
      </trkpt>
      <trkpt lat="46.02913" lon="6.77918">
        <ele>1078.2</ele>
        <time>2021-01-16T07:39:44Z</time>
      </trkpt>
      <trkpt lat="46.02907" lon="6.77922">
        <ele>1078.5</ele>
        <time>2021-01-16T07:39:49Z</time>
      </trkpt>
      <trkpt lat="46.02906" lon="6.77928">
        <ele>1078.7</ele>
        <time>2021-01-16T07:39:54Z</time>
      </trkpt>
      <trkpt lat="46.02902" lon="6.77931">
        <ele>1079.2</ele>
        <time>2021-01-16T07:40:05Z</time>
      </trkpt>
      <trkpt lat="46.02898" lon="6.77933">
        <ele>1079.9</ele>
        <time>2021-01-16T07:41:21Z</time>
      </trkpt>
      <trkpt lat="46.02894" lon="6.77937">
        <ele>1080</ele>
        <time>2021-01-16T07:41:26Z</time>
      </trkpt>
      <trkpt lat="46.02892" lon="6.77942">
        <ele>1080.1</ele>
        <time>2021-01-16T07:41:31Z</time>
      </trkpt>
      <trkpt lat="46.02891" lon="6.77949">
        <ele>1080.4</ele>
        <time>2021-01-16T07:41:38Z</time>
      </trkpt>
      <trkpt lat="46.02892" lon="6.77954">
        <ele>1081.2</ele>
        <time>2021-01-16T07:41:50Z</time>
      </trkpt>
      <trkpt lat="46.02891" lon="6.77963">
        <ele>1081.6</ele>
        <time>2021-01-16T07:41:55Z</time>
      </trkpt>
      <trkpt lat="46.02888" lon="6.77968">
        <ele>1082</ele>
        <time>2021-01-16T07:41:59Z</time>
      </trkpt>
      <trkpt lat="46.02887" lon="6.77974">
        <ele>1082.6</ele>
        <time>2021-01-16T07:42:04Z</time>
      </trkpt>
      <trkpt lat="46.02884" lon="6.77979">
        <ele>1083.2</ele>
        <time>2021-01-16T07:42:10Z</time>
      </trkpt>
      <trkpt lat="46.02881" lon="6.77983">
        <ele>1084</ele>
        <time>2021-01-16T07:42:16Z</time>
      </trkpt>
      <trkpt lat="46.02878" lon="6.77987">
        <ele>1084.5</ele>
        <time>2021-01-16T07:42:21Z</time>
      </trkpt>
      <trkpt lat="46.02875" lon="6.7799">
        <ele>1085.4</ele>
        <time>2021-01-16T07:42:29Z</time>
      </trkpt>
      <trkpt lat="46.02875" lon="6.77997">
        <ele>1086</ele>
        <time>2021-01-16T07:42:34Z</time>
      </trkpt>
      <trkpt lat="46.02873" lon="6.78002">
        <ele>1086.6</ele>
        <time>2021-01-16T07:42:39Z</time>
      </trkpt>
      <trkpt lat="46.0287" lon="6.78006">
        <ele>1087.2</ele>
        <time>2021-01-16T07:42:44Z</time>
      </trkpt>
      <trkpt lat="46.02866" lon="6.78006">
        <ele>1088</ele>
        <time>2021-01-16T07:42:50Z</time>
      </trkpt>
      <trkpt lat="46.02863" lon="6.78004">
        <ele>1088.6</ele>
        <time>2021-01-16T07:42:54Z</time>
      </trkpt>
      <trkpt lat="46.02859" lon="6.78005">
        <ele>1090</ele>
        <time>2021-01-16T07:43:03Z</time>
      </trkpt>
      <trkpt lat="46.02856" lon="6.7801">
        <ele>1090.8</ele>
        <time>2021-01-16T07:43:09Z</time>
      </trkpt>
      <trkpt lat="46.02853" lon="6.78013">
        <ele>1091.3</ele>
        <time>2021-01-16T07:43:14Z</time>
      </trkpt>
      <trkpt lat="46.0285" lon="6.78017">
        <ele>1091.9</ele>
        <time>2021-01-16T07:43:19Z</time>
      </trkpt>
      <trkpt lat="46.02846" lon="6.78021">
        <ele>1093.2</ele>
        <time>2021-01-16T07:43:27Z</time>
      </trkpt>
      <trkpt lat="46.02843" lon="6.78025">
        <ele>1094.6</ele>
        <time>2021-01-16T07:43:35Z</time>
      </trkpt>
      <trkpt lat="46.02842" lon="6.78031">
        <ele>1095.5</ele>
        <time>2021-01-16T07:43:42Z</time>
      </trkpt>
      <trkpt lat="46.0284" lon="6.78035">
        <ele>1096.7</ele>
        <time>2021-01-16T07:43:50Z</time>
      </trkpt>
      <trkpt lat="46.02839" lon="6.78041">
        <ele>1097.2</ele>
        <time>2021-01-16T07:43:55Z</time>
      </trkpt>
      <trkpt lat="46.02837" lon="6.78047">
        <ele>1097.5</ele>
        <time>2021-01-16T07:43:59Z</time>
      </trkpt>
      <trkpt lat="46.02837" lon="6.78051">
        <ele>1098.9</ele>
        <time>2021-01-16T07:44:08Z</time>
      </trkpt>
      <trkpt lat="46.02834" lon="6.78056">
        <ele>1099.3</ele>
        <time>2021-01-16T07:44:15Z</time>
      </trkpt>
      <trkpt lat="46.0283" lon="6.78058">
        <ele>1099.7</ele>
        <time>2021-01-16T07:44:21Z</time>
      </trkpt>
      <trkpt lat="46.02827" lon="6.78054">
        <ele>1101.2</ele>
        <time>2021-01-16T07:44:32Z</time>
      </trkpt>
      <trkpt lat="46.02826" lon="6.78053">
        <ele>1101.5</ele>
        <time>2021-01-16T07:45:06Z</time>
      </trkpt>
      <trkpt lat="46.02822" lon="6.78053">
        <ele>1102.7</ele>
        <time>2021-01-16T07:45:16Z</time>
      </trkpt>
      <trkpt lat="46.02826" lon="6.78064">
        <ele>1102.9</ele>
        <time>2021-01-16T07:45:20Z</time>
      </trkpt>
      <trkpt lat="46.02829" lon="6.78069">
        <ele>1103</ele>
        <time>2021-01-16T07:45:27Z</time>
      </trkpt>
      <trkpt lat="46.02831" lon="6.78073">
        <ele>1103.2</ele>
        <time>2021-01-16T07:45:33Z</time>
      </trkpt>
      <trkpt lat="46.02835" lon="6.78076">
        <ele>1103.2</ele>
        <time>2021-01-16T07:45:37Z</time>
      </trkpt>
      <trkpt lat="46.02839" lon="6.78077">
        <ele>1103.3</ele>
        <time>2021-01-16T07:45:41Z</time>
      </trkpt>
      <trkpt lat="46.02843" lon="6.78075">
        <ele>1103.5</ele>
        <time>2021-01-16T07:45:51Z</time>
      </trkpt>
      <trkpt lat="46.02845" lon="6.78069">
        <ele>1103.7</ele>
        <time>2021-01-16T07:45:58Z</time>
      </trkpt>
      <trkpt lat="46.02847" lon="6.78066">
        <ele>1103.9</ele>
        <time>2021-01-16T07:46:02Z</time>
      </trkpt>
      <trkpt lat="46.02853" lon="6.78066">
        <ele>1104.2</ele>
        <time>2021-01-16T07:46:06Z</time>
      </trkpt>
      <trkpt lat="46.02857" lon="6.78068">
        <ele>1104.6</ele>
        <time>2021-01-16T07:46:13Z</time>
      </trkpt>
      <trkpt lat="46.02861" lon="6.78071">
        <ele>1104.9</ele>
        <time>2021-01-16T07:46:22Z</time>
      </trkpt>
      <trkpt lat="46.02864" lon="6.78072">
        <ele>1105.6</ele>
        <time>2021-01-16T07:46:32Z</time>
      </trkpt>
      <trkpt lat="46.02868" lon="6.78072">
        <ele>1105.8</ele>
        <time>2021-01-16T07:46:36Z</time>
      </trkpt>
      <trkpt lat="46.02871" lon="6.78078">
        <ele>1106.3</ele>
        <time>2021-01-16T07:46:41Z</time>
      </trkpt>
      <trkpt lat="46.02875" lon="6.78081">
        <ele>1106.9</ele>
        <time>2021-01-16T07:46:49Z</time>
      </trkpt>
      <trkpt lat="46.02878" lon="6.78081">
        <ele>1107.6</ele>
        <time>2021-01-16T07:46:55Z</time>
      </trkpt>
      <trkpt lat="46.02882" lon="6.78077">
        <ele>1108.2</ele>
        <time>2021-01-16T07:47:00Z</time>
      </trkpt>
      <trkpt lat="46.02885" lon="6.78082">
        <ele>1108.6</ele>
        <time>2021-01-16T07:47:10Z</time>
      </trkpt>
      <trkpt lat="46.02889" lon="6.78082">
        <ele>1109.1</ele>
        <time>2021-01-16T07:47:17Z</time>
      </trkpt>
      <trkpt lat="46.02889" lon="6.78088">
        <ele>1109.6</ele>
        <time>2021-01-16T07:47:23Z</time>
      </trkpt>
      <trkpt lat="46.02891" lon="6.78092">
        <ele>1110.5</ele>
        <time>2021-01-16T07:47:32Z</time>
      </trkpt>
      <trkpt lat="46.02895" lon="6.78094">
        <ele>1110.9</ele>
        <time>2021-01-16T07:47:38Z</time>
      </trkpt>
      <trkpt lat="46.02899" lon="6.78093">
        <ele>1111.5</ele>
        <time>2021-01-16T07:47:44Z</time>
      </trkpt>
      <trkpt lat="46.02902" lon="6.78097">
        <ele>1112.3</ele>
        <time>2021-01-16T07:47:50Z</time>
      </trkpt>
      <trkpt lat="46.02907" lon="6.78098">
        <ele>1113.7</ele>
        <time>2021-01-16T07:47:57Z</time>
      </trkpt>
      <trkpt lat="46.02911" lon="6.781">
        <ele>1114.2</ele>
        <time>2021-01-16T07:48:02Z</time>
      </trkpt>
      <trkpt lat="46.02913" lon="6.78097">
        <ele>1115.2</ele>
        <time>2021-01-16T07:48:09Z</time>
      </trkpt>
      <trkpt lat="46.02915" lon="6.78091">
        <ele>1115.8</ele>
        <time>2021-01-16T07:48:13Z</time>
      </trkpt>
      <trkpt lat="46.02918" lon="6.78089">
        <ele>1118.3</ele>
        <time>2021-01-16T07:48:20Z</time>
      </trkpt>
      <trkpt lat="46.02921" lon="6.78086">
        <ele>1119.2</ele>
        <time>2021-01-16T07:48:25Z</time>
      </trkpt>
      <trkpt lat="46.02925" lon="6.78085">
        <ele>1120</ele>
        <time>2021-01-16T07:48:31Z</time>
      </trkpt>
      <trkpt lat="46.02929" lon="6.78083">
        <ele>1120.4</ele>
        <time>2021-01-16T07:48:35Z</time>
      </trkpt>
      <trkpt lat="46.02934" lon="6.78083">
        <ele>1121.1</ele>
        <time>2021-01-16T07:48:42Z</time>
      </trkpt>
      <trkpt lat="46.02938" lon="6.78084">
        <ele>1122.2</ele>
        <time>2021-01-16T07:48:50Z</time>
      </trkpt>
      <trkpt lat="46.02945" lon="6.78079">
        <ele>1124.6</ele>
        <time>2021-01-16T07:48:55Z</time>
      </trkpt>
      <trkpt lat="46.02951" lon="6.78073">
        <ele>1126.8</ele>
        <time>2021-01-16T07:49:00Z</time>
      </trkpt>
      <trkpt lat="46.02956" lon="6.78073">
        <ele>1128.1</ele>
        <time>2021-01-16T07:49:05Z</time>
      </trkpt>
      <trkpt lat="46.0296" lon="6.78072">
        <ele>1129.4</ele>
        <time>2021-01-16T07:49:18Z</time>
      </trkpt>
      <trkpt lat="46.02959" lon="6.78066">
        <ele>1131.7</ele>
        <time>2021-01-16T07:49:23Z</time>
      </trkpt>
      <trkpt lat="46.02963" lon="6.78062">
        <ele>1133.2</ele>
        <time>2021-01-16T07:49:28Z</time>
      </trkpt>
      <trkpt lat="46.02966" lon="6.78057">
        <ele>1132.8</ele>
        <time>2021-01-16T07:49:40Z</time>
      </trkpt>
      <trkpt lat="46.02969" lon="6.78052">
        <ele>1134.8</ele>
        <time>2021-01-16T07:49:49Z</time>
      </trkpt>
      <trkpt lat="46.02972" lon="6.78049">
        <ele>1135.7</ele>
        <time>2021-01-16T07:49:56Z</time>
      </trkpt>
      <trkpt lat="46.02975" lon="6.78045">
        <ele>1137.7</ele>
        <time>2021-01-16T07:50:02Z</time>
      </trkpt>
      <trkpt lat="46.02981" lon="6.78028">
        <ele>1140.8</ele>
        <time>2021-01-16T07:50:07Z</time>
      </trkpt>
      <trkpt lat="46.02983" lon="6.78024">
        <ele>1141.6</ele>
        <time>2021-01-16T07:50:11Z</time>
      </trkpt>
      <trkpt lat="46.02984" lon="6.78017">
        <ele>1143.1</ele>
        <time>2021-01-16T07:50:15Z</time>
      </trkpt>
      <trkpt lat="46.02989" lon="6.78016">
        <ele>1146.5</ele>
        <time>2021-01-16T07:50:30Z</time>
      </trkpt>
      <trkpt lat="46.02993" lon="6.78016">
        <ele>1147.5</ele>
        <time>2021-01-16T07:50:37Z</time>
      </trkpt>
      <trkpt lat="46.02996" lon="6.78019">
        <ele>1148.2</ele>
        <time>2021-01-16T07:50:41Z</time>
      </trkpt>
      <trkpt lat="46.02996" lon="6.78015">
        <ele>1149.2</ele>
        <time>2021-01-16T07:51:10Z</time>
      </trkpt>
      <trkpt lat="46.03001" lon="6.78007">
        <ele>1150</ele>
        <time>2021-01-16T07:51:14Z</time>
      </trkpt>
      <trkpt lat="46.03006" lon="6.78001">
        <ele>1152.9</ele>
        <time>2021-01-16T07:51:19Z</time>
      </trkpt>
      <trkpt lat="46.03009" lon="6.78002">
        <ele>1154</ele>
        <time>2021-01-16T07:51:25Z</time>
      </trkpt>
      <trkpt lat="46.03013" lon="6.78002">
        <ele>1154.3</ele>
        <time>2021-01-16T07:51:31Z</time>
      </trkpt>
      <trkpt lat="46.03016" lon="6.78006">
        <ele>1154.8</ele>
        <time>2021-01-16T07:51:36Z</time>
      </trkpt>
      <trkpt lat="46.0302" lon="6.78005">
        <ele>1154.7</ele>
        <time>2021-01-16T07:51:45Z</time>
      </trkpt>
      <trkpt lat="46.03024" lon="6.78007">
        <ele>1153.3</ele>
        <time>2021-01-16T07:51:52Z</time>
      </trkpt>
      <trkpt lat="46.03028" lon="6.78008">
        <ele>1152.6</ele>
        <time>2021-01-16T07:51:56Z</time>
      </trkpt>
      <trkpt lat="46.03032" lon="6.78009">
        <ele>1151.8</ele>
        <time>2021-01-16T07:52:06Z</time>
      </trkpt>
      <trkpt lat="46.03037" lon="6.78009">
        <ele>1150.6</ele>
        <time>2021-01-16T07:52:11Z</time>
      </trkpt>
      <trkpt lat="46.03038" lon="6.78011">
        <ele>1150.5</ele>
        <time>2021-01-16T07:52:24Z</time>
      </trkpt>
      <trkpt lat="46.03044" lon="6.78014">
        <ele>1148.5</ele>
        <time>2021-01-16T07:52:28Z</time>
      </trkpt>
      <trkpt lat="46.0305" lon="6.78015">
        <ele>1147</ele>
        <time>2021-01-16T07:52:33Z</time>
      </trkpt>
      <trkpt lat="46.03056" lon="6.78013">
        <ele>1148.5</ele>
        <time>2021-01-16T07:52:38Z</time>
      </trkpt>
      <trkpt lat="46.0306" lon="6.78011">
        <ele>1147.9</ele>
        <time>2021-01-16T07:52:46Z</time>
      </trkpt>
      <trkpt lat="46.03063" lon="6.78006">
        <ele>1148.7</ele>
        <time>2021-01-16T07:52:54Z</time>
      </trkpt>
      <trkpt lat="46.03067" lon="6.78007">
        <ele>1149.8</ele>
        <time>2021-01-16T07:53:14Z</time>
      </trkpt>
      <trkpt lat="46.03071" lon="6.78006">
        <ele>1150.5</ele>
        <time>2021-01-16T07:53:22Z</time>
      </trkpt>
      <trkpt lat="46.03075" lon="6.78005">
        <ele>1154.6</ele>
        <time>2021-01-16T07:53:35Z</time>
      </trkpt>
      <trkpt lat="46.03078" lon="6.78">
        <ele>1154.6</ele>
        <time>2021-01-16T07:53:39Z</time>
      </trkpt>
      <trkpt lat="46.03083" lon="6.78007">
        <ele>1155.2</ele>
        <time>2021-01-16T07:53:44Z</time>
      </trkpt>
      <trkpt lat="46.03087" lon="6.78007">
        <ele>1155.7</ele>
        <time>2021-01-16T07:53:49Z</time>
      </trkpt>
      <trkpt lat="46.03089" lon="6.78001">
        <ele>1156.7</ele>
        <time>2021-01-16T07:53:54Z</time>
      </trkpt>
      <trkpt lat="46.03089" lon="6.77993">
        <ele>1157.8</ele>
        <time>2021-01-16T07:53:58Z</time>
      </trkpt>
      <trkpt lat="46.03091" lon="6.77989">
        <ele>1158.3</ele>
        <time>2021-01-16T07:54:02Z</time>
      </trkpt>
      <trkpt lat="46.03095" lon="6.77988">
        <ele>1158.3</ele>
        <time>2021-01-16T07:54:09Z</time>
      </trkpt>
      <trkpt lat="46.03098" lon="6.77986">
        <ele>1160</ele>
        <time>2021-01-16T07:54:15Z</time>
      </trkpt>
      <trkpt lat="46.03101" lon="6.77982">
        <ele>1161.6</ele>
        <time>2021-01-16T07:54:19Z</time>
      </trkpt>
      <trkpt lat="46.03103" lon="6.77977">
        <ele>1162.4</ele>
        <time>2021-01-16T07:54:24Z</time>
      </trkpt>
      <trkpt lat="46.03105" lon="6.77976">
        <ele>1162.2</ele>
        <time>2021-01-16T07:54:35Z</time>
      </trkpt>
      <trkpt lat="46.03111" lon="6.77969">
        <ele>1163.2</ele>
        <time>2021-01-16T07:54:39Z</time>
      </trkpt>
      <trkpt lat="46.03114" lon="6.77964">
        <ele>1163.4</ele>
        <time>2021-01-16T07:54:45Z</time>
      </trkpt>
      <trkpt lat="46.03117" lon="6.77961">
        <ele>1167.5</ele>
        <time>2021-01-16T07:55:03Z</time>
      </trkpt>
      <trkpt lat="46.03123" lon="6.77966">
        <ele>1167.3</ele>
        <time>2021-01-16T07:55:07Z</time>
      </trkpt>
      <trkpt lat="46.03127" lon="6.77967">
        <ele>1167.8</ele>
        <time>2021-01-16T07:55:11Z</time>
      </trkpt>
      <trkpt lat="46.03131" lon="6.77968">
        <ele>1168.6</ele>
        <time>2021-01-16T07:55:16Z</time>
      </trkpt>
      <trkpt lat="46.03135" lon="6.77969">
        <ele>1170.7</ele>
        <time>2021-01-16T07:55:25Z</time>
      </trkpt>
      <trkpt lat="46.03138" lon="6.77973">
        <ele>1171.7</ele>
        <time>2021-01-16T07:55:29Z</time>
      </trkpt>
      <trkpt lat="46.03142" lon="6.77977">
        <ele>1173.5</ele>
        <time>2021-01-16T07:55:38Z</time>
      </trkpt>
      <trkpt lat="46.03141" lon="6.77981">
        <ele>1175.2</ele>
        <time>2021-01-16T07:55:45Z</time>
      </trkpt>
      <trkpt lat="46.03144" lon="6.77984">
        <ele>1177.8</ele>
        <time>2021-01-16T07:55:54Z</time>
      </trkpt>
      <trkpt lat="46.03148" lon="6.77984">
        <ele>1178.3</ele>
        <time>2021-01-16T07:55:59Z</time>
      </trkpt>
      <trkpt lat="46.03153" lon="6.77985">
        <ele>1178.8</ele>
        <time>2021-01-16T07:56:04Z</time>
      </trkpt>
      <trkpt lat="46.03154" lon="6.77991">
        <ele>1178.7</ele>
        <time>2021-01-16T07:56:12Z</time>
      </trkpt>
      <trkpt lat="46.0316" lon="6.77992">
        <ele>1178.7</ele>
        <time>2021-01-16T07:56:17Z</time>
      </trkpt>
      <trkpt lat="46.03164" lon="6.77988">
        <ele>1179.5</ele>
        <time>2021-01-16T07:56:21Z</time>
      </trkpt>
      <trkpt lat="46.03168" lon="6.77991">
        <ele>1179.3</ele>
        <time>2021-01-16T07:56:29Z</time>
      </trkpt>
      <trkpt lat="46.0317" lon="6.77989">
        <ele>1181.6</ele>
        <time>2021-01-16T07:56:44Z</time>
      </trkpt>
      <trkpt lat="46.03182" lon="6.77981">
        <ele>1188.6</ele>
        <time>2021-01-16T07:56:49Z</time>
      </trkpt>
      <trkpt lat="46.03184" lon="6.77977">
        <ele>1191.5</ele>
        <time>2021-01-16T07:56:57Z</time>
      </trkpt>
      <trkpt lat="46.03187" lon="6.77975">
        <ele>1193.4</ele>
        <time>2021-01-16T07:57:07Z</time>
      </trkpt>
      <trkpt lat="46.03191" lon="6.77973">
        <ele>1193.6</ele>
        <time>2021-01-16T07:57:11Z</time>
      </trkpt>
      <trkpt lat="46.03195" lon="6.77973">
        <ele>1193.5</ele>
        <time>2021-01-16T07:57:19Z</time>
      </trkpt>
      <trkpt lat="46.03198" lon="6.77976">
        <ele>1193.6</ele>
        <time>2021-01-16T07:57:30Z</time>
      </trkpt>
      <trkpt lat="46.03197" lon="6.77981">
        <ele>1193.6</ele>
        <time>2021-01-16T07:57:40Z</time>
      </trkpt>
      <trkpt lat="46.03195" lon="6.77986">
        <ele>1193.5</ele>
        <time>2021-01-16T07:57:56Z</time>
      </trkpt>
      <trkpt lat="46.032" lon="6.77992">
        <ele>1193.7</ele>
        <time>2021-01-16T07:58:00Z</time>
      </trkpt>
      <trkpt lat="46.03197" lon="6.77993">
        <ele>1194.2</ele>
        <time>2021-01-16T07:58:14Z</time>
      </trkpt>
      <trkpt lat="46.03195" lon="6.77993">
        <ele>1194.1</ele>
        <time>2021-01-16T07:58:22Z</time>
      </trkpt>
      <trkpt lat="46.03191" lon="6.78001">
        <ele>1193.8</ele>
        <time>2021-01-16T07:58:26Z</time>
      </trkpt>
      <trkpt lat="46.03191" lon="6.78007">
        <ele>1193.6</ele>
        <time>2021-01-16T07:58:30Z</time>
      </trkpt>
      <trkpt lat="46.03192" lon="6.78012">
        <ele>1193.6</ele>
        <time>2021-01-16T07:58:36Z</time>
      </trkpt>
      <trkpt lat="46.03195" lon="6.78018">
        <ele>1193.5</ele>
        <time>2021-01-16T07:58:46Z</time>
      </trkpt>
      <trkpt lat="46.03191" lon="6.78021">
        <ele>1193.9</ele>
        <time>2021-01-16T07:58:55Z</time>
      </trkpt>
      <trkpt lat="46.03188" lon="6.78025">
        <ele>1193.8</ele>
        <time>2021-01-16T07:59:01Z</time>
      </trkpt>
      <trkpt lat="46.03184" lon="6.78027">
        <ele>1194.1</ele>
        <time>2021-01-16T07:59:05Z</time>
      </trkpt>
      <trkpt lat="46.03182" lon="6.78031">
        <ele>1194.1</ele>
        <time>2021-01-16T07:59:11Z</time>
      </trkpt>
      <trkpt lat="46.03178" lon="6.78035">
        <ele>1194</ele>
        <time>2021-01-16T07:59:20Z</time>
      </trkpt>
      <trkpt lat="46.03174" lon="6.78034">
        <ele>1193.9</ele>
        <time>2021-01-16T07:59:26Z</time>
      </trkpt>
      <trkpt lat="46.03171" lon="6.78039">
        <ele>1193.9</ele>
        <time>2021-01-16T07:59:31Z</time>
      </trkpt>
      <trkpt lat="46.03168" lon="6.78043">
        <ele>1193.8</ele>
        <time>2021-01-16T07:59:38Z</time>
      </trkpt>
      <trkpt lat="46.03165" lon="6.78046">
        <ele>1193.8</ele>
        <time>2021-01-16T07:59:43Z</time>
      </trkpt>
      <trkpt lat="46.03161" lon="6.78046">
        <ele>1194</ele>
        <time>2021-01-16T07:59:48Z</time>
      </trkpt>
      <trkpt lat="46.03156" lon="6.78046">
        <ele>1194.5</ele>
        <time>2021-01-16T07:59:53Z</time>
      </trkpt>
      <trkpt lat="46.03152" lon="6.78047">
        <ele>1195.8</ele>
        <time>2021-01-16T08:00:04Z</time>
      </trkpt>
      <trkpt lat="46.03148" lon="6.78048">
        <ele>1196.6</ele>
        <time>2021-01-16T08:00:08Z</time>
      </trkpt>
      <trkpt lat="46.03144" lon="6.78048">
        <ele>1198.3</ele>
        <time>2021-01-16T08:00:18Z</time>
      </trkpt>
      <trkpt lat="46.03142" lon="6.78053">
        <ele>1199.8</ele>
        <time>2021-01-16T08:00:26Z</time>
      </trkpt>
      <trkpt lat="46.03137" lon="6.78054">
        <ele>1200.9</ele>
        <time>2021-01-16T08:00:34Z</time>
      </trkpt>
      <trkpt lat="46.03136" lon="6.7806">
        <ele>1201.6</ele>
        <time>2021-01-16T08:00:40Z</time>
      </trkpt>
      <trkpt lat="46.03135" lon="6.78066">
        <ele>1202.9</ele>
        <time>2021-01-16T08:00:48Z</time>
      </trkpt>
      <trkpt lat="46.03136" lon="6.78072">
        <ele>1204.1</ele>
        <time>2021-01-16T08:00:54Z</time>
      </trkpt>
      <trkpt lat="46.03134" lon="6.78077">
        <ele>1205.3</ele>
        <time>2021-01-16T08:00:59Z</time>
      </trkpt>
      <trkpt lat="46.03134" lon="6.78082">
        <ele>1206.5</ele>
        <time>2021-01-16T08:01:07Z</time>
      </trkpt>
      <trkpt lat="46.03136" lon="6.7809">
        <ele>1206.7</ele>
        <time>2021-01-16T08:01:11Z</time>
      </trkpt>
      <trkpt lat="46.03135" lon="6.78096">
        <ele>1208.8</ele>
        <time>2021-01-16T08:01:19Z</time>
      </trkpt>
      <trkpt lat="46.03133" lon="6.78102">
        <ele>1209.8</ele>
        <time>2021-01-16T08:01:24Z</time>
      </trkpt>
      <trkpt lat="46.03133" lon="6.78108">
        <ele>1210.8</ele>
        <time>2021-01-16T08:01:30Z</time>
      </trkpt>
      <trkpt lat="46.03132" lon="6.78113">
        <ele>1212.6</ele>
        <time>2021-01-16T08:01:40Z</time>
      </trkpt>
      <trkpt lat="46.0313" lon="6.78119">
        <ele>1213.7</ele>
        <time>2021-01-16T08:01:45Z</time>
      </trkpt>
      <trkpt lat="46.03129" lon="6.78125">
        <ele>1215.6</ele>
        <time>2021-01-16T08:01:55Z</time>
      </trkpt>
      <trkpt lat="46.03124" lon="6.78127">
        <ele>1216.8</ele>
        <time>2021-01-16T08:02:00Z</time>
      </trkpt>
      <trkpt lat="46.0312" lon="6.7813">
        <ele>1217.9</ele>
        <time>2021-01-16T08:02:04Z</time>
      </trkpt>
      <trkpt lat="46.03119" lon="6.78136">
        <ele>1220.2</ele>
        <time>2021-01-16T08:02:15Z</time>
      </trkpt>
      <trkpt lat="46.03115" lon="6.78137">
        <ele>1221.5</ele>
        <time>2021-01-16T08:02:25Z</time>
      </trkpt>
      <trkpt lat="46.03115" lon="6.78143">
        <ele>1222.7</ele>
        <time>2021-01-16T08:02:52Z</time>
      </trkpt>
      <trkpt lat="46.03112" lon="6.78147">
        <ele>1222.7</ele>
        <time>2021-01-16T08:02:58Z</time>
      </trkpt>
      <trkpt lat="46.03109" lon="6.78151">
        <ele>1222.7</ele>
        <time>2021-01-16T08:03:03Z</time>
      </trkpt>
      <trkpt lat="46.03106" lon="6.78155">
        <ele>1222.7</ele>
        <time>2021-01-16T08:03:08Z</time>
      </trkpt>
      <trkpt lat="46.03102" lon="6.78157">
        <ele>1222.7</ele>
        <time>2021-01-16T08:03:13Z</time>
      </trkpt>
      <trkpt lat="46.03098" lon="6.7816">
        <ele>1222.7</ele>
        <time>2021-01-16T08:03:20Z</time>
      </trkpt>
      <trkpt lat="46.03096" lon="6.78165">
        <ele>1222.7</ele>
        <time>2021-01-16T08:03:25Z</time>
      </trkpt>
      <trkpt lat="46.03093" lon="6.78171">
        <ele>1222.9</ele>
        <time>2021-01-16T08:03:30Z</time>
      </trkpt>
      <trkpt lat="46.0309" lon="6.78176">
        <ele>1223.1</ele>
        <time>2021-01-16T08:03:37Z</time>
      </trkpt>
      <trkpt lat="46.03087" lon="6.78179">
        <ele>1223.1</ele>
        <time>2021-01-16T08:03:41Z</time>
      </trkpt>
      <trkpt lat="46.03084" lon="6.78183">
        <ele>1223.3</ele>
        <time>2021-01-16T08:03:51Z</time>
      </trkpt>
      <trkpt lat="46.0308" lon="6.78183">
        <ele>1223.3</ele>
        <time>2021-01-16T08:03:59Z</time>
      </trkpt>
      <trkpt lat="46.03076" lon="6.78186">
        <ele>1223.4</ele>
        <time>2021-01-16T08:04:08Z</time>
      </trkpt>
      <trkpt lat="46.03073" lon="6.7819">
        <ele>1223.5</ele>
        <time>2021-01-16T08:04:14Z</time>
      </trkpt>
      <trkpt lat="46.03069" lon="6.78191">
        <ele>1224</ele>
        <time>2021-01-16T08:04:22Z</time>
      </trkpt>
      <trkpt lat="46.03066" lon="6.78194">
        <ele>1224.4</ele>
        <time>2021-01-16T08:04:29Z</time>
      </trkpt>
      <trkpt lat="46.03062" lon="6.78198">
        <ele>1225</ele>
        <time>2021-01-16T08:04:33Z</time>
      </trkpt>
      <trkpt lat="46.03059" lon="6.78203">
        <ele>1225.7</ele>
        <time>2021-01-16T08:04:39Z</time>
      </trkpt>
      <trkpt lat="46.03057" lon="6.78208">
        <ele>1226.4</ele>
        <time>2021-01-16T08:04:45Z</time>
      </trkpt>
      <trkpt lat="46.03056" lon="6.78213">
        <ele>1226.7</ele>
        <time>2021-01-16T08:04:49Z</time>
      </trkpt>
      <trkpt lat="46.03055" lon="6.78218">
        <ele>1227.2</ele>
        <time>2021-01-16T08:04:53Z</time>
      </trkpt>
      <trkpt lat="46.03055" lon="6.78224">
        <ele>1227.4</ele>
        <time>2021-01-16T08:04:57Z</time>
      </trkpt>
      <trkpt lat="46.03053" lon="6.7823">
        <ele>1227.7</ele>
        <time>2021-01-16T08:05:02Z</time>
      </trkpt>
      <trkpt lat="46.0305" lon="6.78234">
        <ele>1228.1</ele>
        <time>2021-01-16T08:05:08Z</time>
      </trkpt>
      <trkpt lat="46.03046" lon="6.78236">
        <ele>1229.1</ele>
        <time>2021-01-16T08:05:21Z</time>
      </trkpt>
      <trkpt lat="46.03046" lon="6.78241">
        <ele>1230</ele>
        <time>2021-01-16T08:05:28Z</time>
      </trkpt>
      <trkpt lat="46.03045" lon="6.78247">
        <ele>1230.4</ele>
        <time>2021-01-16T08:05:37Z</time>
      </trkpt>
      <trkpt lat="46.03045" lon="6.78253">
        <ele>1230.8</ele>
        <time>2021-01-16T08:05:43Z</time>
      </trkpt>
      <trkpt lat="46.03044" lon="6.7826">
        <ele>1231.9</ele>
        <time>2021-01-16T08:05:50Z</time>
      </trkpt>
      <trkpt lat="46.0304" lon="6.78261">
        <ele>1232.9</ele>
        <time>2021-01-16T08:05:55Z</time>
      </trkpt>
      <trkpt lat="46.03038" lon="6.78266">
        <ele>1233.4</ele>
        <time>2021-01-16T08:06:01Z</time>
      </trkpt>
      <trkpt lat="46.03036" lon="6.78272">
        <ele>1234.3</ele>
        <time>2021-01-16T08:06:09Z</time>
      </trkpt>
      <trkpt lat="46.03035" lon="6.78278">
        <ele>1235.1</ele>
        <time>2021-01-16T08:06:17Z</time>
      </trkpt>
      <trkpt lat="46.03032" lon="6.78282">
        <ele>1235.6</ele>
        <time>2021-01-16T08:06:25Z</time>
      </trkpt>
      <trkpt lat="46.03028" lon="6.78282">
        <ele>1236</ele>
        <time>2021-01-16T08:06:30Z</time>
      </trkpt>
      <trkpt lat="46.03024" lon="6.78284">
        <ele>1236.4</ele>
        <time>2021-01-16T08:06:34Z</time>
      </trkpt>
      <trkpt lat="46.03021" lon="6.78288">
        <ele>1236.9</ele>
        <time>2021-01-16T08:06:38Z</time>
      </trkpt>
      <trkpt lat="46.03019" lon="6.78294">
        <ele>1237.6</ele>
        <time>2021-01-16T08:06:44Z</time>
      </trkpt>
      <trkpt lat="46.03015" lon="6.78294">
        <ele>1238.2</ele>
        <time>2021-01-16T08:06:51Z</time>
      </trkpt>
      <trkpt lat="46.03011" lon="6.78296">
        <ele>1238.5</ele>
        <time>2021-01-16T08:06:58Z</time>
      </trkpt>
      <trkpt lat="46.03009" lon="6.78302">
        <ele>1239</ele>
        <time>2021-01-16T08:07:03Z</time>
      </trkpt>
      <trkpt lat="46.03007" lon="6.78307">
        <ele>1240.5</ele>
        <time>2021-01-16T08:07:14Z</time>
      </trkpt>
      <trkpt lat="46.03008" lon="6.78308">
        <ele>1240.9</ele>
        <time>2021-01-16T08:07:39Z</time>
      </trkpt>
      <trkpt lat="46.02999" lon="6.78314">
        <ele>1243.1</ele>
        <time>2021-01-16T08:07:43Z</time>
      </trkpt>
      <trkpt lat="46.02999" lon="6.78319">
        <ele>1243.9</ele>
        <time>2021-01-16T08:07:49Z</time>
      </trkpt>
      <trkpt lat="46.02997" lon="6.78325">
        <ele>1244.3</ele>
        <time>2021-01-16T08:07:54Z</time>
      </trkpt>
      <trkpt lat="46.02994" lon="6.78328">
        <ele>1245.5</ele>
        <time>2021-01-16T08:08:02Z</time>
      </trkpt>
      <trkpt lat="46.0299" lon="6.78331">
        <ele>1246.7</ele>
        <time>2021-01-16T08:08:06Z</time>
      </trkpt>
      <trkpt lat="46.02986" lon="6.78331">
        <ele>1247.9</ele>
        <time>2021-01-16T08:08:11Z</time>
      </trkpt>
      <trkpt lat="46.02982" lon="6.78332">
        <ele>1248.7</ele>
        <time>2021-01-16T08:08:16Z</time>
      </trkpt>
      <trkpt lat="46.02978" lon="6.78335">
        <ele>1249.2</ele>
        <time>2021-01-16T08:08:21Z</time>
      </trkpt>
      <trkpt lat="46.02974" lon="6.78337">
        <ele>1250.8</ele>
        <time>2021-01-16T08:08:30Z</time>
      </trkpt>
      <trkpt lat="46.02972" lon="6.78341">
        <ele>1251.6</ele>
        <time>2021-01-16T08:08:40Z</time>
      </trkpt>
      <trkpt lat="46.02969" lon="6.78345">
        <ele>1252.9</ele>
        <time>2021-01-16T08:08:54Z</time>
      </trkpt>
      <trkpt lat="46.02967" lon="6.7835">
        <ele>1253.5</ele>
        <time>2021-01-16T08:09:01Z</time>
      </trkpt>
      <trkpt lat="46.02963" lon="6.78353">
        <ele>1253.6</ele>
        <time>2021-01-16T08:09:09Z</time>
      </trkpt>
      <trkpt lat="46.02961" lon="6.7836">
        <ele>1254.1</ele>
        <time>2021-01-16T08:09:13Z</time>
      </trkpt>
      <trkpt lat="46.02957" lon="6.78366">
        <ele>1254.8</ele>
        <time>2021-01-16T08:09:17Z</time>
      </trkpt>
      <trkpt lat="46.02956" lon="6.78371">
        <ele>1255.3</ele>
        <time>2021-01-16T08:09:23Z</time>
      </trkpt>
      <trkpt lat="46.02958" lon="6.78377">
        <ele>1255.6</ele>
        <time>2021-01-16T08:09:29Z</time>
      </trkpt>
      <trkpt lat="46.02961" lon="6.7838">
        <ele>1255.9</ele>
        <time>2021-01-16T08:09:34Z</time>
      </trkpt>
      <trkpt lat="46.02962" lon="6.78379">
        <ele>1256.9</ele>
        <time>2021-01-16T08:09:50Z</time>
      </trkpt>
      <trkpt lat="46.02968" lon="6.78381">
        <ele>1257.2</ele>
        <time>2021-01-16T08:09:55Z</time>
      </trkpt>
      <trkpt lat="46.02971" lon="6.78375">
        <ele>1257.6</ele>
        <time>2021-01-16T08:10:02Z</time>
      </trkpt>
      <trkpt lat="46.02972" lon="6.78372">
        <ele>1257.8</ele>
        <time>2021-01-16T08:10:07Z</time>
      </trkpt>
      <trkpt lat="46.02976" lon="6.78365">
        <ele>1258</ele>
        <time>2021-01-16T08:10:11Z</time>
      </trkpt>
      <trkpt lat="46.0298" lon="6.78363">
        <ele>1258.3</ele>
        <time>2021-01-16T08:10:18Z</time>
      </trkpt>
      <trkpt lat="46.02984" lon="6.78362">
        <ele>1258.7</ele>
        <time>2021-01-16T08:10:27Z</time>
      </trkpt>
      <trkpt lat="46.02986" lon="6.78368">
        <ele>1260.5</ele>
        <time>2021-01-16T08:10:41Z</time>
      </trkpt>
      <trkpt lat="46.0299" lon="6.7837">
        <ele>1261.5</ele>
        <time>2021-01-16T08:10:49Z</time>
      </trkpt>
      <trkpt lat="46.02993" lon="6.78374">
        <ele>1262.9</ele>
        <time>2021-01-16T08:10:55Z</time>
      </trkpt>
      <trkpt lat="46.02997" lon="6.78372">
        <ele>1264.6</ele>
        <time>2021-01-16T08:11:06Z</time>
      </trkpt>
      <trkpt lat="46.03001" lon="6.78371">
        <ele>1264.8</ele>
        <time>2021-01-16T08:11:11Z</time>
      </trkpt>
      <trkpt lat="46.03006" lon="6.78371">
        <ele>1265</ele>
        <time>2021-01-16T08:11:19Z</time>
      </trkpt>
      <trkpt lat="46.0301" lon="6.78369">
        <ele>1265.2</ele>
        <time>2021-01-16T08:11:32Z</time>
      </trkpt>
      <trkpt lat="46.03012" lon="6.78364">
        <ele>1265.5</ele>
        <time>2021-01-16T08:11:37Z</time>
      </trkpt>
      <trkpt lat="46.03016" lon="6.78362">
        <ele>1266.3</ele>
        <time>2021-01-16T08:11:48Z</time>
      </trkpt>
      <trkpt lat="46.03023" lon="6.78363">
        <ele>1266.9</ele>
        <time>2021-01-16T08:11:52Z</time>
      </trkpt>
      <trkpt lat="46.03027" lon="6.78366">
        <ele>1266.9</ele>
        <time>2021-01-16T08:11:56Z</time>
      </trkpt>
      <trkpt lat="46.03031" lon="6.78369">
        <ele>1266.7</ele>
        <time>2021-01-16T08:12:01Z</time>
      </trkpt>
      <trkpt lat="46.03034" lon="6.78365">
        <ele>1267.3</ele>
        <time>2021-01-16T08:12:16Z</time>
      </trkpt>
      <trkpt lat="46.03042" lon="6.78366">
        <ele>1268.5</ele>
        <time>2021-01-16T08:12:21Z</time>
      </trkpt>
      <trkpt lat="46.03046" lon="6.78364">
        <ele>1268.7</ele>
        <time>2021-01-16T08:12:27Z</time>
      </trkpt>
      <trkpt lat="46.03051" lon="6.78363">
        <ele>1269.2</ele>
        <time>2021-01-16T08:12:32Z</time>
      </trkpt>
      <trkpt lat="46.03055" lon="6.78364">
        <ele>1269.6</ele>
        <time>2021-01-16T08:12:38Z</time>
      </trkpt>
      <trkpt lat="46.03059" lon="6.78362">
        <ele>1269.9</ele>
        <time>2021-01-16T08:12:46Z</time>
      </trkpt>
      <trkpt lat="46.03063" lon="6.7836">
        <ele>1270.6</ele>
        <time>2021-01-16T08:12:54Z</time>
      </trkpt>
      <trkpt lat="46.03065" lon="6.78362">
        <ele>1270.7</ele>
        <time>2021-01-16T08:12:59Z</time>
      </trkpt>
      <trkpt lat="46.03069" lon="6.7836">
        <ele>1270.7</ele>
        <time>2021-01-16T08:13:04Z</time>
      </trkpt>
      <trkpt lat="46.03072" lon="6.78356">
        <ele>1270.7</ele>
        <time>2021-01-16T08:13:10Z</time>
      </trkpt>
      <trkpt lat="46.03074" lon="6.78351">
        <ele>1270.7</ele>
        <time>2021-01-16T08:13:23Z</time>
      </trkpt>
      <trkpt lat="46.03075" lon="6.7835">
        <ele>1270.5</ele>
        <time>2021-01-16T08:13:34Z</time>
      </trkpt>
      <trkpt lat="46.03083" lon="6.78349">
        <ele>1270.3</ele>
        <time>2021-01-16T08:13:38Z</time>
      </trkpt>
      <trkpt lat="46.03088" lon="6.78352">
        <ele>1270.3</ele>
        <time>2021-01-16T08:13:43Z</time>
      </trkpt>
      <trkpt lat="46.03095" lon="6.7835">
        <ele>1270.4</ele>
        <time>2021-01-16T08:13:47Z</time>
      </trkpt>
      <trkpt lat="46.03099" lon="6.78347">
        <ele>1270.7</ele>
        <time>2021-01-16T08:13:51Z</time>
      </trkpt>
      <trkpt lat="46.03103" lon="6.78349">
        <ele>1271.3</ele>
        <time>2021-01-16T08:13:59Z</time>
      </trkpt>
      <trkpt lat="46.03107" lon="6.78351">
        <ele>1271.4</ele>
        <time>2021-01-16T08:14:12Z</time>
      </trkpt>
      <trkpt lat="46.03111" lon="6.78355">
        <ele>1271.6</ele>
        <time>2021-01-16T08:14:22Z</time>
      </trkpt>
      <trkpt lat="46.03112" lon="6.78356">
        <ele>1271.7</ele>
        <time>2021-01-16T08:14:45Z</time>
      </trkpt>
      <trkpt lat="46.03111" lon="6.7837">
        <ele>1273.4</ele>
        <time>2021-01-16T08:14:50Z</time>
      </trkpt>
      <trkpt lat="46.03111" lon="6.7837">
        <ele>1273.4</ele>
        <time>2021-01-16T08:14:57Z</time>
      </trkpt>
      <trkpt lat="46.0312" lon="6.78372">
        <ele>1275.1</ele>
        <time>2021-01-16T08:15:02Z</time>
      </trkpt>
      <trkpt lat="46.03124" lon="6.78368">
        <ele>1275.9</ele>
        <time>2021-01-16T08:15:07Z</time>
      </trkpt>
      <trkpt lat="46.03124" lon="6.78371">
        <ele>1277.1</ele>
        <time>2021-01-16T08:15:23Z</time>
      </trkpt>
      <trkpt lat="46.03137" lon="6.78373">
        <ele>1279</ele>
        <time>2021-01-16T08:15:28Z</time>
      </trkpt>
      <trkpt lat="46.0314" lon="6.78376">
        <ele>1279.4</ele>
        <time>2021-01-16T08:15:32Z</time>
      </trkpt>
      <trkpt lat="46.03144" lon="6.78379">
        <ele>1279.7</ele>
        <time>2021-01-16T08:15:38Z</time>
      </trkpt>
      <trkpt lat="46.03148" lon="6.78378">
        <ele>1280.5</ele>
        <time>2021-01-16T08:15:47Z</time>
      </trkpt>
      <trkpt lat="46.03152" lon="6.78376">
        <ele>1281.4</ele>
        <time>2021-01-16T08:15:56Z</time>
      </trkpt>
      <trkpt lat="46.03154" lon="6.78376">
        <ele>1281.9</ele>
        <time>2021-01-16T08:16:06Z</time>
      </trkpt>
      <trkpt lat="46.03159" lon="6.78377">
        <ele>1283.3</ele>
        <time>2021-01-16T08:16:17Z</time>
      </trkpt>
      <trkpt lat="46.03165" lon="6.78378">
        <ele>1282.8</ele>
        <time>2021-01-16T08:16:22Z</time>
      </trkpt>
      <trkpt lat="46.03169" lon="6.78378">
        <ele>1282.6</ele>
        <time>2021-01-16T08:16:28Z</time>
      </trkpt>
      <trkpt lat="46.03172" lon="6.78379">
        <ele>1282.8</ele>
        <time>2021-01-16T08:17:14Z</time>
      </trkpt>
      <trkpt lat="46.03184" lon="6.78379">
        <ele>1283.3</ele>
        <time>2021-01-16T08:17:18Z</time>
      </trkpt>
      <trkpt lat="46.03189" lon="6.78379">
        <ele>1283.4</ele>
        <time>2021-01-16T08:17:23Z</time>
      </trkpt>
      <trkpt lat="46.03194" lon="6.78375">
        <ele>1283.5</ele>
        <time>2021-01-16T08:17:27Z</time>
      </trkpt>
      <trkpt lat="46.03195" lon="6.78371">
        <ele>1284</ele>
        <time>2021-01-16T08:17:49Z</time>
      </trkpt>
      <trkpt lat="46.03204" lon="6.78367">
        <ele>1284.3</ele>
        <time>2021-01-16T08:17:53Z</time>
      </trkpt>
      <trkpt lat="46.03211" lon="6.78366">
        <ele>1284.4</ele>
        <time>2021-01-16T08:17:58Z</time>
      </trkpt>
      <trkpt lat="46.03214" lon="6.78362">
        <ele>1284.6</ele>
        <time>2021-01-16T08:18:08Z</time>
      </trkpt>
      <trkpt lat="46.03216" lon="6.78358">
        <ele>1284.8</ele>
        <time>2021-01-16T08:18:13Z</time>
      </trkpt>
      <trkpt lat="46.03219" lon="6.78347">
        <ele>1285</ele>
        <time>2021-01-16T08:18:18Z</time>
      </trkpt>
      <trkpt lat="46.03222" lon="6.78342">
        <ele>1285.4</ele>
        <time>2021-01-16T08:18:23Z</time>
      </trkpt>
      <trkpt lat="46.03221" lon="6.78337">
        <ele>1285.6</ele>
        <time>2021-01-16T08:18:32Z</time>
      </trkpt>
      <trkpt lat="46.03224" lon="6.78331">
        <ele>1286</ele>
        <time>2021-01-16T08:18:37Z</time>
      </trkpt>
      <trkpt lat="46.03227" lon="6.78327">
        <ele>1286.4</ele>
        <time>2021-01-16T08:18:47Z</time>
      </trkpt>
      <trkpt lat="46.0323" lon="6.78321">
        <ele>1286.8</ele>
        <time>2021-01-16T08:18:52Z</time>
      </trkpt>
      <trkpt lat="46.03228" lon="6.78317">
        <ele>1287.5</ele>
        <time>2021-01-16T08:19:30Z</time>
      </trkpt>
      <trkpt lat="46.03237" lon="6.78323">
        <ele>1290.7</ele>
        <time>2021-01-16T08:19:34Z</time>
      </trkpt>
      <trkpt lat="46.03235" lon="6.78329">
        <ele>1294.2</ele>
        <time>2021-01-16T08:19:50Z</time>
      </trkpt>
      <trkpt lat="46.03234" lon="6.78334">
        <ele>1296.5</ele>
        <time>2021-01-16T08:19:58Z</time>
      </trkpt>
      <trkpt lat="46.03234" lon="6.7834">
        <ele>1297.3</ele>
        <time>2021-01-16T08:20:04Z</time>
      </trkpt>
      <trkpt lat="46.03234" lon="6.78346">
        <ele>1299</ele>
        <time>2021-01-16T08:20:15Z</time>
      </trkpt>
      <trkpt lat="46.03233" lon="6.78352">
        <ele>1301</ele>
        <time>2021-01-16T08:20:25Z</time>
      </trkpt>
      <trkpt lat="46.03233" lon="6.78358">
        <ele>1302.8</ele>
        <time>2021-01-16T08:20:35Z</time>
      </trkpt>
      <trkpt lat="46.03232" lon="6.78363">
        <ele>1305.5</ele>
        <time>2021-01-16T08:20:45Z</time>
      </trkpt>
      <trkpt lat="46.03231" lon="6.7837">
        <ele>1306.6</ele>
        <time>2021-01-16T08:20:49Z</time>
      </trkpt>
      <trkpt lat="46.03229" lon="6.78375">
        <ele>1307.8</ele>
        <time>2021-01-16T08:20:54Z</time>
      </trkpt>
      <trkpt lat="46.03228" lon="6.78379">
        <ele>1308.4</ele>
        <time>2021-01-16T08:20:58Z</time>
      </trkpt>
      <trkpt lat="46.03226" lon="6.78385">
        <ele>1311.4</ele>
        <time>2021-01-16T08:21:18Z</time>
      </trkpt>
      <trkpt lat="46.0323" lon="6.78391">
        <ele>1313.5</ele>
        <time>2021-01-16T08:21:22Z</time>
      </trkpt>
      <trkpt lat="46.0323" lon="6.78397">
        <ele>1314.4</ele>
        <time>2021-01-16T08:21:31Z</time>
      </trkpt>
      <trkpt lat="46.03229" lon="6.78402">
        <ele>1314.7</ele>
        <time>2021-01-16T08:21:54Z</time>
      </trkpt>
      <trkpt lat="46.03225" lon="6.7841">
        <ele>1317.9</ele>
        <time>2021-01-16T08:21:58Z</time>
      </trkpt>
      <trkpt lat="46.03225" lon="6.78416">
        <ele>1319.1</ele>
        <time>2021-01-16T08:22:04Z</time>
      </trkpt>
      <trkpt lat="46.03224" lon="6.78422">
        <ele>1319.6</ele>
        <time>2021-01-16T08:22:11Z</time>
      </trkpt>
      <trkpt lat="46.03227" lon="6.78426">
        <ele>1320.3</ele>
        <time>2021-01-16T08:22:17Z</time>
      </trkpt>
      <trkpt lat="46.03226" lon="6.78432">
        <ele>1322</ele>
        <time>2021-01-16T08:22:32Z</time>
      </trkpt>
      <trkpt lat="46.03224" lon="6.78437">
        <ele>1322.8</ele>
        <time>2021-01-16T08:22:38Z</time>
      </trkpt>
      <trkpt lat="46.03223" lon="6.78443">
        <ele>1323.3</ele>
        <time>2021-01-16T08:22:44Z</time>
      </trkpt>
      <trkpt lat="46.03222" lon="6.78448">
        <ele>1324</ele>
        <time>2021-01-16T08:22:55Z</time>
      </trkpt>
      <trkpt lat="46.03219" lon="6.78452">
        <ele>1324.6</ele>
        <time>2021-01-16T08:23:04Z</time>
      </trkpt>
      <trkpt lat="46.03217" lon="6.78453">
        <ele>1324.4</ele>
        <time>2021-01-16T08:23:33Z</time>
      </trkpt>
      <trkpt lat="46.03205" lon="6.78458">
        <ele>1326.3</ele>
        <time>2021-01-16T08:23:38Z</time>
      </trkpt>
      <trkpt lat="46.03201" lon="6.78458">
        <ele>1327.6</ele>
        <time>2021-01-16T08:23:53Z</time>
      </trkpt>
      <trkpt lat="46.03197" lon="6.7846">
        <ele>1328.7</ele>
        <time>2021-01-16T08:23:58Z</time>
      </trkpt>
      <trkpt lat="46.03197" lon="6.78465">
        <ele>1329.6</ele>
        <time>2021-01-16T08:24:03Z</time>
      </trkpt>
      <trkpt lat="46.03194" lon="6.7847">
        <ele>1329.9</ele>
        <time>2021-01-16T08:24:11Z</time>
      </trkpt>
      <trkpt lat="46.03188" lon="6.78471">
        <ele>1330.5</ele>
        <time>2021-01-16T08:24:16Z</time>
      </trkpt>
      <trkpt lat="46.03184" lon="6.78472">
        <ele>1331.7</ele>
        <time>2021-01-16T08:24:28Z</time>
      </trkpt>
      <trkpt lat="46.03181" lon="6.78471">
        <ele>1332.6</ele>
        <time>2021-01-16T08:24:49Z</time>
      </trkpt>
      <trkpt lat="46.03176" lon="6.78478">
        <ele>1334.1</ele>
        <time>2021-01-16T08:24:53Z</time>
      </trkpt>
      <trkpt lat="46.03172" lon="6.78481">
        <ele>1335.1</ele>
        <time>2021-01-16T08:25:01Z</time>
      </trkpt>
      <trkpt lat="46.03169" lon="6.78485">
        <ele>1335.4</ele>
        <time>2021-01-16T08:25:08Z</time>
      </trkpt>
      <trkpt lat="46.03165" lon="6.78488">
        <ele>1335.7</ele>
        <time>2021-01-16T08:25:16Z</time>
      </trkpt>
      <trkpt lat="46.03162" lon="6.78488">
        <ele>1336</ele>
        <time>2021-01-16T08:25:24Z</time>
      </trkpt>
      <trkpt lat="46.03157" lon="6.78486">
        <ele>1336.4</ele>
        <time>2021-01-16T08:25:28Z</time>
      </trkpt>
      <trkpt lat="46.03153" lon="6.78488">
        <ele>1336.6</ele>
        <time>2021-01-16T08:25:37Z</time>
      </trkpt>
      <trkpt lat="46.03152" lon="6.78493">
        <ele>1339.1</ele>
        <time>2021-01-16T08:25:54Z</time>
      </trkpt>
      <trkpt lat="46.0315" lon="6.78502">
        <ele>1341.4</ele>
        <time>2021-01-16T08:25:58Z</time>
      </trkpt>
      <trkpt lat="46.03149" lon="6.78507">
        <ele>1342.7</ele>
        <time>2021-01-16T08:26:09Z</time>
      </trkpt>
      <trkpt lat="46.03145" lon="6.78511">
        <ele>1343</ele>
        <time>2021-01-16T08:26:17Z</time>
      </trkpt>
      <trkpt lat="46.03142" lon="6.78514">
        <ele>1343</ele>
        <time>2021-01-16T08:26:23Z</time>
      </trkpt>
      <trkpt lat="46.0314" lon="6.78519">
        <ele>1343.7</ele>
        <time>2021-01-16T08:26:33Z</time>
      </trkpt>
      <trkpt lat="46.03138" lon="6.78523">
        <ele>1344.8</ele>
        <time>2021-01-16T08:26:40Z</time>
      </trkpt>
      <trkpt lat="46.03134" lon="6.78524">
        <ele>1345.2</ele>
        <time>2021-01-16T08:26:54Z</time>
      </trkpt>
      <trkpt lat="46.03128" lon="6.78524">
        <ele>1346.2</ele>
        <time>2021-01-16T08:26:58Z</time>
      </trkpt>
      <trkpt lat="46.03126" lon="6.7853">
        <ele>1347.4</ele>
        <time>2021-01-16T08:27:06Z</time>
      </trkpt>
      <trkpt lat="46.03124" lon="6.78535">
        <ele>1348</ele>
        <time>2021-01-16T08:27:11Z</time>
      </trkpt>
      <trkpt lat="46.0312" lon="6.78535">
        <ele>1348.6</ele>
        <time>2021-01-16T08:27:19Z</time>
      </trkpt>
      <trkpt lat="46.03116" lon="6.78535">
        <ele>1349.5</ele>
        <time>2021-01-16T08:27:27Z</time>
      </trkpt>
      <trkpt lat="46.03112" lon="6.78534">
        <ele>1350</ele>
        <time>2021-01-16T08:27:31Z</time>
      </trkpt>
      <trkpt lat="46.03108" lon="6.78536">
        <ele>1350.3</ele>
        <time>2021-01-16T08:27:38Z</time>
      </trkpt>
      <trkpt lat="46.03105" lon="6.78541">
        <ele>1351</ele>
        <time>2021-01-16T08:27:48Z</time>
      </trkpt>
      <trkpt lat="46.03101" lon="6.78541">
        <ele>1351.6</ele>
        <time>2021-01-16T08:27:56Z</time>
      </trkpt>
      <trkpt lat="46.03098" lon="6.78545">
        <ele>1352.5</ele>
        <time>2021-01-16T08:28:01Z</time>
      </trkpt>
      <trkpt lat="46.03098" lon="6.78551">
        <ele>1352.8</ele>
        <time>2021-01-16T08:28:05Z</time>
      </trkpt>
      <trkpt lat="46.03099" lon="6.78557">
        <ele>1354.3</ele>
        <time>2021-01-16T08:28:14Z</time>
      </trkpt>
      <trkpt lat="46.03099" lon="6.7856">
        <ele>1354.7</ele>
        <time>2021-01-16T08:28:28Z</time>
      </trkpt>
      <trkpt lat="46.03097" lon="6.7857">
        <ele>1356.1</ele>
        <time>2021-01-16T08:28:32Z</time>
      </trkpt>
      <trkpt lat="46.03093" lon="6.78573">
        <ele>1356</ele>
        <time>2021-01-16T08:28:39Z</time>
      </trkpt>
      <trkpt lat="46.03089" lon="6.78576">
        <ele>1356.4</ele>
        <time>2021-01-16T08:28:46Z</time>
      </trkpt>
      <trkpt lat="46.03086" lon="6.78579">
        <ele>1357</ele>
        <time>2021-01-16T08:29:02Z</time>
      </trkpt>
      <trkpt lat="46.03083" lon="6.78585">
        <ele>1357.9</ele>
        <time>2021-01-16T08:29:07Z</time>
      </trkpt>
      <trkpt lat="46.0308" lon="6.78588">
        <ele>1358.3</ele>
        <time>2021-01-16T08:29:16Z</time>
      </trkpt>
      <trkpt lat="46.03076" lon="6.78586">
        <ele>1359.6</ele>
        <time>2021-01-16T08:29:25Z</time>
      </trkpt>
      <trkpt lat="46.03072" lon="6.78584">
        <ele>1359.8</ele>
        <time>2021-01-16T08:29:31Z</time>
      </trkpt>
      <trkpt lat="46.03068" lon="6.78583">
        <ele>1360.1</ele>
        <time>2021-01-16T08:29:36Z</time>
      </trkpt>
      <trkpt lat="46.03065" lon="6.78587">
        <ele>1361.4</ele>
        <time>2021-01-16T08:29:45Z</time>
      </trkpt>
      <trkpt lat="46.03064" lon="6.7859">
        <ele>1361.8</ele>
        <time>2021-01-16T08:29:50Z</time>
      </trkpt>
      <trkpt lat="46.03062" lon="6.78596">
        <ele>1362.6</ele>
        <time>2021-01-16T08:29:55Z</time>
      </trkpt>
      <trkpt lat="46.03059" lon="6.78601">
        <ele>1363</ele>
        <time>2021-01-16T08:30:05Z</time>
      </trkpt>
      <trkpt lat="46.03057" lon="6.78607">
        <ele>1363.2</ele>
        <time>2021-01-16T08:30:12Z</time>
      </trkpt>
      <trkpt lat="46.03056" lon="6.78613">
        <ele>1363.3</ele>
        <time>2021-01-16T08:30:21Z</time>
      </trkpt>
      <trkpt lat="46.03052" lon="6.78615">
        <ele>1363.3</ele>
        <time>2021-01-16T08:30:32Z</time>
      </trkpt>
      <trkpt lat="46.03048" lon="6.78617">
        <ele>1363.4</ele>
        <time>2021-01-16T08:30:42Z</time>
      </trkpt>
      <trkpt lat="46.03045" lon="6.7862">
        <ele>1363.5</ele>
        <time>2021-01-16T08:30:49Z</time>
      </trkpt>
      <trkpt lat="46.03042" lon="6.78624">
        <ele>1363.6</ele>
        <time>2021-01-16T08:30:57Z</time>
      </trkpt>
      <trkpt lat="46.03039" lon="6.78628">
        <ele>1363.7</ele>
        <time>2021-01-16T08:31:04Z</time>
      </trkpt>
      <trkpt lat="46.03036" lon="6.78632">
        <ele>1363.8</ele>
        <time>2021-01-16T08:31:13Z</time>
      </trkpt>
      <trkpt lat="46.03032" lon="6.78635">
        <ele>1364</ele>
        <time>2021-01-16T08:31:25Z</time>
      </trkpt>
      <trkpt lat="46.03029" lon="6.78639">
        <ele>1364.2</ele>
        <time>2021-01-16T08:31:37Z</time>
      </trkpt>
      <trkpt lat="46.0303" lon="6.78645">
        <ele>1364.3</ele>
        <time>2021-01-16T08:31:47Z</time>
      </trkpt>
      <trkpt lat="46.03032" lon="6.78643">
        <ele>1364.1</ele>
        <time>2021-01-16T08:32:05Z</time>
      </trkpt>
      <trkpt lat="46.03039" lon="6.78654">
        <ele>1363.4</ele>
        <time>2021-01-16T08:32:10Z</time>
      </trkpt>
      <trkpt lat="46.03043" lon="6.78657">
        <ele>1363.6</ele>
        <time>2021-01-16T08:32:32Z</time>
      </trkpt>
      <trkpt lat="46.03046" lon="6.78657">
        <ele>1364.4</ele>
        <time>2021-01-16T08:32:41Z</time>
      </trkpt>
      <trkpt lat="46.0305" lon="6.78659">
        <ele>1364.9</ele>
        <time>2021-01-16T08:32:47Z</time>
      </trkpt>
      <trkpt lat="46.03054" lon="6.78657">
        <ele>1365.8</ele>
        <time>2021-01-16T08:33:00Z</time>
      </trkpt>
      <trkpt lat="46.03057" lon="6.78653">
        <ele>1367.3</ele>
        <time>2021-01-16T08:33:14Z</time>
      </trkpt>
      <trkpt lat="46.03062" lon="6.78651">
        <ele>1367.7</ele>
        <time>2021-01-16T08:33:20Z</time>
      </trkpt>
      <trkpt lat="46.03065" lon="6.7865">
        <ele>1369.1</ele>
        <time>2021-01-16T08:33:29Z</time>
      </trkpt>
      <trkpt lat="46.03069" lon="6.78653">
        <ele>1370.3</ele>
        <time>2021-01-16T08:33:39Z</time>
      </trkpt>
      <trkpt lat="46.03074" lon="6.78654">
        <ele>1371.4</ele>
        <time>2021-01-16T08:33:43Z</time>
      </trkpt>
      <trkpt lat="46.03078" lon="6.78655">
        <ele>1372.9</ele>
        <time>2021-01-16T08:33:49Z</time>
      </trkpt>
      <trkpt lat="46.03082" lon="6.78652">
        <ele>1374.2</ele>
        <time>2021-01-16T08:33:57Z</time>
      </trkpt>
      <trkpt lat="46.03086" lon="6.78651">
        <ele>1375.1</ele>
        <time>2021-01-16T08:34:05Z</time>
      </trkpt>
      <trkpt lat="46.03093" lon="6.78653">
        <ele>1375.8</ele>
        <time>2021-01-16T08:34:09Z</time>
      </trkpt>
      <trkpt lat="46.03097" lon="6.78653">
        <ele>1377</ele>
        <time>2021-01-16T08:34:17Z</time>
      </trkpt>
      <trkpt lat="46.03099" lon="6.7865">
        <ele>1378.4</ele>
        <time>2021-01-16T08:34:24Z</time>
      </trkpt>
      <trkpt lat="46.03104" lon="6.78643">
        <ele>1379.7</ele>
        <time>2021-01-16T08:34:29Z</time>
      </trkpt>
      <trkpt lat="46.03108" lon="6.7864">
        <ele>1381.1</ele>
        <time>2021-01-16T08:34:40Z</time>
      </trkpt>
      <trkpt lat="46.03112" lon="6.78643">
        <ele>1381.6</ele>
        <time>2021-01-16T08:34:44Z</time>
      </trkpt>
      <trkpt lat="46.03114" lon="6.78646">
        <ele>1381.8</ele>
        <time>2021-01-16T08:34:50Z</time>
      </trkpt>
      <trkpt lat="46.03118" lon="6.78644">
        <ele>1382.2</ele>
        <time>2021-01-16T08:35:06Z</time>
      </trkpt>
      <trkpt lat="46.03121" lon="6.78639">
        <ele>1382.5</ele>
        <time>2021-01-16T08:35:14Z</time>
      </trkpt>
      <trkpt lat="46.03125" lon="6.78637">
        <ele>1382.3</ele>
        <time>2021-01-16T08:35:24Z</time>
      </trkpt>
      <trkpt lat="46.03132" lon="6.78647">
        <ele>1382.1</ele>
        <time>2021-01-16T08:35:29Z</time>
      </trkpt>
      <trkpt lat="46.03138" lon="6.7865">
        <ele>1382.4</ele>
        <time>2021-01-16T08:35:34Z</time>
      </trkpt>
      <trkpt lat="46.03142" lon="6.78654">
        <ele>1382.4</ele>
        <time>2021-01-16T08:35:40Z</time>
      </trkpt>
      <trkpt lat="46.03146" lon="6.78654">
        <ele>1382.6</ele>
        <time>2021-01-16T08:35:49Z</time>
      </trkpt>
      <trkpt lat="46.0315" lon="6.78657">
        <ele>1382.9</ele>
        <time>2021-01-16T08:35:55Z</time>
      </trkpt>
      <trkpt lat="46.03154" lon="6.78656">
        <ele>1384</ele>
        <time>2021-01-16T08:36:11Z</time>
      </trkpt>
      <trkpt lat="46.03157" lon="6.78652">
        <ele>1384.4</ele>
        <time>2021-01-16T08:36:17Z</time>
      </trkpt>
      <trkpt lat="46.03165" lon="6.78651">
        <ele>1384.7</ele>
        <time>2021-01-16T08:36:21Z</time>
      </trkpt>
      <trkpt lat="46.03165" lon="6.78643">
        <ele>1385.6</ele>
        <time>2021-01-16T08:36:26Z</time>
      </trkpt>
      <trkpt lat="46.03163" lon="6.7864">
        <ele>1386.3</ele>
        <time>2021-01-16T08:37:01Z</time>
      </trkpt>
      <trkpt lat="46.0317" lon="6.78641">
        <ele>1386.8</ele>
        <time>2021-01-16T08:37:05Z</time>
      </trkpt>
      <trkpt lat="46.03167" lon="6.78646">
        <ele>1386.8</ele>
        <time>2021-01-16T08:37:10Z</time>
      </trkpt>
      <trkpt lat="46.03163" lon="6.78649">
        <ele>1386.9</ele>
        <time>2021-01-16T08:37:15Z</time>
      </trkpt>
      <trkpt lat="46.03161" lon="6.78654">
        <ele>1387.1</ele>
        <time>2021-01-16T08:37:20Z</time>
      </trkpt>
      <trkpt lat="46.03163" lon="6.78657">
        <ele>1387.3</ele>
        <time>2021-01-16T08:37:52Z</time>
      </trkpt>
      <trkpt lat="46.03165" lon="6.78661">
        <ele>1388.2</ele>
        <time>2021-01-16T08:38:32Z</time>
      </trkpt>
      <trkpt lat="46.03163" lon="6.78665">
        <ele>1387.7</ele>
        <time>2021-01-16T08:38:39Z</time>
      </trkpt>
      <trkpt lat="46.03159" lon="6.78665">
        <ele>1387.4</ele>
        <time>2021-01-16T08:38:44Z</time>
      </trkpt>
      <trkpt lat="46.03155" lon="6.78663">
        <ele>1387.2</ele>
        <time>2021-01-16T08:38:48Z</time>
      </trkpt>
      <trkpt lat="46.03151" lon="6.78657">
        <ele>1387</ele>
        <time>2021-01-16T08:38:53Z</time>
      </trkpt>
      <trkpt lat="46.03147" lon="6.78655">
        <ele>1386.6</ele>
        <time>2021-01-16T08:39:03Z</time>
      </trkpt>
      <trkpt lat="46.03146" lon="6.78661">
        <ele>1386.3</ele>
        <time>2021-01-16T08:39:09Z</time>
      </trkpt>
      <trkpt lat="46.03142" lon="6.78664">
        <ele>1385.8</ele>
        <time>2021-01-16T08:39:16Z</time>
      </trkpt>
      <trkpt lat="46.03137" lon="6.78665">
        <ele>1385.5</ele>
        <time>2021-01-16T08:39:20Z</time>
      </trkpt>
      <trkpt lat="46.03134" lon="6.78668">
        <ele>1385.3</ele>
        <time>2021-01-16T08:39:25Z</time>
      </trkpt>
      <trkpt lat="46.03132" lon="6.78674">
        <ele>1385</ele>
        <time>2021-01-16T08:39:31Z</time>
      </trkpt>
      <trkpt lat="46.03128" lon="6.78672">
        <ele>1384.6</ele>
        <time>2021-01-16T08:39:40Z</time>
      </trkpt>
      <trkpt lat="46.03124" lon="6.78672">
        <ele>1384.4</ele>
        <time>2021-01-16T08:39:52Z</time>
      </trkpt>
      <trkpt lat="46.0312" lon="6.78671">
        <ele>1384.4</ele>
        <time>2021-01-16T08:39:58Z</time>
      </trkpt>
      <trkpt lat="46.03117" lon="6.78674">
        <ele>1384.5</ele>
        <time>2021-01-16T08:40:04Z</time>
      </trkpt>
      <trkpt lat="46.03114" lon="6.78678">
        <ele>1384.6</ele>
        <time>2021-01-16T08:40:09Z</time>
      </trkpt>
      <trkpt lat="46.03109" lon="6.78681">
        <ele>1385</ele>
        <time>2021-01-16T08:40:14Z</time>
      </trkpt>
      <trkpt lat="46.03108" lon="6.78687">
        <ele>1385.4</ele>
        <time>2021-01-16T08:40:21Z</time>
      </trkpt>
      <trkpt lat="46.03107" lon="6.78689">
        <ele>1385.4</ele>
        <time>2021-01-16T08:40:31Z</time>
      </trkpt>
      <trkpt lat="46.03097" lon="6.78693">
        <ele>1385.8</ele>
        <time>2021-01-16T08:40:35Z</time>
      </trkpt>
      <trkpt lat="46.03097" lon="6.78693">
        <ele>1385.8</ele>
        <time>2021-01-16T08:40:56Z</time>
      </trkpt>
      <trkpt lat="46.03099" lon="6.7871">
        <ele>1386.1</ele>
        <time>2021-01-16T08:41:00Z</time>
      </trkpt>
      <trkpt lat="46.03097" lon="6.78714">
        <ele>1386.5</ele>
        <time>2021-01-16T08:41:18Z</time>
      </trkpt>
      <trkpt lat="46.0309" lon="6.78715">
        <ele>1387.2</ele>
        <time>2021-01-16T08:41:23Z</time>
      </trkpt>
      <trkpt lat="46.03088" lon="6.78721">
        <ele>1387.3</ele>
        <time>2021-01-16T08:41:31Z</time>
      </trkpt>
      <trkpt lat="46.03086" lon="6.78726">
        <ele>1387.6</ele>
        <time>2021-01-16T08:41:37Z</time>
      </trkpt>
      <trkpt lat="46.03085" lon="6.78732">
        <ele>1388.6</ele>
        <time>2021-01-16T08:41:48Z</time>
      </trkpt>
      <trkpt lat="46.03088" lon="6.78735">
        <ele>1388.9</ele>
        <time>2021-01-16T08:41:55Z</time>
      </trkpt>
      <trkpt lat="46.03091" lon="6.78738">
        <ele>1389.7</ele>
        <time>2021-01-16T08:42:18Z</time>
      </trkpt>
      <trkpt lat="46.03095" lon="6.78744">
        <ele>1390</ele>
        <time>2021-01-16T08:42:22Z</time>
      </trkpt>
      <trkpt lat="46.03098" lon="6.78741">
        <ele>1390.4</ele>
        <time>2021-01-16T08:42:27Z</time>
      </trkpt>
      <trkpt lat="46.03103" lon="6.78743">
        <ele>1390.6</ele>
        <time>2021-01-16T08:42:31Z</time>
      </trkpt>
      <trkpt lat="46.03104" lon="6.78739">
        <ele>1390.9</ele>
        <time>2021-01-16T08:42:38Z</time>
      </trkpt>
      <trkpt lat="46.03107" lon="6.78734">
        <ele>1391.6</ele>
        <time>2021-01-16T08:42:47Z</time>
      </trkpt>
      <trkpt lat="46.0311" lon="6.78732">
        <ele>1392.2</ele>
        <time>2021-01-16T08:42:54Z</time>
      </trkpt>
      <trkpt lat="46.03116" lon="6.78736">
        <ele>1393.3</ele>
        <time>2021-01-16T08:42:59Z</time>
      </trkpt>
      <trkpt lat="46.03116" lon="6.78736">
        <ele>1393.4</ele>
        <time>2021-01-16T08:43:07Z</time>
      </trkpt>
      <trkpt lat="46.03121" lon="6.78743">
        <ele>1394.4</ele>
        <time>2021-01-16T08:43:11Z</time>
      </trkpt>
      <trkpt lat="46.03123" lon="6.78743">
        <ele>1394.6</ele>
        <time>2021-01-16T08:43:24Z</time>
      </trkpt>
      <trkpt lat="46.03136" lon="6.78746">
        <ele>1395.2</ele>
        <time>2021-01-16T08:43:29Z</time>
      </trkpt>
      <trkpt lat="46.03141" lon="6.78747">
        <ele>1395.1</ele>
        <time>2021-01-16T08:43:44Z</time>
      </trkpt>
      <trkpt lat="46.0314" lon="6.78753">
        <ele>1395.3</ele>
        <time>2021-01-16T08:43:50Z</time>
      </trkpt>
      <trkpt lat="46.03142" lon="6.78758">
        <ele>1395.5</ele>
        <time>2021-01-16T08:44:03Z</time>
      </trkpt>
      <trkpt lat="46.03149" lon="6.78758">
        <ele>1395.8</ele>
        <time>2021-01-16T08:44:07Z</time>
      </trkpt>
      <trkpt lat="46.03152" lon="6.7876">
        <ele>1396.1</ele>
        <time>2021-01-16T08:44:19Z</time>
      </trkpt>
      <trkpt lat="46.03161" lon="6.78762">
        <ele>1396.5</ele>
        <time>2021-01-16T08:44:23Z</time>
      </trkpt>
      <trkpt lat="46.03168" lon="6.78765">
        <ele>1396.6</ele>
        <time>2021-01-16T08:44:28Z</time>
      </trkpt>
      <trkpt lat="46.03173" lon="6.78766">
        <ele>1396.7</ele>
        <time>2021-01-16T08:44:33Z</time>
      </trkpt>
      <trkpt lat="46.03176" lon="6.7877">
        <ele>1397.5</ele>
        <time>2021-01-16T08:44:44Z</time>
      </trkpt>
      <trkpt lat="46.03177" lon="6.78764">
        <ele>1398.1</ele>
        <time>2021-01-16T08:44:53Z</time>
      </trkpt>
      <trkpt lat="46.03181" lon="6.78763">
        <ele>1398.5</ele>
        <time>2021-01-16T08:45:03Z</time>
      </trkpt>
      <trkpt lat="46.03185" lon="6.78766">
        <ele>1398.9</ele>
        <time>2021-01-16T08:45:11Z</time>
      </trkpt>
      <trkpt lat="46.03188" lon="6.78766">
        <ele>1399.1</ele>
        <time>2021-01-16T08:45:17Z</time>
      </trkpt>
      <trkpt lat="46.03192" lon="6.78768">
        <ele>1399.2</ele>
        <time>2021-01-16T08:45:24Z</time>
      </trkpt>
      <trkpt lat="46.03193" lon="6.78761">
        <ele>1399.7</ele>
        <time>2021-01-16T08:45:31Z</time>
      </trkpt>
      <trkpt lat="46.03195" lon="6.78763">
        <ele>1399.8</ele>
        <time>2021-01-16T08:45:36Z</time>
      </trkpt>
      <trkpt lat="46.03204" lon="6.78761">
        <ele>1400.3</ele>
        <time>2021-01-16T08:45:40Z</time>
      </trkpt>
      <trkpt lat="46.0321" lon="6.78763">
        <ele>1400.5</ele>
        <time>2021-01-16T08:45:45Z</time>
      </trkpt>
      <trkpt lat="46.03214" lon="6.78763">
        <ele>1400.8</ele>
        <time>2021-01-16T08:45:50Z</time>
      </trkpt>
      <trkpt lat="46.03218" lon="6.78764">
        <ele>1401</ele>
        <time>2021-01-16T08:45:55Z</time>
      </trkpt>
      <trkpt lat="46.03221" lon="6.78762">
        <ele>1401.4</ele>
        <time>2021-01-16T08:46:02Z</time>
      </trkpt>
      <trkpt lat="46.03225" lon="6.78761">
        <ele>1402</ele>
        <time>2021-01-16T08:46:15Z</time>
      </trkpt>
      <trkpt lat="46.03227" lon="6.78761">
        <ele>1402.1</ele>
        <time>2021-01-16T08:46:23Z</time>
      </trkpt>
      <trkpt lat="46.03237" lon="6.78766">
        <ele>1403</ele>
        <time>2021-01-16T08:46:27Z</time>
      </trkpt>
      <trkpt lat="46.03241" lon="6.78768">
        <ele>1403.8</ele>
        <time>2021-01-16T08:46:36Z</time>
      </trkpt>
      <trkpt lat="46.03238" lon="6.78765">
        <ele>1404.7</ele>
        <time>2021-01-16T08:46:49Z</time>
      </trkpt>
      <trkpt lat="46.03236" lon="6.78765">
        <ele>1404.8</ele>
        <time>2021-01-16T08:47:01Z</time>
      </trkpt>
      <trkpt lat="46.0323" lon="6.7877">
        <ele>1406.1</ele>
        <time>2021-01-16T08:47:05Z</time>
      </trkpt>
      <trkpt lat="46.0323" lon="6.78776">
        <ele>1406.5</ele>
        <time>2021-01-16T08:47:13Z</time>
      </trkpt>
      <trkpt lat="46.03228" lon="6.78781">
        <ele>1407.3</ele>
        <time>2021-01-16T08:47:21Z</time>
      </trkpt>
      <trkpt lat="46.03224" lon="6.78781">
        <ele>1408.4</ele>
        <time>2021-01-16T08:47:34Z</time>
      </trkpt>
      <trkpt lat="46.03222" lon="6.78779">
        <ele>1408.7</ele>
        <time>2021-01-16T08:47:44Z</time>
      </trkpt>
      <trkpt lat="46.03218" lon="6.78779">
        <ele>1409.4</ele>
        <time>2021-01-16T08:47:54Z</time>
      </trkpt>
      <trkpt lat="46.03216" lon="6.78785">
        <ele>1410.4</ele>
        <time>2021-01-16T08:47:58Z</time>
      </trkpt>
      <trkpt lat="46.03214" lon="6.78788">
        <ele>1410.9</ele>
        <time>2021-01-16T08:48:05Z</time>
      </trkpt>
      <trkpt lat="46.03212" lon="6.78795">
        <ele>1411.1</ele>
        <time>2021-01-16T08:48:10Z</time>
      </trkpt>
      <trkpt lat="46.03208" lon="6.78798">
        <ele>1411.8</ele>
        <time>2021-01-16T08:48:15Z</time>
      </trkpt>
      <trkpt lat="46.03206" lon="6.78803">
        <ele>1412.5</ele>
        <time>2021-01-16T08:48:23Z</time>
      </trkpt>
      <trkpt lat="46.03202" lon="6.78805">
        <ele>1413.2</ele>
        <time>2021-01-16T08:48:28Z</time>
      </trkpt>
      <trkpt lat="46.03198" lon="6.78806">
        <ele>1414.2</ele>
        <time>2021-01-16T08:48:37Z</time>
      </trkpt>
      <trkpt lat="46.03193" lon="6.78808">
        <ele>1414.3</ele>
        <time>2021-01-16T08:48:41Z</time>
      </trkpt>
      <trkpt lat="46.03189" lon="6.78808">
        <ele>1415.2</ele>
        <time>2021-01-16T08:48:49Z</time>
      </trkpt>
      <trkpt lat="46.03186" lon="6.78808">
        <ele>1415.8</ele>
        <time>2021-01-16T08:48:53Z</time>
      </trkpt>
      <trkpt lat="46.03182" lon="6.7881">
        <ele>1416.6</ele>
        <time>2021-01-16T08:48:59Z</time>
      </trkpt>
      <trkpt lat="46.03179" lon="6.78815">
        <ele>1418.2</ele>
        <time>2021-01-16T08:49:12Z</time>
      </trkpt>
      <trkpt lat="46.03176" lon="6.78818">
        <ele>1418.7</ele>
        <time>2021-01-16T08:49:18Z</time>
      </trkpt>
      <trkpt lat="46.03172" lon="6.7882">
        <ele>1419.9</ele>
        <time>2021-01-16T08:49:28Z</time>
      </trkpt>
      <trkpt lat="46.03171" lon="6.7882">
        <ele>1420</ele>
        <time>2021-01-16T08:49:51Z</time>
      </trkpt>
      <trkpt lat="46.03165" lon="6.78835">
        <ele>1422</ele>
        <time>2021-01-16T08:49:56Z</time>
      </trkpt>
      <trkpt lat="46.03165" lon="6.78842">
        <ele>1422.3</ele>
        <time>2021-01-16T08:50:02Z</time>
      </trkpt>
      <trkpt lat="46.03161" lon="6.78845">
        <ele>1422.8</ele>
        <time>2021-01-16T08:50:11Z</time>
      </trkpt>
      <trkpt lat="46.0316" lon="6.78845">
        <ele>1423.1</ele>
        <time>2021-01-16T08:50:32Z</time>
      </trkpt>
      <trkpt lat="46.03151" lon="6.78844">
        <ele>1424.1</ele>
        <time>2021-01-16T08:50:37Z</time>
      </trkpt>
      <trkpt lat="46.03148" lon="6.7885">
        <ele>1424.6</ele>
        <time>2021-01-16T08:50:44Z</time>
      </trkpt>
      <trkpt lat="46.03143" lon="6.78849">
        <ele>1425.2</ele>
        <time>2021-01-16T08:50:49Z</time>
      </trkpt>
      <trkpt lat="46.03139" lon="6.78851">
        <ele>1425.5</ele>
        <time>2021-01-16T08:50:54Z</time>
      </trkpt>
      <trkpt lat="46.03137" lon="6.78853">
        <ele>1427.3</ele>
        <time>2021-01-16T08:51:12Z</time>
      </trkpt>
      <trkpt lat="46.03136" lon="6.78862">
        <ele>1427.8</ele>
        <time>2021-01-16T08:51:16Z</time>
      </trkpt>
      <trkpt lat="46.03132" lon="6.78864">
        <ele>1428.2</ele>
        <time>2021-01-16T08:51:21Z</time>
      </trkpt>
      <trkpt lat="46.03128" lon="6.78867">
        <ele>1428.8</ele>
        <time>2021-01-16T08:51:28Z</time>
      </trkpt>
      <trkpt lat="46.03128" lon="6.78874">
        <ele>1429</ele>
        <time>2021-01-16T08:51:33Z</time>
      </trkpt>
      <trkpt lat="46.03123" lon="6.78873">
        <ele>1429.5</ele>
        <time>2021-01-16T08:51:45Z</time>
      </trkpt>
      <trkpt lat="46.0312" lon="6.78877">
        <ele>1431.7</ele>
        <time>2021-01-16T08:51:57Z</time>
      </trkpt>
      <trkpt lat="46.03116" lon="6.78879">
        <ele>1432.1</ele>
        <time>2021-01-16T08:52:07Z</time>
      </trkpt>
      <trkpt lat="46.03114" lon="6.78881">
        <ele>1432.6</ele>
        <time>2021-01-16T08:52:13Z</time>
      </trkpt>
      <trkpt lat="46.03108" lon="6.78887">
        <ele>1433</ele>
        <time>2021-01-16T08:52:17Z</time>
      </trkpt>
      <trkpt lat="46.03106" lon="6.78892">
        <ele>1433.8</ele>
        <time>2021-01-16T08:52:26Z</time>
      </trkpt>
      <trkpt lat="46.03102" lon="6.78889">
        <ele>1434.6</ele>
        <time>2021-01-16T08:52:33Z</time>
      </trkpt>
      <trkpt lat="46.03098" lon="6.7889">
        <ele>1435.6</ele>
        <time>2021-01-16T08:52:43Z</time>
      </trkpt>
      <trkpt lat="46.03094" lon="6.78891">
        <ele>1436.4</ele>
        <time>2021-01-16T08:52:50Z</time>
      </trkpt>
      <trkpt lat="46.0309" lon="6.78889">
        <ele>1437.2</ele>
        <time>2021-01-16T08:52:55Z</time>
      </trkpt>
      <trkpt lat="46.03086" lon="6.7889">
        <ele>1438.5</ele>
        <time>2021-01-16T08:53:05Z</time>
      </trkpt>
      <trkpt lat="46.03082" lon="6.78891">
        <ele>1439.4</ele>
        <time>2021-01-16T08:53:13Z</time>
      </trkpt>
      <trkpt lat="46.03078" lon="6.789">
        <ele>1439.7</ele>
        <time>2021-01-16T08:53:18Z</time>
      </trkpt>
      <trkpt lat="46.03074" lon="6.78902">
        <ele>1440.3</ele>
        <time>2021-01-16T08:53:23Z</time>
      </trkpt>
      <trkpt lat="46.0307" lon="6.78902">
        <ele>1440.9</ele>
        <time>2021-01-16T08:53:29Z</time>
      </trkpt>
      <trkpt lat="46.03066" lon="6.78901">
        <ele>1441.8</ele>
        <time>2021-01-16T08:53:38Z</time>
      </trkpt>
      <trkpt lat="46.03062" lon="6.78904">
        <ele>1442.4</ele>
        <time>2021-01-16T08:53:47Z</time>
      </trkpt>
      <trkpt lat="46.03058" lon="6.78901">
        <ele>1442.6</ele>
        <time>2021-01-16T08:53:54Z</time>
      </trkpt>
      <trkpt lat="46.03054" lon="6.78902">
        <ele>1443.9</ele>
        <time>2021-01-16T08:54:10Z</time>
      </trkpt>
      <trkpt lat="46.0305" lon="6.78909">
        <ele>1445.2</ele>
        <time>2021-01-16T08:54:15Z</time>
      </trkpt>
      <trkpt lat="46.03046" lon="6.78912">
        <ele>1446.4</ele>
        <time>2021-01-16T08:54:26Z</time>
      </trkpt>
      <trkpt lat="46.03044" lon="6.78917">
        <ele>1446.9</ele>
        <time>2021-01-16T08:54:33Z</time>
      </trkpt>
      <trkpt lat="46.0304" lon="6.78919">
        <ele>1447.6</ele>
        <time>2021-01-16T08:54:40Z</time>
      </trkpt>
      <trkpt lat="46.03038" lon="6.78921">
        <ele>1447.9</ele>
        <time>2021-01-16T08:54:54Z</time>
      </trkpt>
      <trkpt lat="46.03029" lon="6.78925">
        <ele>1449</ele>
        <time>2021-01-16T08:54:59Z</time>
      </trkpt>
      <trkpt lat="46.03025" lon="6.78924">
        <ele>1450.8</ele>
        <time>2021-01-16T08:55:12Z</time>
      </trkpt>
      <trkpt lat="46.03022" lon="6.7893">
        <ele>1451.8</ele>
        <time>2021-01-16T08:55:17Z</time>
      </trkpt>
      <trkpt lat="46.03022" lon="6.78936">
        <ele>1452.3</ele>
        <time>2021-01-16T08:55:23Z</time>
      </trkpt>
      <trkpt lat="46.03022" lon="6.78943">
        <ele>1453.8</ele>
        <time>2021-01-16T08:56:10Z</time>
      </trkpt>
      <trkpt lat="46.03026" lon="6.78942">
        <ele>1454.5</ele>
        <time>2021-01-16T08:56:37Z</time>
      </trkpt>
      <trkpt lat="46.0303" lon="6.78944">
        <ele>1454.6</ele>
        <time>2021-01-16T08:56:41Z</time>
      </trkpt>
      <trkpt lat="46.03034" lon="6.78946">
        <ele>1454.7</ele>
        <time>2021-01-16T08:56:47Z</time>
      </trkpt>
      <trkpt lat="46.0304" lon="6.78947">
        <ele>1454.9</ele>
        <time>2021-01-16T08:56:51Z</time>
      </trkpt>
      <trkpt lat="46.03044" lon="6.78946">
        <ele>1455.1</ele>
        <time>2021-01-16T08:56:58Z</time>
      </trkpt>
      <trkpt lat="46.03048" lon="6.78945">
        <ele>1455.3</ele>
        <time>2021-01-16T08:57:03Z</time>
      </trkpt>
      <trkpt lat="46.03053" lon="6.78943">
        <ele>1455.6</ele>
        <time>2021-01-16T08:57:09Z</time>
      </trkpt>
      <trkpt lat="46.03057" lon="6.78945">
        <ele>1456.3</ele>
        <time>2021-01-16T08:57:26Z</time>
      </trkpt>
      <trkpt lat="46.03061" lon="6.78943">
        <ele>1456.5</ele>
        <time>2021-01-16T08:57:32Z</time>
      </trkpt>
      <trkpt lat="46.03066" lon="6.78945">
        <ele>1456.9</ele>
        <time>2021-01-16T08:57:38Z</time>
      </trkpt>
      <trkpt lat="46.03068" lon="6.7895">
        <ele>1457.3</ele>
        <time>2021-01-16T08:57:45Z</time>
      </trkpt>
      <trkpt lat="46.03068" lon="6.78956">
        <ele>1458</ele>
        <time>2021-01-16T08:58:25Z</time>
      </trkpt>
      <trkpt lat="46.03059" lon="6.78957">
        <ele>1459.5</ele>
        <time>2021-01-16T08:58:30Z</time>
      </trkpt>
      <trkpt lat="46.03057" lon="6.78962">
        <ele>1460.2</ele>
        <time>2021-01-16T08:58:39Z</time>
      </trkpt>
      <trkpt lat="46.03055" lon="6.78967">
        <ele>1460.8</ele>
        <time>2021-01-16T08:58:52Z</time>
      </trkpt>
      <trkpt lat="46.03054" lon="6.7897">
        <ele>1461.1</ele>
        <time>2021-01-16T08:59:01Z</time>
      </trkpt>
      <trkpt lat="46.03051" lon="6.78977">
        <ele>1462</ele>
        <time>2021-01-16T08:59:06Z</time>
      </trkpt>
      <trkpt lat="46.03049" lon="6.78978">
        <ele>1462.4</ele>
        <time>2021-01-16T08:59:28Z</time>
      </trkpt>
      <trkpt lat="46.03036" lon="6.78983">
        <ele>1463.2</ele>
        <time>2021-01-16T08:59:33Z</time>
      </trkpt>
      <trkpt lat="46.03032" lon="6.78985">
        <ele>1463.4</ele>
        <time>2021-01-16T08:59:39Z</time>
      </trkpt>
      <trkpt lat="46.03028" lon="6.78989">
        <ele>1463.5</ele>
        <time>2021-01-16T08:59:47Z</time>
      </trkpt>
      <trkpt lat="46.03025" lon="6.78992">
        <ele>1463.9</ele>
        <time>2021-01-16T08:59:57Z</time>
      </trkpt>
      <trkpt lat="46.03023" lon="6.78997">
        <ele>1464.8</ele>
        <time>2021-01-16T09:00:11Z</time>
      </trkpt>
      <trkpt lat="46.03019" lon="6.78999">
        <ele>1466.4</ele>
        <time>2021-01-16T09:00:24Z</time>
      </trkpt>
      <trkpt lat="46.03015" lon="6.79002">
        <ele>1467.3</ele>
        <time>2021-01-16T09:00:35Z</time>
      </trkpt>
      <trkpt lat="46.03013" lon="6.79005">
        <ele>1468.1</ele>
        <time>2021-01-16T09:00:48Z</time>
      </trkpt>
      <trkpt lat="46.03008" lon="6.79011">
        <ele>1469.4</ele>
        <time>2021-01-16T09:00:53Z</time>
      </trkpt>
      <trkpt lat="46.03004" lon="6.79015">
        <ele>1470.5</ele>
        <time>2021-01-16T09:01:01Z</time>
      </trkpt>
      <trkpt lat="46.03" lon="6.79014">
        <ele>1470.9</ele>
        <time>2021-01-16T09:01:07Z</time>
      </trkpt>
      <trkpt lat="46.02999" lon="6.79018">
        <ele>1471.9</ele>
        <time>2021-01-16T09:01:34Z</time>
      </trkpt>
      <trkpt lat="46.02995" lon="6.79026">
        <ele>1472.5</ele>
        <time>2021-01-16T09:01:38Z</time>
      </trkpt>
      <trkpt lat="46.02992" lon="6.7903">
        <ele>1472.7</ele>
        <time>2021-01-16T09:01:45Z</time>
      </trkpt>
      <trkpt lat="46.02989" lon="6.79034">
        <ele>1473</ele>
        <time>2021-01-16T09:01:57Z</time>
      </trkpt>
      <trkpt lat="46.02986" lon="6.79038">
        <ele>1473.2</ele>
        <time>2021-01-16T09:02:03Z</time>
      </trkpt>
      <trkpt lat="46.02983" lon="6.79041">
        <ele>1473.4</ele>
        <time>2021-01-16T09:02:12Z</time>
      </trkpt>
      <trkpt lat="46.02979" lon="6.79044">
        <ele>1473.8</ele>
        <time>2021-01-16T09:02:33Z</time>
      </trkpt>
      <trkpt lat="46.02975" lon="6.79048">
        <ele>1474</ele>
        <time>2021-01-16T09:02:37Z</time>
      </trkpt>
      <trkpt lat="46.02972" lon="6.79053">
        <ele>1474.1</ele>
        <time>2021-01-16T09:02:44Z</time>
      </trkpt>
      <trkpt lat="46.02972" lon="6.7906">
        <ele>1474.1</ele>
        <time>2021-01-16T09:02:49Z</time>
      </trkpt>
      <trkpt lat="46.02968" lon="6.7906">
        <ele>1474.3</ele>
        <time>2021-01-16T09:03:02Z</time>
      </trkpt>
      <trkpt lat="46.02964" lon="6.79058">
        <ele>1474.5</ele>
        <time>2021-01-16T09:03:10Z</time>
      </trkpt>
      <trkpt lat="46.02961" lon="6.7906">
        <ele>1474.8</ele>
        <time>2021-01-16T09:03:26Z</time>
      </trkpt>
      <trkpt lat="46.02958" lon="6.79063">
        <ele>1475.2</ele>
        <time>2021-01-16T09:03:53Z</time>
      </trkpt>
      <trkpt lat="46.0295" lon="6.79062">
        <ele>1475.6</ele>
        <time>2021-01-16T09:03:57Z</time>
      </trkpt>
      <trkpt lat="46.02946" lon="6.79062">
        <ele>1475.3</ele>
        <time>2021-01-16T09:04:06Z</time>
      </trkpt>
      <trkpt lat="46.02944" lon="6.79067">
        <ele>1475.2</ele>
        <time>2021-01-16T09:04:17Z</time>
      </trkpt>
      <trkpt lat="46.02941" lon="6.79068">
        <ele>1475.2</ele>
        <time>2021-01-16T09:04:25Z</time>
      </trkpt>
      <trkpt lat="46.0294" lon="6.79068">
        <ele>1475.4</ele>
        <time>2021-01-16T09:04:54Z</time>
      </trkpt>
      <trkpt lat="46.02944" lon="6.79063">
        <ele>1478.4</ele>
        <time>2021-01-16T09:04:58Z</time>
      </trkpt>
      <trkpt lat="46.02948" lon="6.79065">
        <ele>1479.4</ele>
        <time>2021-01-16T09:05:08Z</time>
      </trkpt>
      <trkpt lat="46.02952" lon="6.79063">
        <ele>1479.9</ele>
        <time>2021-01-16T09:05:14Z</time>
      </trkpt>
      <trkpt lat="46.02956" lon="6.79063">
        <ele>1480.4</ele>
        <time>2021-01-16T09:05:22Z</time>
      </trkpt>
      <trkpt lat="46.02959" lon="6.79065">
        <ele>1482.8</ele>
        <time>2021-01-16T09:05:37Z</time>
      </trkpt>
      <trkpt lat="46.02963" lon="6.79064">
        <ele>1483.4</ele>
        <time>2021-01-16T09:05:43Z</time>
      </trkpt>
      <trkpt lat="46.02966" lon="6.7906">
        <ele>1484.6</ele>
        <time>2021-01-16T09:05:54Z</time>
      </trkpt>
      <trkpt lat="46.0297" lon="6.7906">
        <ele>1486.3</ele>
        <time>2021-01-16T09:06:01Z</time>
      </trkpt>
      <trkpt lat="46.02973" lon="6.79063">
        <ele>1487.4</ele>
        <time>2021-01-16T09:06:08Z</time>
      </trkpt>
      <trkpt lat="46.02979" lon="6.79061">
        <ele>1488.2</ele>
        <time>2021-01-16T09:06:13Z</time>
      </trkpt>
      <trkpt lat="46.02983" lon="6.79062">
        <ele>1488.6</ele>
        <time>2021-01-16T09:06:17Z</time>
      </trkpt>
      <trkpt lat="46.02989" lon="6.79061">
        <ele>1489.4</ele>
        <time>2021-01-16T09:06:22Z</time>
      </trkpt>
      <trkpt lat="46.0299" lon="6.79067">
        <ele>1490.5</ele>
        <time>2021-01-16T09:06:29Z</time>
      </trkpt>
      <trkpt lat="46.02993" lon="6.7907">
        <ele>1494.2</ele>
        <time>2021-01-16T09:06:47Z</time>
      </trkpt>
      <trkpt lat="46.02996" lon="6.79069">
        <ele>1495.3</ele>
        <time>2021-01-16T09:06:51Z</time>
      </trkpt>
      <trkpt lat="46.03" lon="6.7907">
        <ele>1497.4</ele>
        <time>2021-01-16T09:07:01Z</time>
      </trkpt>
      <trkpt lat="46.03004" lon="6.79066">
        <ele>1498.2</ele>
        <time>2021-01-16T09:07:06Z</time>
      </trkpt>
      <trkpt lat="46.03008" lon="6.79066">
        <ele>1499.5</ele>
        <time>2021-01-16T09:07:14Z</time>
      </trkpt>
      <trkpt lat="46.03011" lon="6.79067">
        <ele>1500.5</ele>
        <time>2021-01-16T09:07:19Z</time>
      </trkpt>
      <trkpt lat="46.03014" lon="6.79073">
        <ele>1502.2</ele>
        <time>2021-01-16T09:07:28Z</time>
      </trkpt>
      <trkpt lat="46.03018" lon="6.79072">
        <ele>1504</ele>
        <time>2021-01-16T09:07:36Z</time>
      </trkpt>
      <trkpt lat="46.03022" lon="6.79072">
        <ele>1505.5</ele>
        <time>2021-01-16T09:07:42Z</time>
      </trkpt>
      <trkpt lat="46.03026" lon="6.79073">
        <ele>1507.4</ele>
        <time>2021-01-16T09:07:50Z</time>
      </trkpt>
      <trkpt lat="46.0303" lon="6.79073">
        <ele>1508.3</ele>
        <time>2021-01-16T09:07:55Z</time>
      </trkpt>
      <trkpt lat="46.03033" lon="6.79072">
        <ele>1509.1</ele>
        <time>2021-01-16T09:08:00Z</time>
      </trkpt>
      <trkpt lat="46.03037" lon="6.79072">
        <ele>1510</ele>
        <time>2021-01-16T09:08:05Z</time>
      </trkpt>
      <trkpt lat="46.03041" lon="6.79073">
        <ele>1511</ele>
        <time>2021-01-16T09:08:13Z</time>
      </trkpt>
      <trkpt lat="46.03045" lon="6.79071">
        <ele>1511.9</ele>
        <time>2021-01-16T09:08:19Z</time>
      </trkpt>
      <trkpt lat="46.03047" lon="6.79068">
        <ele>1513</ele>
        <time>2021-01-16T09:08:27Z</time>
      </trkpt>
      <trkpt lat="46.03051" lon="6.79067">
        <ele>1513.9</ele>
        <time>2021-01-16T09:08:33Z</time>
      </trkpt>
      <trkpt lat="46.03055" lon="6.79067">
        <ele>1514.5</ele>
        <time>2021-01-16T09:08:37Z</time>
      </trkpt>
      <trkpt lat="46.03059" lon="6.79068">
        <ele>1515.7</ele>
        <time>2021-01-16T09:08:44Z</time>
      </trkpt>
      <trkpt lat="46.03063" lon="6.79067">
        <ele>1516.9</ele>
        <time>2021-01-16T09:08:52Z</time>
      </trkpt>
      <trkpt lat="46.03066" lon="6.79062">
        <ele>1517.6</ele>
        <time>2021-01-16T09:08:58Z</time>
      </trkpt>
      <trkpt lat="46.03068" lon="6.79056">
        <ele>1518.5</ele>
        <time>2021-01-16T09:09:05Z</time>
      </trkpt>
      <trkpt lat="46.03071" lon="6.79055">
        <ele>1519.4</ele>
        <time>2021-01-16T09:09:18Z</time>
      </trkpt>
      <trkpt lat="46.03076" lon="6.79059">
        <ele>1520.2</ele>
        <time>2021-01-16T09:09:22Z</time>
      </trkpt>
      <trkpt lat="46.0308" lon="6.79059">
        <ele>1521</ele>
        <time>2021-01-16T09:09:31Z</time>
      </trkpt>
      <trkpt lat="46.03084" lon="6.79057">
        <ele>1522.5</ele>
        <time>2021-01-16T09:09:49Z</time>
      </trkpt>
      <trkpt lat="46.03087" lon="6.79062">
        <ele>1523</ele>
        <time>2021-01-16T09:09:55Z</time>
      </trkpt>
      <trkpt lat="46.03089" lon="6.79064">
        <ele>1524.2</ele>
        <time>2021-01-16T09:10:18Z</time>
      </trkpt>
      <trkpt lat="46.03096" lon="6.79066">
        <ele>1524.5</ele>
        <time>2021-01-16T09:10:23Z</time>
      </trkpt>
      <trkpt lat="46.03099" lon="6.79071">
        <ele>1524.9</ele>
        <time>2021-01-16T09:10:36Z</time>
      </trkpt>
      <trkpt lat="46.03095" lon="6.79069">
        <ele>1525.2</ele>
        <time>2021-01-16T09:10:55Z</time>
      </trkpt>
      <trkpt lat="46.03091" lon="6.79067">
        <ele>1525.5</ele>
        <time>2021-01-16T09:11:18Z</time>
      </trkpt>
      <trkpt lat="46.03089" lon="6.79073">
        <ele>1525.7</ele>
        <time>2021-01-16T09:11:27Z</time>
      </trkpt>
      <trkpt lat="46.03086" lon="6.79077">
        <ele>1525.9</ele>
        <time>2021-01-16T09:11:32Z</time>
      </trkpt>
      <trkpt lat="46.03085" lon="6.79083">
        <ele>1526</ele>
        <time>2021-01-16T09:11:39Z</time>
      </trkpt>
      <trkpt lat="46.03081" lon="6.79084">
        <ele>1526.3</ele>
        <time>2021-01-16T09:11:51Z</time>
      </trkpt>
      <trkpt lat="46.03075" lon="6.79088">
        <ele>1526.4</ele>
        <time>2021-01-16T09:11:55Z</time>
      </trkpt>
      <trkpt lat="46.03072" lon="6.79091">
        <ele>1526.5</ele>
        <time>2021-01-16T09:12:01Z</time>
      </trkpt>
      <trkpt lat="46.03067" lon="6.79096">
        <ele>1526.6</ele>
        <time>2021-01-16T09:12:06Z</time>
      </trkpt>
      <trkpt lat="46.03064" lon="6.79099">
        <ele>1527</ele>
        <time>2021-01-16T09:12:18Z</time>
      </trkpt>
      <trkpt lat="46.03061" lon="6.79103">
        <ele>1527.2</ele>
        <time>2021-01-16T09:12:32Z</time>
      </trkpt>
      <trkpt lat="46.0306" lon="6.79109">
        <ele>1527.5</ele>
        <time>2021-01-16T09:12:36Z</time>
      </trkpt>
      <trkpt lat="46.03057" lon="6.79113">
        <ele>1527.8</ele>
        <time>2021-01-16T09:12:46Z</time>
      </trkpt>
      <trkpt lat="46.03054" lon="6.79116">
        <ele>1528.1</ele>
        <time>2021-01-16T09:12:54Z</time>
      </trkpt>
      <trkpt lat="46.03055" lon="6.79123">
        <ele>1528.2</ele>
        <time>2021-01-16T09:13:00Z</time>
      </trkpt>
      <trkpt lat="46.03051" lon="6.79125">
        <ele>1528.5</ele>
        <time>2021-01-16T09:13:10Z</time>
      </trkpt>
      <trkpt lat="46.03047" lon="6.79126">
        <ele>1528.8</ele>
        <time>2021-01-16T09:13:16Z</time>
      </trkpt>
      <trkpt lat="46.03042" lon="6.79126">
        <ele>1529.2</ele>
        <time>2021-01-16T09:13:23Z</time>
      </trkpt>
      <trkpt lat="46.03038" lon="6.79127">
        <ele>1529.9</ele>
        <time>2021-01-16T09:13:36Z</time>
      </trkpt>
      <trkpt lat="46.03036" lon="6.79128">
        <ele>1530.2</ele>
        <time>2021-01-16T09:13:52Z</time>
      </trkpt>
      <trkpt lat="46.03029" lon="6.7913">
        <ele>1530.7</ele>
        <time>2021-01-16T09:13:56Z</time>
      </trkpt>
      <trkpt lat="46.03025" lon="6.79129">
        <ele>1531</ele>
        <time>2021-01-16T09:14:02Z</time>
      </trkpt>
      <trkpt lat="46.03021" lon="6.79132">
        <ele>1531.4</ele>
        <time>2021-01-16T09:14:07Z</time>
      </trkpt>
      <trkpt lat="46.03018" lon="6.79135">
        <ele>1531.9</ele>
        <time>2021-01-16T09:14:12Z</time>
      </trkpt>
      <trkpt lat="46.03016" lon="6.7914">
        <ele>1532.6</ele>
        <time>2021-01-16T09:14:20Z</time>
      </trkpt>
      <trkpt lat="46.03015" lon="6.79142">
        <ele>1533.1</ele>
        <time>2021-01-16T09:14:43Z</time>
      </trkpt>
      <trkpt lat="46.03012" lon="6.79148">
        <ele>1533.4</ele>
        <time>2021-01-16T09:14:47Z</time>
      </trkpt>
      <trkpt lat="46.03008" lon="6.7915">
        <ele>1533.5</ele>
        <time>2021-01-16T09:14:54Z</time>
      </trkpt>
      <trkpt lat="46.03004" lon="6.79152">
        <ele>1533.8</ele>
        <time>2021-01-16T09:15:05Z</time>
      </trkpt>
      <trkpt lat="46.03003" lon="6.79154">
        <ele>1533.8</ele>
        <time>2021-01-16T09:15:21Z</time>
      </trkpt>
      <trkpt lat="46.02997" lon="6.79159">
        <ele>1534.1</ele>
        <time>2021-01-16T09:15:25Z</time>
      </trkpt>
      <trkpt lat="46.02994" lon="6.79158">
        <ele>1534.2</ele>
        <time>2021-01-16T09:15:38Z</time>
      </trkpt>
      <trkpt lat="46.02991" lon="6.79161">
        <ele>1534.6</ele>
        <time>2021-01-16T09:15:44Z</time>
      </trkpt>
      <trkpt lat="46.02987" lon="6.79162">
        <ele>1535.1</ele>
        <time>2021-01-16T09:15:54Z</time>
      </trkpt>
      <trkpt lat="46.02985" lon="6.79169">
        <ele>1535.4</ele>
        <time>2021-01-16T09:15:59Z</time>
      </trkpt>
      <trkpt lat="46.02982" lon="6.79173">
        <ele>1535.7</ele>
        <time>2021-01-16T09:16:05Z</time>
      </trkpt>
      <trkpt lat="46.0298" lon="6.79178">
        <ele>1535.9</ele>
        <time>2021-01-16T09:16:10Z</time>
      </trkpt>
      <trkpt lat="46.02976" lon="6.79182">
        <ele>1536.2</ele>
        <time>2021-01-16T09:16:15Z</time>
      </trkpt>
      <trkpt lat="46.02972" lon="6.79185">
        <ele>1536.7</ele>
        <time>2021-01-16T09:16:28Z</time>
      </trkpt>
      <trkpt lat="46.02969" lon="6.79187">
        <ele>1537</ele>
        <time>2021-01-16T09:16:37Z</time>
      </trkpt>
      <trkpt lat="46.02965" lon="6.79188">
        <ele>1537.2</ele>
        <time>2021-01-16T09:16:43Z</time>
      </trkpt>
      <trkpt lat="46.02961" lon="6.79188">
        <ele>1537.4</ele>
        <time>2021-01-16T09:16:50Z</time>
      </trkpt>
      <trkpt lat="46.02958" lon="6.79186">
        <ele>1537.7</ele>
        <time>2021-01-16T09:16:58Z</time>
      </trkpt>
      <trkpt lat="46.02954" lon="6.79186">
        <ele>1538</ele>
        <time>2021-01-16T09:17:11Z</time>
      </trkpt>
      <trkpt lat="46.0295" lon="6.79187">
        <ele>1538.2</ele>
        <time>2021-01-16T09:17:15Z</time>
      </trkpt>
      <trkpt lat="46.02947" lon="6.79188">
        <ele>1538.3</ele>
        <time>2021-01-16T09:17:21Z</time>
      </trkpt>
      <trkpt lat="46.02943" lon="6.7919">
        <ele>1538.4</ele>
        <time>2021-01-16T09:17:26Z</time>
      </trkpt>
      <trkpt lat="46.02939" lon="6.7919">
        <ele>1538.8</ele>
        <time>2021-01-16T09:17:37Z</time>
      </trkpt>
      <trkpt lat="46.02935" lon="6.79191">
        <ele>1539.1</ele>
        <time>2021-01-16T09:17:44Z</time>
      </trkpt>
      <trkpt lat="46.02931" lon="6.7919">
        <ele>1539.8</ele>
        <time>2021-01-16T09:17:58Z</time>
      </trkpt>
      <trkpt lat="46.02928" lon="6.7919">
        <ele>1540.1</ele>
        <time>2021-01-16T09:18:06Z</time>
      </trkpt>
      <trkpt lat="46.02924" lon="6.79192">
        <ele>1541.4</ele>
        <time>2021-01-16T09:18:23Z</time>
      </trkpt>
      <trkpt lat="46.02919" lon="6.79192">
        <ele>1541.9</ele>
        <time>2021-01-16T09:18:28Z</time>
      </trkpt>
      <trkpt lat="46.02917" lon="6.79196">
        <ele>1542.7</ele>
        <time>2021-01-16T09:18:37Z</time>
      </trkpt>
      <trkpt lat="46.02913" lon="6.79198">
        <ele>1544.1</ele>
        <time>2021-01-16T09:18:54Z</time>
      </trkpt>
      <trkpt lat="46.02909" lon="6.79198">
        <ele>1545.8</ele>
        <time>2021-01-16T09:19:06Z</time>
      </trkpt>
      <trkpt lat="46.02905" lon="6.79201">
        <ele>1546.6</ele>
        <time>2021-01-16T09:19:12Z</time>
      </trkpt>
      <trkpt lat="46.02901" lon="6.79202">
        <ele>1547.4</ele>
        <time>2021-01-16T09:19:18Z</time>
      </trkpt>
      <trkpt lat="46.02897" lon="6.79203">
        <ele>1548.6</ele>
        <time>2021-01-16T09:19:27Z</time>
      </trkpt>
      <trkpt lat="46.02895" lon="6.79207">
        <ele>1549.5</ele>
        <time>2021-01-16T09:19:33Z</time>
      </trkpt>
      <trkpt lat="46.02894" lon="6.79213">
        <ele>1550.9</ele>
        <time>2021-01-16T09:19:44Z</time>
      </trkpt>
      <trkpt lat="46.02892" lon="6.79216">
        <ele>1551.9</ele>
        <time>2021-01-16T09:20:14Z</time>
      </trkpt>
      <trkpt lat="46.02885" lon="6.7922">
        <ele>1554.2</ele>
        <time>2021-01-16T09:20:19Z</time>
      </trkpt>
      <trkpt lat="46.02881" lon="6.7922">
        <ele>1554.5</ele>
        <time>2021-01-16T09:20:51Z</time>
      </trkpt>
      <trkpt lat="46.02878" lon="6.7923">
        <ele>1556.3</ele>
        <time>2021-01-16T09:20:55Z</time>
      </trkpt>
      <trkpt lat="46.02877" lon="6.79236">
        <ele>1556.9</ele>
        <time>2021-01-16T09:21:00Z</time>
      </trkpt>
      <trkpt lat="46.02872" lon="6.79236">
        <ele>1558.3</ele>
        <time>2021-01-16T09:21:11Z</time>
      </trkpt>
      <trkpt lat="46.02868" lon="6.79237">
        <ele>1559.2</ele>
        <time>2021-01-16T09:21:17Z</time>
      </trkpt>
      <trkpt lat="46.02867" lon="6.79237">
        <ele>1559.4</ele>
        <time>2021-01-16T09:21:39Z</time>
      </trkpt>
      <trkpt lat="46.02864" lon="6.79249">
        <ele>1561.8</ele>
        <time>2021-01-16T09:21:43Z</time>
      </trkpt>
      <trkpt lat="46.02859" lon="6.79249">
        <ele>1567.6</ele>
        <time>2021-01-16T09:22:00Z</time>
      </trkpt>
      <trkpt lat="46.02858" lon="6.7925">
        <ele>1568.1</ele>
        <time>2021-01-16T09:22:23Z</time>
      </trkpt>
      <trkpt lat="46.02854" lon="6.79252">
        <ele>1569.1</ele>
        <time>2021-01-16T09:22:28Z</time>
      </trkpt>
      <trkpt lat="46.02853" lon="6.79253">
        <ele>1569.2</ele>
        <time>2021-01-16T09:22:54Z</time>
      </trkpt>
      <trkpt lat="46.02849" lon="6.79266">
        <ele>1571.2</ele>
        <time>2021-01-16T09:22:58Z</time>
      </trkpt>
      <trkpt lat="46.02849" lon="6.79267">
        <ele>1571.3</ele>
        <time>2021-01-16T09:23:07Z</time>
      </trkpt>
      <trkpt lat="46.02851" lon="6.79277">
        <ele>1572.6</ele>
        <time>2021-01-16T09:23:11Z</time>
      </trkpt>
      <trkpt lat="46.02854" lon="6.79283">
        <ele>1573</ele>
        <time>2021-01-16T09:23:15Z</time>
      </trkpt>
      <trkpt lat="46.02852" lon="6.79288">
        <ele>1575</ele>
        <time>2021-01-16T09:23:44Z</time>
      </trkpt>
      <trkpt lat="46.02849" lon="6.79292">
        <ele>1576.2</ele>
        <time>2021-01-16T09:24:44Z</time>
      </trkpt>
      <trkpt lat="46.02847" lon="6.79297">
        <ele>1576.6</ele>
        <time>2021-01-16T09:24:50Z</time>
      </trkpt>
      <trkpt lat="46.02846" lon="6.79302">
        <ele>1576.9</ele>
        <time>2021-01-16T09:24:55Z</time>
      </trkpt>
      <trkpt lat="46.02847" lon="6.79308">
        <ele>1577.6</ele>
        <time>2021-01-16T09:25:02Z</time>
      </trkpt>
      <trkpt lat="46.02848" lon="6.79314">
        <ele>1578.6</ele>
        <time>2021-01-16T09:25:09Z</time>
      </trkpt>
      <trkpt lat="46.02847" lon="6.7932">
        <ele>1579.3</ele>
        <time>2021-01-16T09:25:17Z</time>
      </trkpt>
      <trkpt lat="46.02848" lon="6.79325">
        <ele>1579.7</ele>
        <time>2021-01-16T09:25:30Z</time>
      </trkpt>
      <trkpt lat="46.02848" lon="6.79335">
        <ele>1582.3</ele>
        <time>2021-01-16T09:25:35Z</time>
      </trkpt>
      <trkpt lat="46.02847" lon="6.79341">
        <ele>1584.4</ele>
        <time>2021-01-16T09:25:44Z</time>
      </trkpt>
      <trkpt lat="46.02844" lon="6.79346">
        <ele>1588.5</ele>
        <time>2021-01-16T09:25:58Z</time>
      </trkpt>
      <trkpt lat="46.02844" lon="6.79352">
        <ele>1592</ele>
        <time>2021-01-16T09:26:21Z</time>
      </trkpt>
      <trkpt lat="46.02845" lon="6.79357">
        <ele>1592.2</ele>
        <time>2021-01-16T09:26:32Z</time>
      </trkpt>
      <trkpt lat="46.02847" lon="6.79363">
        <ele>1592.4</ele>
        <time>2021-01-16T09:26:41Z</time>
      </trkpt>
      <trkpt lat="46.02849" lon="6.79367">
        <ele>1592.6</ele>
        <time>2021-01-16T09:26:47Z</time>
      </trkpt>
      <trkpt lat="46.02848" lon="6.7937">
        <ele>1592.9</ele>
        <time>2021-01-16T09:26:58Z</time>
      </trkpt>
      <trkpt lat="46.02848" lon="6.79379">
        <ele>1593.3</ele>
        <time>2021-01-16T09:27:03Z</time>
      </trkpt>
      <trkpt lat="46.0285" lon="6.79385">
        <ele>1593.8</ele>
        <time>2021-01-16T09:27:10Z</time>
      </trkpt>
      <trkpt lat="46.02851" lon="6.79391">
        <ele>1594.5</ele>
        <time>2021-01-16T09:27:18Z</time>
      </trkpt>
      <trkpt lat="46.0285" lon="6.79397">
        <ele>1595</ele>
        <time>2021-01-16T09:27:24Z</time>
      </trkpt>
      <trkpt lat="46.02847" lon="6.79401">
        <ele>1595.3</ele>
        <time>2021-01-16T09:27:32Z</time>
      </trkpt>
      <trkpt lat="46.02849" lon="6.79407">
        <ele>1596.7</ele>
        <time>2021-01-16T09:27:45Z</time>
      </trkpt>
      <trkpt lat="46.02849" lon="6.79412">
        <ele>1598.2</ele>
        <time>2021-01-16T09:28:06Z</time>
      </trkpt>
      <trkpt lat="46.02847" lon="6.79418">
        <ele>1598.9</ele>
        <time>2021-01-16T09:28:10Z</time>
      </trkpt>
      <trkpt lat="46.02848" lon="6.79424">
        <ele>1599.2</ele>
        <time>2021-01-16T09:28:20Z</time>
      </trkpt>
      <trkpt lat="46.02845" lon="6.7943">
        <ele>1600.1</ele>
        <time>2021-01-16T09:28:32Z</time>
      </trkpt>
      <trkpt lat="46.02846" lon="6.79431">
        <ele>1600.3</ele>
        <time>2021-01-16T09:28:36Z</time>
      </trkpt>
      <trkpt lat="46.02851" lon="6.79441">
        <ele>1601.4</ele>
        <time>2021-01-16T09:28:41Z</time>
      </trkpt>
      <trkpt lat="46.0285" lon="6.79447">
        <ele>1602.9</ele>
        <time>2021-01-16T09:28:51Z</time>
      </trkpt>
      <trkpt lat="46.02848" lon="6.79452">
        <ele>1603.9</ele>
        <time>2021-01-16T09:29:00Z</time>
      </trkpt>
      <trkpt lat="46.02844" lon="6.79455">
        <ele>1604.7</ele>
        <time>2021-01-16T09:29:06Z</time>
      </trkpt>
      <trkpt lat="46.02841" lon="6.79459">
        <ele>1605.4</ele>
        <time>2021-01-16T09:29:15Z</time>
      </trkpt>
      <trkpt lat="46.02842" lon="6.79465">
        <ele>1606.8</ele>
        <time>2021-01-16T09:29:36Z</time>
      </trkpt>
      <trkpt lat="46.02841" lon="6.7947">
        <ele>1607.2</ele>
        <time>2021-01-16T09:29:42Z</time>
      </trkpt>
      <trkpt lat="46.02844" lon="6.79477">
        <ele>1607.8</ele>
        <time>2021-01-16T09:29:46Z</time>
      </trkpt>
      <trkpt lat="46.02842" lon="6.79483">
        <ele>1609.5</ele>
        <time>2021-01-16T09:30:02Z</time>
      </trkpt>
      <trkpt lat="46.02842" lon="6.79489">
        <ele>1609.7</ele>
        <time>2021-01-16T09:30:09Z</time>
      </trkpt>
      <trkpt lat="46.02839" lon="6.79493">
        <ele>1609.8</ele>
        <time>2021-01-16T09:30:22Z</time>
      </trkpt>
      <trkpt lat="46.02835" lon="6.795">
        <ele>1610.1</ele>
        <time>2021-01-16T09:30:27Z</time>
      </trkpt>
      <trkpt lat="46.02835" lon="6.79501">
        <ele>1610.5</ele>
        <time>2021-01-16T09:30:39Z</time>
      </trkpt>
      <trkpt lat="46.02835" lon="6.79509">
        <ele>1611.2</ele>
        <time>2021-01-16T09:30:43Z</time>
      </trkpt>
      <trkpt lat="46.02831" lon="6.79507">
        <ele>1612</ele>
        <time>2021-01-16T09:30:51Z</time>
      </trkpt>
      <trkpt lat="46.02831" lon="6.79512">
        <ele>1613</ele>
        <time>2021-01-16T09:31:02Z</time>
      </trkpt>
      <trkpt lat="46.02833" lon="6.79526">
        <ele>1614</ele>
        <time>2021-01-16T09:31:07Z</time>
      </trkpt>
      <trkpt lat="46.02831" lon="6.79531">
        <ele>1615.3</ele>
        <time>2021-01-16T09:31:14Z</time>
      </trkpt>
      <trkpt lat="46.02828" lon="6.79536">
        <ele>1618.4</ele>
        <time>2021-01-16T09:31:43Z</time>
      </trkpt>
      <trkpt lat="46.02828" lon="6.79536">
        <ele>1618.4</ele>
        <time>2021-01-16T09:32:28Z</time>
      </trkpt>
      <trkpt lat="46.02819" lon="6.79536">
        <ele>1623.8</ele>
        <time>2021-01-16T09:32:32Z</time>
      </trkpt>
      <trkpt lat="46.0282" lon="6.79539">
        <ele>1624.2</ele>
        <time>2021-01-16T09:32:48Z</time>
      </trkpt>
      <trkpt lat="46.02823" lon="6.79547">
        <ele>1624.4</ele>
        <time>2021-01-16T09:32:52Z</time>
      </trkpt>
      <trkpt lat="46.02821" lon="6.79547">
        <ele>1624.8</ele>
        <time>2021-01-16T09:33:13Z</time>
      </trkpt>
      <trkpt lat="46.02831" lon="6.79556">
        <ele>1625.2</ele>
        <time>2021-01-16T09:33:17Z</time>
      </trkpt>
      <trkpt lat="46.02831" lon="6.79551">
        <ele>1625.2</ele>
        <time>2021-01-16T09:33:35Z</time>
      </trkpt>
      <trkpt lat="46.02838" lon="6.79557">
        <ele>1625.4</ele>
        <time>2021-01-16T09:33:39Z</time>
      </trkpt>
      <trkpt lat="46.02836" lon="6.79563">
        <ele>1626.9</ele>
        <time>2021-01-16T09:34:10Z</time>
      </trkpt>
      <trkpt lat="46.02829" lon="6.79566">
        <ele>1627.5</ele>
        <time>2021-01-16T09:34:15Z</time>
      </trkpt>
      <trkpt lat="46.02826" lon="6.79567">
        <ele>1628.6</ele>
        <time>2021-01-16T09:34:24Z</time>
      </trkpt>
      <trkpt lat="46.02822" lon="6.79569">
        <ele>1629.4</ele>
        <time>2021-01-16T09:34:29Z</time>
      </trkpt>
      <trkpt lat="46.02814" lon="6.79569">
        <ele>1630.7</ele>
        <time>2021-01-16T09:34:33Z</time>
      </trkpt>
      <trkpt lat="46.0281" lon="6.79569">
        <ele>1632.1</ele>
        <time>2021-01-16T09:34:37Z</time>
      </trkpt>
      <trkpt lat="46.02808" lon="6.79568">
        <ele>1632.8</ele>
        <time>2021-01-16T09:36:17Z</time>
      </trkpt>
      <trkpt lat="46.02799" lon="6.79569">
        <ele>1637</ele>
        <time>2021-01-16T09:36:21Z</time>
      </trkpt>
      <trkpt lat="46.02802" lon="6.79571">
        <ele>1637.3</ele>
        <time>2021-01-16T09:37:10Z</time>
      </trkpt>
      <trkpt lat="46.02805" lon="6.79565">
        <ele>1638.8</ele>
        <time>2021-01-16T09:37:15Z</time>
      </trkpt>
      <trkpt lat="46.02809" lon="6.79565">
        <ele>1642.3</ele>
        <time>2021-01-16T09:37:35Z</time>
      </trkpt>
      <trkpt lat="46.02813" lon="6.79564">
        <ele>1643.5</ele>
        <time>2021-01-16T09:37:43Z</time>
      </trkpt>
      <trkpt lat="46.02817" lon="6.79564">
        <ele>1644.7</ele>
        <time>2021-01-16T09:37:52Z</time>
      </trkpt>
      <trkpt lat="46.02821" lon="6.79567">
        <ele>1645.4</ele>
        <time>2021-01-16T09:37:58Z</time>
      </trkpt>
      <trkpt lat="46.02823" lon="6.79579">
        <ele>1646.7</ele>
        <time>2021-01-16T09:38:02Z</time>
      </trkpt>
      <trkpt lat="46.02825" lon="6.79586">
        <ele>1647.7</ele>
        <time>2021-01-16T09:38:06Z</time>
      </trkpt>
      <trkpt lat="46.02825" lon="6.79591">
        <ele>1649.3</ele>
        <time>2021-01-16T09:38:33Z</time>
      </trkpt>
      <trkpt lat="46.02825" lon="6.79592">
        <ele>1651</ele>
        <time>2021-01-16T09:39:00Z</time>
      </trkpt>
      <trkpt lat="46.02818" lon="6.79594">
        <ele>1653.4</ele>
        <time>2021-01-16T09:39:05Z</time>
      </trkpt>
      <trkpt lat="46.02815" lon="6.79595">
        <ele>1655.5</ele>
        <time>2021-01-16T09:39:09Z</time>
      </trkpt>
      <trkpt lat="46.02816" lon="6.79591">
        <ele>1659.1</ele>
        <time>2021-01-16T09:39:22Z</time>
      </trkpt>
      <trkpt lat="46.02822" lon="6.79592">
        <ele>1662.8</ele>
        <time>2021-01-16T09:39:26Z</time>
      </trkpt>
      <trkpt lat="46.02825" lon="6.79596">
        <ele>1664.1</ele>
        <time>2021-01-16T09:39:30Z</time>
      </trkpt>
      <trkpt lat="46.02822" lon="6.79599">
        <ele>1666.7</ele>
        <time>2021-01-16T09:40:01Z</time>
      </trkpt>
      <trkpt lat="46.02822" lon="6.79605">
        <ele>1667.8</ele>
        <time>2021-01-16T09:40:24Z</time>
      </trkpt>
      <trkpt lat="46.02828" lon="6.79613">
        <ele>1667.9</ele>
        <time>2021-01-16T09:40:29Z</time>
      </trkpt>
      <trkpt lat="46.0283" lon="6.79615">
        <ele>1668.6</ele>
        <time>2021-01-16T09:40:59Z</time>
      </trkpt>
      <trkpt lat="46.02821" lon="6.79612">
        <ele>1668.7</ele>
        <time>2021-01-16T09:41:04Z</time>
      </trkpt>
      <trkpt lat="46.02817" lon="6.79614">
        <ele>1671.1</ele>
        <time>2021-01-16T09:41:46Z</time>
      </trkpt>
      <trkpt lat="46.02816" lon="6.7962">
        <ele>1671.8</ele>
        <time>2021-01-16T09:41:56Z</time>
      </trkpt>
      <trkpt lat="46.02819" lon="6.79625">
        <ele>1674</ele>
        <time>2021-01-16T09:42:15Z</time>
      </trkpt>
      <trkpt lat="46.02822" lon="6.79627">
        <ele>1675.8</ele>
        <time>2021-01-16T09:42:25Z</time>
      </trkpt>
      <trkpt lat="46.02827" lon="6.79629">
        <ele>1676.7</ele>
        <time>2021-01-16T09:42:30Z</time>
      </trkpt>
      <trkpt lat="46.02832" lon="6.79628">
        <ele>1677.7</ele>
        <time>2021-01-16T09:42:37Z</time>
      </trkpt>
      <trkpt lat="46.02835" lon="6.79631">
        <ele>1678.1</ele>
        <time>2021-01-16T09:42:42Z</time>
      </trkpt>
      <trkpt lat="46.02839" lon="6.7963">
        <ele>1680.2</ele>
        <time>2021-01-16T09:42:52Z</time>
      </trkpt>
      <trkpt lat="46.02843" lon="6.7963">
        <ele>1681.2</ele>
        <time>2021-01-16T09:42:58Z</time>
      </trkpt>
      <trkpt lat="46.02846" lon="6.79625">
        <ele>1682.1</ele>
        <time>2021-01-16T09:43:03Z</time>
      </trkpt>
      <trkpt lat="46.02849" lon="6.79625">
        <ele>1682.9</ele>
        <time>2021-01-16T09:43:09Z</time>
      </trkpt>
      <trkpt lat="46.02852" lon="6.79621">
        <ele>1684</ele>
        <time>2021-01-16T09:43:15Z</time>
      </trkpt>
      <trkpt lat="46.02855" lon="6.79617">
        <ele>1684.7</ele>
        <time>2021-01-16T09:43:25Z</time>
      </trkpt>
      <trkpt lat="46.02858" lon="6.79613">
        <ele>1686.9</ele>
        <time>2021-01-16T09:43:34Z</time>
      </trkpt>
      <trkpt lat="46.02858" lon="6.79607">
        <ele>1688.7</ele>
        <time>2021-01-16T09:43:42Z</time>
      </trkpt>
      <trkpt lat="46.02859" lon="6.79601">
        <ele>1690.5</ele>
        <time>2021-01-16T09:43:50Z</time>
      </trkpt>
      <trkpt lat="46.02861" lon="6.79597">
        <ele>1691.4</ele>
        <time>2021-01-16T09:43:54Z</time>
      </trkpt>
      <trkpt lat="46.02863" lon="6.79598">
        <ele>1694.1</ele>
        <time>2021-01-16T09:44:19Z</time>
      </trkpt>
      <trkpt lat="46.02866" lon="6.79607">
        <ele>1694.7</ele>
        <time>2021-01-16T09:44:23Z</time>
      </trkpt>
      <trkpt lat="46.02864" lon="6.79613">
        <ele>1695.3</ele>
        <time>2021-01-16T09:44:30Z</time>
      </trkpt>
      <trkpt lat="46.02864" lon="6.79619">
        <ele>1696.5</ele>
        <time>2021-01-16T09:44:37Z</time>
      </trkpt>
      <trkpt lat="46.02861" lon="6.79623">
        <ele>1697.4</ele>
        <time>2021-01-16T09:44:42Z</time>
      </trkpt>
      <trkpt lat="46.0286" lon="6.79628">
        <ele>1698.7</ele>
        <time>2021-01-16T09:44:49Z</time>
      </trkpt>
      <trkpt lat="46.02861" lon="6.79634">
        <ele>1699.6</ele>
        <time>2021-01-16T09:44:55Z</time>
      </trkpt>
      <trkpt lat="46.0286" lon="6.7964">
        <ele>1700.3</ele>
        <time>2021-01-16T09:45:02Z</time>
      </trkpt>
      <trkpt lat="46.02863" lon="6.79644">
        <ele>1701.4</ele>
        <time>2021-01-16T09:45:10Z</time>
      </trkpt>
      <trkpt lat="46.02864" lon="6.79649">
        <ele>1702.2</ele>
        <time>2021-01-16T09:45:19Z</time>
      </trkpt>
      <trkpt lat="46.02869" lon="6.79653">
        <ele>1702.7</ele>
        <time>2021-01-16T09:45:24Z</time>
      </trkpt>
      <trkpt lat="46.02873" lon="6.79656">
        <ele>1703.7</ele>
        <time>2021-01-16T09:45:32Z</time>
      </trkpt>
      <trkpt lat="46.02873" lon="6.79662">
        <ele>1704.3</ele>
        <time>2021-01-16T09:45:39Z</time>
      </trkpt>
      <trkpt lat="46.02872" lon="6.79668">
        <ele>1704.8</ele>
        <time>2021-01-16T09:45:45Z</time>
      </trkpt>
      <trkpt lat="46.02871" lon="6.79674">
        <ele>1705.5</ele>
        <time>2021-01-16T09:45:54Z</time>
      </trkpt>
      <trkpt lat="46.02869" lon="6.79679">
        <ele>1706.2</ele>
        <time>2021-01-16T09:46:02Z</time>
      </trkpt>
      <trkpt lat="46.02869" lon="6.79685">
        <ele>1706.8</ele>
        <time>2021-01-16T09:46:09Z</time>
      </trkpt>
      <trkpt lat="46.02865" lon="6.79687">
        <ele>1707.5</ele>
        <time>2021-01-16T09:46:29Z</time>
      </trkpt>
      <trkpt lat="46.02863" lon="6.79694">
        <ele>1707.9</ele>
        <time>2021-01-16T09:46:34Z</time>
      </trkpt>
      <trkpt lat="46.02863" lon="6.797">
        <ele>1708.3</ele>
        <time>2021-01-16T09:46:44Z</time>
      </trkpt>
      <trkpt lat="46.02862" lon="6.79705">
        <ele>1708.4</ele>
        <time>2021-01-16T09:46:49Z</time>
      </trkpt>
      <trkpt lat="46.02863" lon="6.797">
        <ele>1710</ele>
        <time>2021-01-16T09:47:18Z</time>
      </trkpt>
      <trkpt lat="46.02867" lon="6.79697">
        <ele>1710</ele>
        <time>2021-01-16T09:47:23Z</time>
      </trkpt>
      <trkpt lat="46.02869" lon="6.79693">
        <ele>1709.7</ele>
        <time>2021-01-16T09:47:32Z</time>
      </trkpt>
      <trkpt lat="46.0287" lon="6.79685">
        <ele>1709.7</ele>
        <time>2021-01-16T09:47:37Z</time>
      </trkpt>
      <trkpt lat="46.02873" lon="6.79683">
        <ele>1710</ele>
        <time>2021-01-16T09:47:51Z</time>
      </trkpt>
      <trkpt lat="46.02872" lon="6.79675">
        <ele>1710.4</ele>
        <time>2021-01-16T09:47:56Z</time>
      </trkpt>
      <trkpt lat="46.02871" lon="6.79669">
        <ele>1712.4</ele>
        <time>2021-01-16T09:48:05Z</time>
      </trkpt>
      <trkpt lat="46.02874" lon="6.79665">
        <ele>1712.9</ele>
        <time>2021-01-16T09:48:09Z</time>
      </trkpt>
      <trkpt lat="46.02877" lon="6.79659">
        <ele>1713.4</ele>
        <time>2021-01-16T09:48:15Z</time>
      </trkpt>
      <trkpt lat="46.02878" lon="6.79654">
        <ele>1713.7</ele>
        <time>2021-01-16T09:48:20Z</time>
      </trkpt>
      <trkpt lat="46.02882" lon="6.79652">
        <ele>1714.3</ele>
        <time>2021-01-16T09:48:29Z</time>
      </trkpt>
      <trkpt lat="46.02886" lon="6.79652">
        <ele>1714.8</ele>
        <time>2021-01-16T09:48:34Z</time>
      </trkpt>
      <trkpt lat="46.02887" lon="6.79647">
        <ele>1716.8</ele>
        <time>2021-01-16T09:48:44Z</time>
      </trkpt>
      <trkpt lat="46.02889" lon="6.79652">
        <ele>1720.4</ele>
        <time>2021-01-16T09:49:00Z</time>
      </trkpt>
      <trkpt lat="46.0289" lon="6.79659">
        <ele>1721.9</ele>
        <time>2021-01-16T09:49:05Z</time>
      </trkpt>
      <trkpt lat="46.02888" lon="6.79664">
        <ele>1724.2</ele>
        <time>2021-01-16T09:49:16Z</time>
      </trkpt>
      <trkpt lat="46.02888" lon="6.7967">
        <ele>1725.4</ele>
        <time>2021-01-16T09:49:22Z</time>
      </trkpt>
      <trkpt lat="46.02887" lon="6.79676">
        <ele>1725.9</ele>
        <time>2021-01-16T09:49:27Z</time>
      </trkpt>
      <trkpt lat="46.02887" lon="6.79682">
        <ele>1727</ele>
        <time>2021-01-16T09:49:31Z</time>
      </trkpt>
      <trkpt lat="46.02888" lon="6.79687">
        <ele>1727.9</ele>
        <time>2021-01-16T09:49:39Z</time>
      </trkpt>
      <trkpt lat="46.02888" lon="6.79694">
        <ele>1730.2</ele>
        <time>2021-01-16T09:49:50Z</time>
      </trkpt>
      <trkpt lat="46.02888" lon="6.797">
        <ele>1731.9</ele>
        <time>2021-01-16T09:49:56Z</time>
      </trkpt>
      <trkpt lat="46.02888" lon="6.79706">
        <ele>1734.3</ele>
        <time>2021-01-16T09:50:07Z</time>
      </trkpt>
      <trkpt lat="46.02889" lon="6.79712">
        <ele>1735.7</ele>
        <time>2021-01-16T09:50:15Z</time>
      </trkpt>
      <trkpt lat="46.02887" lon="6.79718">
        <ele>1736.5</ele>
        <time>2021-01-16T09:50:22Z</time>
      </trkpt>
      <trkpt lat="46.02884" lon="6.79722">
        <ele>1738.6</ele>
        <time>2021-01-16T09:50:33Z</time>
      </trkpt>
      <trkpt lat="46.02883" lon="6.79724">
        <ele>1739.5</ele>
        <time>2021-01-16T09:51:01Z</time>
      </trkpt>
      <trkpt lat="46.02886" lon="6.79733">
        <ele>1743.9</ele>
        <time>2021-01-16T09:51:05Z</time>
      </trkpt>
      <trkpt lat="46.02891" lon="6.79741">
        <ele>1744.6</ele>
        <time>2021-01-16T09:51:09Z</time>
      </trkpt>
      <trkpt lat="46.02893" lon="6.79746">
        <ele>1745.7</ele>
        <time>2021-01-16T09:51:14Z</time>
      </trkpt>
      <trkpt lat="46.02892" lon="6.79752">
        <ele>1747.1</ele>
        <time>2021-01-16T09:51:21Z</time>
      </trkpt>
      <trkpt lat="46.02889" lon="6.79755">
        <ele>1748.6</ele>
        <time>2021-01-16T09:51:27Z</time>
      </trkpt>
      <trkpt lat="46.0289" lon="6.79761">
        <ele>1750.3</ele>
        <time>2021-01-16T09:51:37Z</time>
      </trkpt>
      <trkpt lat="46.02894" lon="6.7976">
        <ele>1752.3</ele>
        <time>2021-01-16T09:52:00Z</time>
      </trkpt>
      <trkpt lat="46.02895" lon="6.79752">
        <ele>1753.1</ele>
        <time>2021-01-16T09:52:05Z</time>
      </trkpt>
      <trkpt lat="46.02897" lon="6.79749">
        <ele>1754</ele>
        <time>2021-01-16T09:52:10Z</time>
      </trkpt>
      <trkpt lat="46.02899" lon="6.79742">
        <ele>1754.7</ele>
        <time>2021-01-16T09:52:14Z</time>
      </trkpt>
      <trkpt lat="46.02895" lon="6.7974">
        <ele>1755.3</ele>
        <time>2021-01-16T09:52:20Z</time>
      </trkpt>
      <trkpt lat="46.02897" lon="6.79735">
        <ele>1756.9</ele>
        <time>2021-01-16T09:52:35Z</time>
      </trkpt>
      <trkpt lat="46.029" lon="6.79731">
        <ele>1757.8</ele>
        <time>2021-01-16T09:52:42Z</time>
      </trkpt>
      <trkpt lat="46.02905" lon="6.7973">
        <ele>1758.8</ele>
        <time>2021-01-16T09:52:50Z</time>
      </trkpt>
      <trkpt lat="46.02909" lon="6.79727">
        <ele>1759.9</ele>
        <time>2021-01-16T09:52:56Z</time>
      </trkpt>
      <trkpt lat="46.02912" lon="6.79724">
        <ele>1760.8</ele>
        <time>2021-01-16T09:53:02Z</time>
      </trkpt>
      <trkpt lat="46.02915" lon="6.79716">
        <ele>1762.2</ele>
        <time>2021-01-16T09:53:07Z</time>
      </trkpt>
      <trkpt lat="46.02914" lon="6.79711">
        <ele>1763.8</ele>
        <time>2021-01-16T09:53:21Z</time>
      </trkpt>
      <trkpt lat="46.02915" lon="6.79708">
        <ele>1764.2</ele>
        <time>2021-01-16T09:53:34Z</time>
      </trkpt>
      <trkpt lat="46.02916" lon="6.79703">
        <ele>1765.3</ele>
        <time>2021-01-16T09:53:42Z</time>
      </trkpt>
      <trkpt lat="46.02917" lon="6.79697">
        <ele>1766.8</ele>
        <time>2021-01-16T09:53:47Z</time>
      </trkpt>
      <trkpt lat="46.02917" lon="6.79697">
        <ele>1766.8</ele>
        <time>2021-01-16T09:53:54Z</time>
      </trkpt>
      <trkpt lat="46.02924" lon="6.79697">
        <ele>1768</ele>
        <time>2021-01-16T09:53:58Z</time>
      </trkpt>
      <trkpt lat="46.02926" lon="6.79701">
        <ele>1768.6</ele>
        <time>2021-01-16T09:54:03Z</time>
      </trkpt>
      <trkpt lat="46.02929" lon="6.79705">
        <ele>1769.1</ele>
        <time>2021-01-16T09:54:09Z</time>
      </trkpt>
      <trkpt lat="46.02932" lon="6.7971">
        <ele>1769.2</ele>
        <time>2021-01-16T09:54:14Z</time>
      </trkpt>
      <trkpt lat="46.02929" lon="6.79715">
        <ele>1771.7</ele>
        <time>2021-01-16T09:54:35Z</time>
      </trkpt>
      <trkpt lat="46.02931" lon="6.79722">
        <ele>1772.6</ele>
        <time>2021-01-16T09:54:40Z</time>
      </trkpt>
      <trkpt lat="46.02933" lon="6.79724">
        <ele>1774.4</ele>
        <time>2021-01-16T09:54:55Z</time>
      </trkpt>
      <trkpt lat="46.02937" lon="6.79727">
        <ele>1775.2</ele>
        <time>2021-01-16T09:54:59Z</time>
      </trkpt>
      <trkpt lat="46.02939" lon="6.79732">
        <ele>1776.2</ele>
        <time>2021-01-16T09:55:05Z</time>
      </trkpt>
      <trkpt lat="46.02943" lon="6.79736">
        <ele>1777.6</ele>
        <time>2021-01-16T09:55:17Z</time>
      </trkpt>
      <trkpt lat="46.02943" lon="6.79734">
        <ele>1777.7</ele>
        <time>2021-01-16T09:55:25Z</time>
      </trkpt>
      <trkpt lat="46.02946" lon="6.7973">
        <ele>1777.4</ele>
        <time>2021-01-16T09:55:30Z</time>
      </trkpt>
      <trkpt lat="46.02952" lon="6.79735">
        <ele>1777.3</ele>
        <time>2021-01-16T09:55:35Z</time>
      </trkpt>
      <trkpt lat="46.02954" lon="6.79741">
        <ele>1777.6</ele>
        <time>2021-01-16T09:55:42Z</time>
      </trkpt>
      <trkpt lat="46.02956" lon="6.79746">
        <ele>1777.9</ele>
        <time>2021-01-16T09:55:48Z</time>
      </trkpt>
      <trkpt lat="46.02959" lon="6.79749">
        <ele>1779.4</ele>
        <time>2021-01-16T09:56:05Z</time>
      </trkpt>
      <trkpt lat="46.02963" lon="6.79751">
        <ele>1780.7</ele>
        <time>2021-01-16T09:56:14Z</time>
      </trkpt>
      <trkpt lat="46.02966" lon="6.79756">
        <ele>1781.6</ele>
        <time>2021-01-16T09:56:22Z</time>
      </trkpt>
      <trkpt lat="46.02968" lon="6.7976">
        <ele>1782.7</ele>
        <time>2021-01-16T09:56:29Z</time>
      </trkpt>
      <trkpt lat="46.0297" lon="6.79765">
        <ele>1783.5</ele>
        <time>2021-01-16T09:56:35Z</time>
      </trkpt>
      <trkpt lat="46.02971" lon="6.79771">
        <ele>1784.1</ele>
        <time>2021-01-16T09:56:40Z</time>
      </trkpt>
      <trkpt lat="46.02974" lon="6.79776">
        <ele>1784.8</ele>
        <time>2021-01-16T09:56:48Z</time>
      </trkpt>
      <trkpt lat="46.02978" lon="6.79774">
        <ele>1786.3</ele>
        <time>2021-01-16T09:57:00Z</time>
      </trkpt>
      <trkpt lat="46.0298" lon="6.7978">
        <ele>1787</ele>
        <time>2021-01-16T09:57:10Z</time>
      </trkpt>
      <trkpt lat="46.02987" lon="6.7979">
        <ele>1786.6</ele>
        <time>2021-01-16T09:57:15Z</time>
      </trkpt>
      <trkpt lat="46.02987" lon="6.79795">
        <ele>1787.1</ele>
        <time>2021-01-16T09:57:19Z</time>
      </trkpt>
      <trkpt lat="46.02988" lon="6.79801">
        <ele>1789</ele>
        <time>2021-01-16T09:57:36Z</time>
      </trkpt>
      <trkpt lat="46.02988" lon="6.79806">
        <ele>1790</ele>
        <time>2021-01-16T09:57:45Z</time>
      </trkpt>
      <trkpt lat="46.02991" lon="6.79809">
        <ele>1790.6</ele>
        <time>2021-01-16T09:57:54Z</time>
      </trkpt>
      <trkpt lat="46.02992" lon="6.79815">
        <ele>1791.3</ele>
        <time>2021-01-16T09:58:06Z</time>
      </trkpt>
      <trkpt lat="46.0299" lon="6.7982">
        <ele>1793.6</ele>
        <time>2021-01-16T09:58:24Z</time>
      </trkpt>
      <trkpt lat="46.02995" lon="6.79819">
        <ele>1799.9</ele>
        <time>2021-01-16T09:58:52Z</time>
      </trkpt>
      <trkpt lat="46.02995" lon="6.79818">
        <ele>1800</ele>
        <time>2021-01-16T09:59:00Z</time>
      </trkpt>
      <trkpt lat="46.02997" lon="6.7981">
        <ele>1801.2</ele>
        <time>2021-01-16T09:59:04Z</time>
      </trkpt>
      <trkpt lat="46.02996" lon="6.79801">
        <ele>1803</ele>
        <time>2021-01-16T09:59:09Z</time>
      </trkpt>
      <trkpt lat="46.02994" lon="6.79796">
        <ele>1804.3</ele>
        <time>2021-01-16T09:59:13Z</time>
      </trkpt>
      <trkpt lat="46.02995" lon="6.7979">
        <ele>1805.2</ele>
        <time>2021-01-16T09:59:18Z</time>
      </trkpt>
      <trkpt lat="46.02998" lon="6.79787">
        <ele>1806</ele>
        <time>2021-01-16T09:59:22Z</time>
      </trkpt>
      <trkpt lat="46.02997" lon="6.79781">
        <ele>1807</ele>
        <time>2021-01-16T09:59:26Z</time>
      </trkpt>
      <trkpt lat="46.02998" lon="6.79775">
        <ele>1808.1</ele>
        <time>2021-01-16T09:59:31Z</time>
      </trkpt>
      <trkpt lat="46.03001" lon="6.79772">
        <ele>1808.6</ele>
        <time>2021-01-16T09:59:35Z</time>
      </trkpt>
      <trkpt lat="46.03002" lon="6.79767">
        <ele>1809.9</ele>
        <time>2021-01-16T09:59:52Z</time>
      </trkpt>
      <trkpt lat="46.03002" lon="6.79762">
        <ele>1810.4</ele>
        <time>2021-01-16T09:59:57Z</time>
      </trkpt>
      <trkpt lat="46.03" lon="6.79755">
        <ele>1811.1</ele>
        <time>2021-01-16T10:00:02Z</time>
      </trkpt>
      <trkpt lat="46.03002" lon="6.7975">
        <ele>1811.5</ele>
        <time>2021-01-16T10:00:07Z</time>
      </trkpt>
      <trkpt lat="46.03004" lon="6.79747">
        <ele>1812.1</ele>
        <time>2021-01-16T10:00:12Z</time>
      </trkpt>
      <trkpt lat="46.03001" lon="6.7974">
        <ele>1813</ele>
        <time>2021-01-16T10:00:17Z</time>
      </trkpt>
      <trkpt lat="46.02999" lon="6.79736">
        <ele>1813.3</ele>
        <time>2021-01-16T10:00:22Z</time>
      </trkpt>
      <trkpt lat="46.02999" lon="6.7973">
        <ele>1814</ele>
        <time>2021-01-16T10:00:27Z</time>
      </trkpt>
      <trkpt lat="46.03001" lon="6.79724">
        <ele>1814.7</ele>
        <time>2021-01-16T10:00:34Z</time>
      </trkpt>
      <trkpt lat="46.02998" lon="6.79721">
        <ele>1816.2</ele>
        <time>2021-01-16T10:00:57Z</time>
      </trkpt>
      <trkpt lat="46.03002" lon="6.79709">
        <ele>1818.4</ele>
        <time>2021-01-16T10:01:02Z</time>
      </trkpt>
      <trkpt lat="46.03006" lon="6.79707">
        <ele>1818.9</ele>
        <time>2021-01-16T10:01:10Z</time>
      </trkpt>
      <trkpt lat="46.03005" lon="6.79702">
        <ele>1819</ele>
        <time>2021-01-16T10:01:17Z</time>
      </trkpt>
      <trkpt lat="46.03001" lon="6.79698">
        <ele>1819</ele>
        <time>2021-01-16T10:01:22Z</time>
      </trkpt>
      <trkpt lat="46.02999" lon="6.79694">
        <ele>1818.9</ele>
        <time>2021-01-16T10:01:26Z</time>
      </trkpt>
      <trkpt lat="46.02997" lon="6.79689">
        <ele>1819.5</ele>
        <time>2021-01-16T10:01:32Z</time>
      </trkpt>
      <trkpt lat="46.02995" lon="6.79684">
        <ele>1820.1</ele>
        <time>2021-01-16T10:01:37Z</time>
      </trkpt>
      <trkpt lat="46.02992" lon="6.79679">
        <ele>1820.2</ele>
        <time>2021-01-16T10:01:43Z</time>
      </trkpt>
      <trkpt lat="46.02991" lon="6.79673">
        <ele>1820.5</ele>
        <time>2021-01-16T10:01:54Z</time>
      </trkpt>
      <trkpt lat="46.02989" lon="6.79668">
        <ele>1821.1</ele>
        <time>2021-01-16T10:02:08Z</time>
      </trkpt>
      <trkpt lat="46.02985" lon="6.79664">
        <ele>1821.1</ele>
        <time>2021-01-16T10:02:13Z</time>
      </trkpt>
      <trkpt lat="46.02983" lon="6.7966">
        <ele>1821.2</ele>
        <time>2021-01-16T10:02:20Z</time>
      </trkpt>
      <trkpt lat="46.02985" lon="6.79654">
        <ele>1821.4</ele>
        <time>2021-01-16T10:02:28Z</time>
      </trkpt>
      <trkpt lat="46.02988" lon="6.7965">
        <ele>1821.4</ele>
        <time>2021-01-16T10:02:36Z</time>
      </trkpt>
      <trkpt lat="46.02991" lon="6.79645">
        <ele>1821.5</ele>
        <time>2021-01-16T10:02:48Z</time>
      </trkpt>
      <trkpt lat="46.02995" lon="6.79646">
        <ele>1821.5</ele>
        <time>2021-01-16T10:02:57Z</time>
      </trkpt>
      <trkpt lat="46.02999" lon="6.79644">
        <ele>1821.9</ele>
        <time>2021-01-16T10:03:05Z</time>
      </trkpt>
      <trkpt lat="46.03" lon="6.79639">
        <ele>1822.6</ele>
        <time>2021-01-16T10:03:12Z</time>
      </trkpt>
      <trkpt lat="46.03002" lon="6.79633">
        <ele>1824.1</ele>
        <time>2021-01-16T10:03:28Z</time>
      </trkpt>
      <trkpt lat="46.03004" lon="6.79627">
        <ele>1824.7</ele>
        <time>2021-01-16T10:03:44Z</time>
      </trkpt>
      <trkpt lat="46.03008" lon="6.79627">
        <ele>1826.2</ele>
        <time>2021-01-16T10:04:46Z</time>
      </trkpt>
      <trkpt lat="46.03007" lon="6.79632">
        <ele>1824.6</ele>
        <time>2021-01-16T10:08:24Z</time>
      </trkpt>
      <trkpt lat="46.03011" lon="6.79635">
        <ele>1828</ele>
        <time>2021-01-16T10:09:21Z</time>
      </trkpt>
      <trkpt lat="46.03013" lon="6.79639">
        <ele>1828</ele>
        <time>2021-01-16T10:09:25Z</time>
      </trkpt>
      <trkpt lat="46.03016" lon="6.79643">
        <ele>1828.1</ele>
        <time>2021-01-16T10:09:31Z</time>
      </trkpt>
      <trkpt lat="46.03019" lon="6.79647">
        <ele>1828.1</ele>
        <time>2021-01-16T10:09:36Z</time>
      </trkpt>
      <trkpt lat="46.03021" lon="6.79653">
        <ele>1828.1</ele>
        <time>2021-01-16T10:09:44Z</time>
      </trkpt>
      <trkpt lat="46.03024" lon="6.79658">
        <ele>1828.2</ele>
        <time>2021-01-16T10:09:55Z</time>
      </trkpt>
      <trkpt lat="46.03027" lon="6.79666">
        <ele>1828.3</ele>
        <time>2021-01-16T10:10:00Z</time>
      </trkpt>
      <trkpt lat="46.03025" lon="6.79672">
        <ele>1828.6</ele>
        <time>2021-01-16T10:10:15Z</time>
      </trkpt>
      <trkpt lat="46.03024" lon="6.79677">
        <ele>1828.8</ele>
        <time>2021-01-16T10:10:24Z</time>
      </trkpt>
      <trkpt lat="46.03024" lon="6.79683">
        <ele>1829.3</ele>
        <time>2021-01-16T10:10:55Z</time>
      </trkpt>
      <trkpt lat="46.0303" lon="6.79692">
        <ele>1830.3</ele>
        <time>2021-01-16T10:10:59Z</time>
      </trkpt>
      <trkpt lat="46.03033" lon="6.7969">
        <ele>1831.2</ele>
        <time>2021-01-16T10:11:20Z</time>
      </trkpt>
      <trkpt lat="46.03037" lon="6.7969">
        <ele>1831.4</ele>
        <time>2021-01-16T10:11:48Z</time>
      </trkpt>
      <trkpt lat="46.03041" lon="6.79689">
        <ele>1831.5</ele>
        <time>2021-01-16T10:11:53Z</time>
      </trkpt>
      <trkpt lat="46.03046" lon="6.7969">
        <ele>1832.2</ele>
        <time>2021-01-16T10:12:32Z</time>
      </trkpt>
      <trkpt lat="46.03048" lon="6.79697">
        <ele>1833.1</ele>
        <time>2021-01-16T10:12:36Z</time>
      </trkpt>
      <trkpt lat="46.03049" lon="6.79702">
        <ele>1833.6</ele>
        <time>2021-01-16T10:12:43Z</time>
      </trkpt>
      <trkpt lat="46.03051" lon="6.79708">
        <ele>1834.6</ele>
        <time>2021-01-16T10:12:55Z</time>
      </trkpt>
      <trkpt lat="46.03053" lon="6.79711">
        <ele>1835.1</ele>
        <time>2021-01-16T10:12:59Z</time>
      </trkpt>
      <trkpt lat="46.03056" lon="6.79714">
        <ele>1835.5</ele>
        <time>2021-01-16T10:13:04Z</time>
      </trkpt>
      <trkpt lat="46.03057" lon="6.79718">
        <ele>1837.1</ele>
        <time>2021-01-16T10:13:24Z</time>
      </trkpt>
      <trkpt lat="46.03062" lon="6.7972">
        <ele>1838.1</ele>
        <time>2021-01-16T10:13:29Z</time>
      </trkpt>
      <trkpt lat="46.03064" lon="6.79724">
        <ele>1838.3</ele>
        <time>2021-01-16T10:13:34Z</time>
      </trkpt>
      <trkpt lat="46.03066" lon="6.79731">
        <ele>1838.6</ele>
        <time>2021-01-16T10:13:39Z</time>
      </trkpt>
      <trkpt lat="46.03066" lon="6.79737">
        <ele>1839</ele>
        <time>2021-01-16T10:13:48Z</time>
      </trkpt>
      <trkpt lat="46.03068" lon="6.79741">
        <ele>1839.5</ele>
        <time>2021-01-16T10:14:06Z</time>
      </trkpt>
      <trkpt lat="46.03071" lon="6.79749">
        <ele>1840.8</ele>
        <time>2021-01-16T10:14:10Z</time>
      </trkpt>
      <trkpt lat="46.03074" lon="6.79754">
        <ele>1841.7</ele>
        <time>2021-01-16T10:14:34Z</time>
      </trkpt>
      <trkpt lat="46.03076" lon="6.79759">
        <ele>1841.8</ele>
        <time>2021-01-16T10:14:43Z</time>
      </trkpt>
      <trkpt lat="46.03079" lon="6.79763">
        <ele>1841.8</ele>
        <time>2021-01-16T10:14:51Z</time>
      </trkpt>
      <trkpt lat="46.03081" lon="6.79766">
        <ele>1841.9</ele>
        <time>2021-01-16T10:15:27Z</time>
      </trkpt>
      <trkpt lat="46.03084" lon="6.7977">
        <ele>1842.3</ele>
        <time>2021-01-16T10:15:43Z</time>
      </trkpt>
      <trkpt lat="46.03088" lon="6.79774">
        <ele>1842.6</ele>
        <time>2021-01-16T10:15:48Z</time>
      </trkpt>
      <trkpt lat="46.0309" lon="6.7978">
        <ele>1842.6</ele>
        <time>2021-01-16T10:16:02Z</time>
      </trkpt>
      <trkpt lat="46.03092" lon="6.79784">
        <ele>1842.6</ele>
        <time>2021-01-16T10:16:09Z</time>
      </trkpt>
      <trkpt lat="46.03095" lon="6.79788">
        <ele>1842.6</ele>
        <time>2021-01-16T10:16:14Z</time>
      </trkpt>
      <trkpt lat="46.03097" lon="6.79792">
        <ele>1842.7</ele>
        <time>2021-01-16T10:16:32Z</time>
      </trkpt>
      <trkpt lat="46.03102" lon="6.79796">
        <ele>1842.8</ele>
        <time>2021-01-16T10:16:36Z</time>
      </trkpt>
      <trkpt lat="46.03105" lon="6.798">
        <ele>1843</ele>
        <time>2021-01-16T10:16:47Z</time>
      </trkpt>
      <trkpt lat="46.0311" lon="6.79801">
        <ele>1843.2</ele>
        <time>2021-01-16T10:17:12Z</time>
      </trkpt>
      <trkpt lat="46.03112" lon="6.79802">
        <ele>1843.3</ele>
        <time>2021-01-16T10:17:51Z</time>
      </trkpt>
      <trkpt lat="46.03115" lon="6.7981">
        <ele>1843.4</ele>
        <time>2021-01-16T10:17:56Z</time>
      </trkpt>
      <trkpt lat="46.03118" lon="6.79813">
        <ele>1843.5</ele>
        <time>2021-01-16T10:18:10Z</time>
      </trkpt>
      <trkpt lat="46.03121" lon="6.79815">
        <ele>1843.7</ele>
        <time>2021-01-16T10:18:38Z</time>
      </trkpt>
      <trkpt lat="46.03127" lon="6.79831">
        <ele>1843.9</ele>
        <time>2021-01-16T10:18:42Z</time>
      </trkpt>
      <trkpt lat="46.03127" lon="6.79831">
        <ele>1843.9</ele>
        <time>2021-01-16T10:18:46Z</time>
      </trkpt>
      <trkpt lat="46.03134" lon="6.79838">
        <ele>1844.5</ele>
        <time>2021-01-16T10:18:51Z</time>
      </trkpt>
      <trkpt lat="46.03131" lon="6.79835">
        <ele>1845.5</ele>
        <time>2021-01-16T10:19:04Z</time>
      </trkpt>
      <trkpt lat="46.03131" lon="6.79829">
        <ele>1846.7</ele>
        <time>2021-01-16T10:19:22Z</time>
      </trkpt>
      <trkpt lat="46.03129" lon="6.79823">
        <ele>1847.1</ele>
        <time>2021-01-16T10:19:28Z</time>
      </trkpt>
      <trkpt lat="46.03126" lon="6.79816">
        <ele>1847.6</ele>
        <time>2021-01-16T10:19:33Z</time>
      </trkpt>
      <trkpt lat="46.03124" lon="6.7981">
        <ele>1848.6</ele>
        <time>2021-01-16T10:19:44Z</time>
      </trkpt>
      <trkpt lat="46.03124" lon="6.79804">
        <ele>1848.9</ele>
        <time>2021-01-16T10:19:51Z</time>
      </trkpt>
      <trkpt lat="46.03124" lon="6.79799">
        <ele>1849.4</ele>
        <time>2021-01-16T10:19:59Z</time>
      </trkpt>
      <trkpt lat="46.03122" lon="6.79794">
        <ele>1849.7</ele>
        <time>2021-01-16T10:20:11Z</time>
      </trkpt>
      <trkpt lat="46.03121" lon="6.79787">
        <ele>1850.2</ele>
        <time>2021-01-16T10:20:16Z</time>
      </trkpt>
      <trkpt lat="46.03119" lon="6.79782">
        <ele>1851.1</ele>
        <time>2021-01-16T10:20:26Z</time>
      </trkpt>
      <trkpt lat="46.0312" lon="6.79776">
        <ele>1851.5</ele>
        <time>2021-01-16T10:20:32Z</time>
      </trkpt>
      <trkpt lat="46.03119" lon="6.7977">
        <ele>1852.8</ele>
        <time>2021-01-16T10:20:46Z</time>
      </trkpt>
      <trkpt lat="46.0312" lon="6.79764">
        <ele>1853.7</ele>
        <time>2021-01-16T10:20:54Z</time>
      </trkpt>
      <trkpt lat="46.03121" lon="6.79757">
        <ele>1854.4</ele>
        <time>2021-01-16T10:21:06Z</time>
      </trkpt>
      <trkpt lat="46.03121" lon="6.79756">
        <ele>1854.6</ele>
        <time>2021-01-16T10:21:24Z</time>
      </trkpt>
      <trkpt lat="46.03113" lon="6.79761">
        <ele>1856.8</ele>
        <time>2021-01-16T10:21:28Z</time>
      </trkpt>
      <trkpt lat="46.03111" lon="6.79756">
        <ele>1856.9</ele>
        <time>2021-01-16T10:21:36Z</time>
      </trkpt>
      <trkpt lat="46.03111" lon="6.79749">
        <ele>1856.9</ele>
        <time>2021-01-16T10:21:40Z</time>
      </trkpt>
      <trkpt lat="46.03115" lon="6.79746">
        <ele>1858.1</ele>
        <time>2021-01-16T10:21:49Z</time>
      </trkpt>
      <trkpt lat="46.03119" lon="6.79748">
        <ele>1859.1</ele>
        <time>2021-01-16T10:22:00Z</time>
      </trkpt>
      <trkpt lat="46.03118" lon="6.79741">
        <ele>1859.7</ele>
        <time>2021-01-16T10:22:25Z</time>
      </trkpt>
      <trkpt lat="46.03117" lon="6.79736">
        <ele>1859.6</ele>
        <time>2021-01-16T10:22:30Z</time>
      </trkpt>
      <trkpt lat="46.03117" lon="6.7973">
        <ele>1859.6</ele>
        <time>2021-01-16T10:22:36Z</time>
      </trkpt>
      <trkpt lat="46.03116" lon="6.79725">
        <ele>1859.5</ele>
        <time>2021-01-16T10:22:43Z</time>
      </trkpt>
      <trkpt lat="46.03114" lon="6.7972">
        <ele>1859.6</ele>
        <time>2021-01-16T10:22:50Z</time>
      </trkpt>
      <trkpt lat="46.03116" lon="6.79714">
        <ele>1860</ele>
        <time>2021-01-16T10:22:59Z</time>
      </trkpt>
      <trkpt lat="46.03113" lon="6.79709">
        <ele>1860.6</ele>
        <time>2021-01-16T10:23:04Z</time>
      </trkpt>
      <trkpt lat="46.03113" lon="6.79703">
        <ele>1861.2</ele>
        <time>2021-01-16T10:23:15Z</time>
      </trkpt>
      <trkpt lat="46.03118" lon="6.79699">
        <ele>1862.4</ele>
        <time>2021-01-16T10:23:20Z</time>
      </trkpt>
      <trkpt lat="46.03119" lon="6.79697">
        <ele>1863.7</ele>
        <time>2021-01-16T10:23:51Z</time>
      </trkpt>
      <trkpt lat="46.03124" lon="6.79697">
        <ele>1864.2</ele>
        <time>2021-01-16T10:23:55Z</time>
      </trkpt>
      <trkpt lat="46.03125" lon="6.79702">
        <ele>1864.4</ele>
        <time>2021-01-16T10:24:02Z</time>
      </trkpt>
      <trkpt lat="46.03127" lon="6.79709">
        <ele>1864.7</ele>
        <time>2021-01-16T10:24:07Z</time>
      </trkpt>
      <trkpt lat="46.0313" lon="6.79712">
        <ele>1865</ele>
        <time>2021-01-16T10:24:11Z</time>
      </trkpt>
      <trkpt lat="46.03134" lon="6.79714">
        <ele>1865.4</ele>
        <time>2021-01-16T10:24:17Z</time>
      </trkpt>
      <trkpt lat="46.03138" lon="6.79718">
        <ele>1865.8</ele>
        <time>2021-01-16T10:24:24Z</time>
      </trkpt>
      <trkpt lat="46.03141" lon="6.79722">
        <ele>1866.6</ele>
        <time>2021-01-16T10:24:35Z</time>
      </trkpt>
      <trkpt lat="46.03144" lon="6.79728">
        <ele>1867.3</ele>
        <time>2021-01-16T10:24:44Z</time>
      </trkpt>
      <trkpt lat="46.03146" lon="6.79731">
        <ele>1867.9</ele>
        <time>2021-01-16T10:25:12Z</time>
      </trkpt>
      <trkpt lat="46.03151" lon="6.79732">
        <ele>1868.7</ele>
        <time>2021-01-16T10:25:17Z</time>
      </trkpt>
      <trkpt lat="46.03152" lon="6.79738">
        <ele>1869</ele>
        <time>2021-01-16T10:25:23Z</time>
      </trkpt>
      <trkpt lat="46.03154" lon="6.79744">
        <ele>1869.6</ele>
        <time>2021-01-16T10:25:28Z</time>
      </trkpt>
      <trkpt lat="46.03157" lon="6.79749">
        <ele>1871</ele>
        <time>2021-01-16T10:25:35Z</time>
      </trkpt>
      <trkpt lat="46.0316" lon="6.79753">
        <ele>1871.6</ele>
        <time>2021-01-16T10:25:41Z</time>
      </trkpt>
      <trkpt lat="46.03163" lon="6.79757">
        <ele>1872.6</ele>
        <time>2021-01-16T10:25:47Z</time>
      </trkpt>
      <trkpt lat="46.03161" lon="6.79756">
        <ele>1873.8</ele>
        <time>2021-01-16T10:27:21Z</time>
      </trkpt>
      <trkpt lat="46.03152" lon="6.79752">
        <ele>1877.9</ele>
        <time>2021-01-16T10:27:25Z</time>
      </trkpt>
      <trkpt lat="46.03156" lon="6.79751">
        <ele>1881.7</ele>
        <time>2021-01-16T10:28:02Z</time>
      </trkpt>
      <trkpt lat="46.03159" lon="6.79752">
        <ele>1885</ele>
        <time>2021-01-16T10:28:14Z</time>
      </trkpt>
      <trkpt lat="46.03164" lon="6.79754">
        <ele>1886.6</ele>
        <time>2021-01-16T10:28:22Z</time>
      </trkpt>
      <trkpt lat="46.03167" lon="6.79755">
        <ele>1887.5</ele>
        <time>2021-01-16T10:28:33Z</time>
      </trkpt>
      <trkpt lat="46.03169" lon="6.79755">
        <ele>1887.8</ele>
        <time>2021-01-16T10:28:43Z</time>
      </trkpt>
      <trkpt lat="46.03173" lon="6.79755">
        <ele>1889.9</ele>
        <time>2021-01-16T10:28:47Z</time>
      </trkpt>
      <trkpt lat="46.03177" lon="6.79757">
        <ele>1891.6</ele>
        <time>2021-01-16T10:28:57Z</time>
      </trkpt>
      <trkpt lat="46.03181" lon="6.79757">
        <ele>1893.4</ele>
        <time>2021-01-16T10:29:06Z</time>
      </trkpt>
      <trkpt lat="46.03184" lon="6.79756">
        <ele>1894.3</ele>
        <time>2021-01-16T10:29:34Z</time>
      </trkpt>
      <trkpt lat="46.03185" lon="6.79762">
        <ele>1895.5</ele>
        <time>2021-01-16T10:29:40Z</time>
      </trkpt>
      <trkpt lat="46.03192" lon="6.7976">
        <ele>1896.3</ele>
        <time>2021-01-16T10:29:45Z</time>
      </trkpt>
      <trkpt lat="46.03195" lon="6.7976">
        <ele>1897.2</ele>
        <time>2021-01-16T10:29:53Z</time>
      </trkpt>
      <trkpt lat="46.03198" lon="6.79762">
        <ele>1897.9</ele>
        <time>2021-01-16T10:30:02Z</time>
      </trkpt>
      <trkpt lat="46.03199" lon="6.79772">
        <ele>1899.2</ele>
        <time>2021-01-16T10:30:07Z</time>
      </trkpt>
      <trkpt lat="46.03202" lon="6.79777">
        <ele>1899.8</ele>
        <time>2021-01-16T10:30:12Z</time>
      </trkpt>
      <trkpt lat="46.03204" lon="6.79782">
        <ele>1900.6</ele>
        <time>2021-01-16T10:30:18Z</time>
      </trkpt>
      <trkpt lat="46.03208" lon="6.79784">
        <ele>1901.7</ele>
        <time>2021-01-16T10:30:27Z</time>
      </trkpt>
      <trkpt lat="46.03212" lon="6.79786">
        <ele>1902.5</ele>
        <time>2021-01-16T10:30:46Z</time>
      </trkpt>
      <trkpt lat="46.03214" lon="6.7979">
        <ele>1902.8</ele>
        <time>2021-01-16T10:30:52Z</time>
      </trkpt>
      <trkpt lat="46.03212" lon="6.79797">
        <ele>1903.3</ele>
        <time>2021-01-16T10:30:57Z</time>
      </trkpt>
      <trkpt lat="46.03216" lon="6.79798">
        <ele>1904.8</ele>
        <time>2021-01-16T10:31:09Z</time>
      </trkpt>
      <trkpt lat="46.03219" lon="6.79802">
        <ele>1905.9</ele>
        <time>2021-01-16T10:31:16Z</time>
      </trkpt>
      <trkpt lat="46.03216" lon="6.79799">
        <ele>1907.4</ele>
        <time>2021-01-16T10:31:27Z</time>
      </trkpt>
      <trkpt lat="46.03213" lon="6.79796">
        <ele>1908.7</ele>
        <time>2021-01-16T10:31:31Z</time>
      </trkpt>
      <trkpt lat="46.03214" lon="6.79791">
        <ele>1911.6</ele>
        <time>2021-01-16T10:31:39Z</time>
      </trkpt>
      <trkpt lat="46.03217" lon="6.79787">
        <ele>1913.2</ele>
        <time>2021-01-16T10:31:45Z</time>
      </trkpt>
      <trkpt lat="46.03221" lon="6.79788">
        <ele>1915</ele>
        <time>2021-01-16T10:31:52Z</time>
      </trkpt>
      <trkpt lat="46.03226" lon="6.7979">
        <ele>1917.4</ele>
        <time>2021-01-16T10:31:56Z</time>
      </trkpt>
      <trkpt lat="46.03229" lon="6.79795">
        <ele>1922.9</ele>
        <time>2021-01-16T10:32:31Z</time>
      </trkpt>
      <trkpt lat="46.03235" lon="6.79796">
        <ele>1923.2</ele>
        <time>2021-01-16T10:32:36Z</time>
      </trkpt>
      <trkpt lat="46.03241" lon="6.79797">
        <ele>1923.6</ele>
        <time>2021-01-16T10:32:41Z</time>
      </trkpt>
      <trkpt lat="46.03245" lon="6.798">
        <ele>1924.6</ele>
        <time>2021-01-16T10:32:50Z</time>
      </trkpt>
      <trkpt lat="46.03247" lon="6.79806">
        <ele>1925.8</ele>
        <time>2021-01-16T10:32:59Z</time>
      </trkpt>
      <trkpt lat="46.0325" lon="6.79804">
        <ele>1927.4</ele>
        <time>2021-01-16T10:33:25Z</time>
      </trkpt>
      <trkpt lat="46.03254" lon="6.79808">
        <ele>1927.7</ele>
        <time>2021-01-16T10:33:30Z</time>
      </trkpt>
      <trkpt lat="46.03258" lon="6.79811">
        <ele>1928</ele>
        <time>2021-01-16T10:33:34Z</time>
      </trkpt>
      <trkpt lat="46.03262" lon="6.79811">
        <ele>1928.7</ele>
        <time>2021-01-16T10:33:40Z</time>
      </trkpt>
      <trkpt lat="46.03266" lon="6.7981">
        <ele>1929.4</ele>
        <time>2021-01-16T10:33:47Z</time>
      </trkpt>
      <trkpt lat="46.0327" lon="6.79814">
        <ele>1930.1</ele>
        <time>2021-01-16T10:33:53Z</time>
      </trkpt>
      <trkpt lat="46.03272" lon="6.79817">
        <ele>1930.5</ele>
        <time>2021-01-16T10:33:58Z</time>
      </trkpt>
      <trkpt lat="46.03273" lon="6.79823">
        <ele>1931.2</ele>
        <time>2021-01-16T10:34:04Z</time>
      </trkpt>
      <trkpt lat="46.03273" lon="6.79829">
        <ele>1931.7</ele>
        <time>2021-01-16T10:34:09Z</time>
      </trkpt>
      <trkpt lat="46.03274" lon="6.79837">
        <ele>1932.3</ele>
        <time>2021-01-16T10:34:13Z</time>
      </trkpt>
      <trkpt lat="46.03275" lon="6.79843">
        <ele>1934</ele>
        <time>2021-01-16T10:34:26Z</time>
      </trkpt>
      <trkpt lat="46.03275" lon="6.79849">
        <ele>1935.3</ele>
        <time>2021-01-16T10:34:34Z</time>
      </trkpt>
      <trkpt lat="46.03278" lon="6.79853">
        <ele>1936.1</ele>
        <time>2021-01-16T10:34:41Z</time>
      </trkpt>
      <trkpt lat="46.03278" lon="6.79859">
        <ele>1936.8</ele>
        <time>2021-01-16T10:34:51Z</time>
      </trkpt>
      <trkpt lat="46.03278" lon="6.79865">
        <ele>1937.8</ele>
        <time>2021-01-16T10:34:57Z</time>
      </trkpt>
      <trkpt lat="46.03277" lon="6.7987">
        <ele>1939.6</ele>
        <time>2021-01-16T10:35:06Z</time>
      </trkpt>
      <trkpt lat="46.03277" lon="6.79877">
        <ele>1942.5</ele>
        <time>2021-01-16T10:35:14Z</time>
      </trkpt>
      <trkpt lat="46.03281" lon="6.79879">
        <ele>1945.4</ele>
        <time>2021-01-16T10:35:37Z</time>
      </trkpt>
      <trkpt lat="46.03286" lon="6.79878">
        <ele>1946.8</ele>
        <time>2021-01-16T10:35:41Z</time>
      </trkpt>
      <trkpt lat="46.03287" lon="6.79872">
        <ele>1949.3</ele>
        <time>2021-01-16T10:36:08Z</time>
      </trkpt>
      <trkpt lat="46.0329" lon="6.79871">
        <ele>1951.2</ele>
        <time>2021-01-16T10:36:15Z</time>
      </trkpt>
      <trkpt lat="46.03294" lon="6.79872">
        <ele>1953.7</ele>
        <time>2021-01-16T10:36:22Z</time>
      </trkpt>
      <trkpt lat="46.03298" lon="6.79876">
        <ele>1959.2</ele>
        <time>2021-01-16T10:36:46Z</time>
      </trkpt>
      <trkpt lat="46.03301" lon="6.79877">
        <ele>1959.4</ele>
        <time>2021-01-16T10:37:00Z</time>
      </trkpt>
      <trkpt lat="46.03305" lon="6.79884">
        <ele>1959.9</ele>
        <time>2021-01-16T10:37:05Z</time>
      </trkpt>
      <trkpt lat="46.03304" lon="6.7989">
        <ele>1961.6</ele>
        <time>2021-01-16T10:38:05Z</time>
      </trkpt>
      <trkpt lat="46.03307" lon="6.79893">
        <ele>1963.7</ele>
        <time>2021-01-16T10:38:11Z</time>
      </trkpt>
      <trkpt lat="46.03309" lon="6.79897">
        <ele>1963.9</ele>
        <time>2021-01-16T10:38:15Z</time>
      </trkpt>
      <trkpt lat="46.03313" lon="6.79899">
        <ele>1964</ele>
        <time>2021-01-16T10:38:20Z</time>
      </trkpt>
      <trkpt lat="46.03317" lon="6.79901">
        <ele>1964.3</ele>
        <time>2021-01-16T10:38:26Z</time>
      </trkpt>
      <trkpt lat="46.03322" lon="6.79901">
        <ele>1964.6</ele>
        <time>2021-01-16T10:38:31Z</time>
      </trkpt>
      <trkpt lat="46.0332" lon="6.79906">
        <ele>1965.8</ele>
        <time>2021-01-16T10:38:57Z</time>
      </trkpt>
      <trkpt lat="46.03324" lon="6.79898">
        <ele>1966.7</ele>
        <time>2021-01-16T10:39:01Z</time>
      </trkpt>
      <trkpt lat="46.03327" lon="6.79895">
        <ele>1967.1</ele>
        <time>2021-01-16T10:39:14Z</time>
      </trkpt>
      <trkpt lat="46.03332" lon="6.79897">
        <ele>1967.6</ele>
        <time>2021-01-16T10:40:07Z</time>
      </trkpt>
      <trkpt lat="46.03334" lon="6.79907">
        <ele>1969.2</ele>
        <time>2021-01-16T10:40:11Z</time>
      </trkpt>
      <trkpt lat="46.03336" lon="6.79912">
        <ele>1972.5</ele>
        <time>2021-01-16T10:41:35Z</time>
      </trkpt>
      <trkpt lat="46.03339" lon="6.79909">
        <ele>1972.9</ele>
        <time>2021-01-16T10:41:41Z</time>
      </trkpt>
      <trkpt lat="46.03343" lon="6.79907">
        <ele>1973.3</ele>
        <time>2021-01-16T10:41:48Z</time>
      </trkpt>
      <trkpt lat="46.03346" lon="6.79911">
        <ele>1973.9</ele>
        <time>2021-01-16T10:41:55Z</time>
      </trkpt>
      <trkpt lat="46.03348" lon="6.79916">
        <ele>1974.4</ele>
        <time>2021-01-16T10:42:00Z</time>
      </trkpt>
      <trkpt lat="46.0335" lon="6.79922">
        <ele>1975.3</ele>
        <time>2021-01-16T10:42:08Z</time>
      </trkpt>
      <trkpt lat="46.03354" lon="6.79924">
        <ele>1976.5</ele>
        <time>2021-01-16T10:42:16Z</time>
      </trkpt>
      <trkpt lat="46.03358" lon="6.79921">
        <ele>1977.1</ele>
        <time>2021-01-16T10:42:20Z</time>
      </trkpt>
      <trkpt lat="46.03362" lon="6.79919">
        <ele>1978.5</ele>
        <time>2021-01-16T10:42:29Z</time>
      </trkpt>
      <trkpt lat="46.03366" lon="6.79923">
        <ele>1979.2</ele>
        <time>2021-01-16T10:42:34Z</time>
      </trkpt>
      <trkpt lat="46.03368" lon="6.79927">
        <ele>1980.2</ele>
        <time>2021-01-16T10:42:39Z</time>
      </trkpt>
      <trkpt lat="46.03369" lon="6.79933">
        <ele>1981.5</ele>
        <time>2021-01-16T10:42:44Z</time>
      </trkpt>
      <trkpt lat="46.03369" lon="6.79939">
        <ele>1982.7</ele>
        <time>2021-01-16T10:42:49Z</time>
      </trkpt>
      <trkpt lat="46.03369" lon="6.79945">
        <ele>1984.8</ele>
        <time>2021-01-16T10:42:55Z</time>
      </trkpt>
      <trkpt lat="46.03371" lon="6.7995">
        <ele>1987.3</ele>
        <time>2021-01-16T10:43:05Z</time>
      </trkpt>
      <trkpt lat="46.03375" lon="6.79952">
        <ele>1989.7</ele>
        <time>2021-01-16T10:43:14Z</time>
      </trkpt>
      <trkpt lat="46.03379" lon="6.79956">
        <ele>1989.1</ele>
        <time>2021-01-16T10:43:18Z</time>
      </trkpt>
      <trkpt lat="46.03383" lon="6.7996">
        <ele>1989.1</ele>
        <time>2021-01-16T10:43:23Z</time>
      </trkpt>
      <trkpt lat="46.03383" lon="6.79965">
        <ele>1989.4</ele>
        <time>2021-01-16T10:43:31Z</time>
      </trkpt>
      <trkpt lat="46.03384" lon="6.79971">
        <ele>1990.4</ele>
        <time>2021-01-16T10:43:36Z</time>
      </trkpt>
      <trkpt lat="46.03384" lon="6.79978">
        <ele>1990.9</ele>
        <time>2021-01-16T10:43:41Z</time>
      </trkpt>
      <trkpt lat="46.03387" lon="6.79981">
        <ele>1991.4</ele>
        <time>2021-01-16T10:43:46Z</time>
      </trkpt>
      <trkpt lat="46.03389" lon="6.79986">
        <ele>1992.2</ele>
        <time>2021-01-16T10:43:52Z</time>
      </trkpt>
      <trkpt lat="46.03394" lon="6.79988">
        <ele>1993</ele>
        <time>2021-01-16T10:43:57Z</time>
      </trkpt>
      <trkpt lat="46.03397" lon="6.7999">
        <ele>1994.6</ele>
        <time>2021-01-16T10:44:04Z</time>
      </trkpt>
      <trkpt lat="46.03401" lon="6.79988">
        <ele>1995.2</ele>
        <time>2021-01-16T10:44:09Z</time>
      </trkpt>
      <trkpt lat="46.03406" lon="6.79989">
        <ele>1995.7</ele>
        <time>2021-01-16T10:44:13Z</time>
      </trkpt>
      <trkpt lat="46.03404" lon="6.79994">
        <ele>2003</ele>
        <time>2021-01-16T10:45:21Z</time>
      </trkpt>
      <trkpt lat="46.03402" lon="6.8">
        <ele>2004.3</ele>
        <time>2021-01-16T10:45:25Z</time>
      </trkpt>
      <trkpt lat="46.034" lon="6.80001">
        <ele>2008.4</ele>
        <time>2021-01-16T10:46:26Z</time>
      </trkpt>
      <trkpt lat="46.03396" lon="6.80004">
        <ele>2010.5</ele>
        <time>2021-01-16T10:46:30Z</time>
      </trkpt>
      <trkpt lat="46.03398" lon="6.8001">
        <ele>2011</ele>
        <time>2021-01-16T10:46:35Z</time>
      </trkpt>
      <trkpt lat="46.03401" lon="6.80014">
        <ele>2011.3</ele>
        <time>2021-01-16T10:46:40Z</time>
      </trkpt>
      <trkpt lat="46.034" lon="6.8002">
        <ele>2011.7</ele>
        <time>2021-01-16T10:46:45Z</time>
      </trkpt>
      <trkpt lat="46.03398" lon="6.80026">
        <ele>2015.5</ele>
        <time>2021-01-16T10:47:11Z</time>
      </trkpt>
      <trkpt lat="46.03397" lon="6.80032">
        <ele>2016</ele>
        <time>2021-01-16T10:47:17Z</time>
      </trkpt>
      <trkpt lat="46.034" lon="6.80029">
        <ele>2016.5</ele>
        <time>2021-01-16T10:47:31Z</time>
      </trkpt>
      <trkpt lat="46.03404" lon="6.80026">
        <ele>2016.4</ele>
        <time>2021-01-16T10:47:35Z</time>
      </trkpt>
      <trkpt lat="46.03408" lon="6.80023">
        <ele>2016.6</ele>
        <time>2021-01-16T10:47:40Z</time>
      </trkpt>
      <trkpt lat="46.03411" lon="6.8002">
        <ele>2016.8</ele>
        <time>2021-01-16T10:47:47Z</time>
      </trkpt>
      <trkpt lat="46.03415" lon="6.80022">
        <ele>2016.8</ele>
        <time>2021-01-16T10:48:08Z</time>
      </trkpt>
      <trkpt lat="46.03419" lon="6.80028">
        <ele>2017</ele>
        <time>2021-01-16T10:48:13Z</time>
      </trkpt>
      <trkpt lat="46.0342" lon="6.80034">
        <ele>2017</ele>
        <time>2021-01-16T10:48:19Z</time>
      </trkpt>
      <trkpt lat="46.03419" lon="6.80039">
        <ele>2017</ele>
        <time>2021-01-16T10:48:27Z</time>
      </trkpt>
      <trkpt lat="46.03419" lon="6.80045">
        <ele>2017.1</ele>
        <time>2021-01-16T10:48:35Z</time>
      </trkpt>
      <trkpt lat="46.03417" lon="6.80051">
        <ele>2017.2</ele>
        <time>2021-01-16T10:48:44Z</time>
      </trkpt>
      <trkpt lat="46.03417" lon="6.80056">
        <ele>2017.5</ele>
        <time>2021-01-16T10:48:51Z</time>
      </trkpt>
      <trkpt lat="46.03416" lon="6.80063">
        <ele>2018.1</ele>
        <time>2021-01-16T10:48:57Z</time>
      </trkpt>
      <trkpt lat="46.03416" lon="6.80067">
        <ele>2019.7</ele>
        <time>2021-01-16T10:49:29Z</time>
      </trkpt>
      <trkpt lat="46.03417" lon="6.80068">
        <ele>2024.3</ele>
        <time>2021-01-16T10:49:42Z</time>
      </trkpt>
      <trkpt lat="46.03422" lon="6.80072">
        <ele>2025</ele>
        <time>2021-01-16T10:49:47Z</time>
      </trkpt>
      <trkpt lat="46.03425" lon="6.8007">
        <ele>2026.1</ele>
        <time>2021-01-16T10:50:05Z</time>
      </trkpt>
      <trkpt lat="46.03431" lon="6.80062">
        <ele>2027.6</ele>
        <time>2021-01-16T10:50:10Z</time>
      </trkpt>
      <trkpt lat="46.03434" lon="6.80067">
        <ele>2028</ele>
        <time>2021-01-16T10:52:24Z</time>
      </trkpt>
      <trkpt lat="46.03432" lon="6.80069">
        <ele>2035.2</ele>
        <time>2021-01-16T10:55:15Z</time>
      </trkpt>
      <trkpt lat="46.03436" lon="6.80072">
        <ele>2041.3</ele>
        <time>2021-01-16T10:55:22Z</time>
      </trkpt>
      <trkpt lat="46.03435" lon="6.80073">
        <ele>2046.6</ele>
        <time>2021-01-16T11:04:55Z</time>
      </trkpt>
      <trkpt lat="46.03443" lon="6.80077">
        <ele>2048.1</ele>
        <time>2021-01-16T11:04:59Z</time>
      </trkpt>
      <trkpt lat="46.0344" lon="6.80072">
        <ele>2048.1</ele>
        <time>2021-01-16T11:05:09Z</time>
      </trkpt>
      <trkpt lat="46.03439" lon="6.80068">
        <ele>2051.5</ele>
        <time>2021-01-16T11:08:49Z</time>
      </trkpt>
      <trkpt lat="46.03427" lon="6.80061">
        <ele>2050.7</ele>
        <time>2021-01-16T11:08:53Z</time>
      </trkpt>
      <trkpt lat="46.03413" lon="6.80044">
        <ele>2049.6</ele>
        <time>2021-01-16T11:08:57Z</time>
      </trkpt>
      <trkpt lat="46.034" lon="6.80025">
        <ele>2048.2</ele>
        <time>2021-01-16T11:09:01Z</time>
      </trkpt>
      <trkpt lat="46.03391" lon="6.80002">
        <ele>2046.7</ele>
        <time>2021-01-16T11:09:05Z</time>
      </trkpt>
      <trkpt lat="46.03375" lon="6.79979">
        <ele>2043.8</ele>
        <time>2021-01-16T11:09:10Z</time>
      </trkpt>
      <trkpt lat="46.0335" lon="6.79963">
        <ele>2040.2</ele>
        <time>2021-01-16T11:09:14Z</time>
      </trkpt>
      <trkpt lat="46.03337" lon="6.79953">
        <ele>2035.7</ele>
        <time>2021-01-16T11:09:19Z</time>
      </trkpt>
      <trkpt lat="46.03334" lon="6.79957">
        <ele>2030</ele>
        <time>2021-01-16T11:09:24Z</time>
      </trkpt>
      <trkpt lat="46.03331" lon="6.79961">
        <ele>2026.7</ele>
        <time>2021-01-16T11:09:32Z</time>
      </trkpt>
      <trkpt lat="46.03328" lon="6.79956">
        <ele>2024.6</ele>
        <time>2021-01-16T11:09:43Z</time>
      </trkpt>
      <trkpt lat="46.0333" lon="6.79961">
        <ele>2020.8</ele>
        <time>2021-01-16T11:10:25Z</time>
      </trkpt>
      <trkpt lat="46.03332" lon="6.79956">
        <ele>2018.4</ele>
        <time>2021-01-16T11:10:47Z</time>
      </trkpt>
      <trkpt lat="46.03318" lon="6.79926">
        <ele>2016.6</ele>
        <time>2021-01-16T11:10:52Z</time>
      </trkpt>
      <trkpt lat="46.03292" lon="6.79908">
        <ele>2013.8</ele>
        <time>2021-01-16T11:10:57Z</time>
      </trkpt>
      <trkpt lat="46.03285" lon="6.79902">
        <ele>2011.4</ele>
        <time>2021-01-16T11:11:01Z</time>
      </trkpt>
      <trkpt lat="46.03282" lon="6.79901">
        <ele>2009.9</ele>
        <time>2021-01-16T11:11:07Z</time>
      </trkpt>
      <trkpt lat="46.03278" lon="6.79897">
        <ele>2009</ele>
        <time>2021-01-16T11:11:14Z</time>
      </trkpt>
      <trkpt lat="46.03266" lon="6.7989">
        <ele>2006.7</ele>
        <time>2021-01-16T11:11:18Z</time>
      </trkpt>
      <trkpt lat="46.03241" lon="6.79884">
        <ele>2003</ele>
        <time>2021-01-16T11:11:22Z</time>
      </trkpt>
      <trkpt lat="46.03229" lon="6.79892">
        <ele>1996.5</ele>
        <time>2021-01-16T11:11:26Z</time>
      </trkpt>
      <trkpt lat="46.03228" lon="6.79889">
        <ele>1992.7</ele>
        <time>2021-01-16T11:12:11Z</time>
      </trkpt>
      <trkpt lat="46.03211" lon="6.7988">
        <ele>1991</ele>
        <time>2021-01-16T11:12:16Z</time>
      </trkpt>
      <trkpt lat="46.0319" lon="6.79853">
        <ele>1987.9</ele>
        <time>2021-01-16T11:12:21Z</time>
      </trkpt>
      <trkpt lat="46.03162" lon="6.79838">
        <ele>1983.9</ele>
        <time>2021-01-16T11:12:26Z</time>
      </trkpt>
      <trkpt lat="46.03142" lon="6.79835">
        <ele>1980.4</ele>
        <time>2021-01-16T11:12:30Z</time>
      </trkpt>
      <trkpt lat="46.0312" lon="6.7982">
        <ele>1976.9</ele>
        <time>2021-01-16T11:12:34Z</time>
      </trkpt>
      <trkpt lat="46.03106" lon="6.79796">
        <ele>1972.4</ele>
        <time>2021-01-16T11:12:38Z</time>
      </trkpt>
      <trkpt lat="46.03102" lon="6.7979">
        <ele>1968.7</ele>
        <time>2021-01-16T11:12:42Z</time>
      </trkpt>
      <trkpt lat="46.03101" lon="6.79789">
        <ele>1967.9</ele>
        <time>2021-01-16T11:13:06Z</time>
      </trkpt>
      <trkpt lat="46.031" lon="6.79775">
        <ele>1964.1</ele>
        <time>2021-01-16T11:13:10Z</time>
      </trkpt>
      <trkpt lat="46.03087" lon="6.79756">
        <ele>1963.1</ele>
        <time>2021-01-16T11:13:15Z</time>
      </trkpt>
      <trkpt lat="46.03078" lon="6.79736">
        <ele>1962</ele>
        <time>2021-01-16T11:13:19Z</time>
      </trkpt>
      <trkpt lat="46.03072" lon="6.79717">
        <ele>1961.1</ele>
        <time>2021-01-16T11:13:23Z</time>
      </trkpt>
      <trkpt lat="46.03065" lon="6.79707">
        <ele>1959.8</ele>
        <time>2021-01-16T11:13:27Z</time>
      </trkpt>
      <trkpt lat="46.03058" lon="6.79696">
        <ele>1957.7</ele>
        <time>2021-01-16T11:13:32Z</time>
      </trkpt>
      <trkpt lat="46.03052" lon="6.79675">
        <ele>1955.4</ele>
        <time>2021-01-16T11:13:36Z</time>
      </trkpt>
      <trkpt lat="46.0304" lon="6.79668">
        <ele>1952.9</ele>
        <time>2021-01-16T11:13:41Z</time>
      </trkpt>
      <trkpt lat="46.03032" lon="6.79651">
        <ele>1947.8</ele>
        <time>2021-01-16T11:13:45Z</time>
      </trkpt>
      <trkpt lat="46.03015" lon="6.79652">
        <ele>1940.8</ele>
        <time>2021-01-16T11:13:50Z</time>
      </trkpt>
      <trkpt lat="46.03007" lon="6.79658">
        <ele>1934</ele>
        <time>2021-01-16T11:13:55Z</time>
      </trkpt>
      <trkpt lat="46.02997" lon="6.79661">
        <ele>1928.2</ele>
        <time>2021-01-16T11:13:59Z</time>
      </trkpt>
      <trkpt lat="46.02999" lon="6.79686">
        <ele>1920.8</ele>
        <time>2021-01-16T11:14:04Z</time>
      </trkpt>
      <trkpt lat="46.02998" lon="6.79683">
        <ele>1916.1</ele>
        <time>2021-01-16T11:14:21Z</time>
      </trkpt>
      <trkpt lat="46.0299" lon="6.79691">
        <ele>1911.1</ele>
        <time>2021-01-16T11:14:25Z</time>
      </trkpt>
      <trkpt lat="46.02986" lon="6.79699">
        <ele>1910.2</ele>
        <time>2021-01-16T11:14:30Z</time>
      </trkpt>
      <trkpt lat="46.02983" lon="6.79706">
        <ele>1909.6</ele>
        <time>2021-01-16T11:14:34Z</time>
      </trkpt>
      <trkpt lat="46.02971" lon="6.79711">
        <ele>1908.7</ele>
        <time>2021-01-16T11:14:39Z</time>
      </trkpt>
      <trkpt lat="46.0297" lon="6.79728">
        <ele>1907.6</ele>
        <time>2021-01-16T11:14:43Z</time>
      </trkpt>
      <trkpt lat="46.02968" lon="6.79727">
        <ele>1906.5</ele>
        <time>2021-01-16T11:15:11Z</time>
      </trkpt>
      <trkpt lat="46.02956" lon="6.79731">
        <ele>1904.6</ele>
        <time>2021-01-16T11:15:16Z</time>
      </trkpt>
      <trkpt lat="46.02956" lon="6.7973">
        <ele>1904.6</ele>
        <time>2021-01-16T11:15:28Z</time>
      </trkpt>
      <trkpt lat="46.02937" lon="6.79741">
        <ele>1903.8</ele>
        <time>2021-01-16T11:15:32Z</time>
      </trkpt>
      <trkpt lat="46.02929" lon="6.79741">
        <ele>1902.5</ele>
        <time>2021-01-16T11:15:36Z</time>
      </trkpt>
      <trkpt lat="46.02913" lon="6.79755">
        <ele>1900.3</ele>
        <time>2021-01-16T11:15:41Z</time>
      </trkpt>
      <trkpt lat="46.02904" lon="6.7976">
        <ele>1898.5</ele>
        <time>2021-01-16T11:15:45Z</time>
      </trkpt>
      <trkpt lat="46.02897" lon="6.7976">
        <ele>1895.6</ele>
        <time>2021-01-16T11:15:50Z</time>
      </trkpt>
      <trkpt lat="46.02885" lon="6.79744">
        <ele>1893.6</ele>
        <time>2021-01-16T11:15:54Z</time>
      </trkpt>
      <trkpt lat="46.02872" lon="6.7972">
        <ele>1891.4</ele>
        <time>2021-01-16T11:15:58Z</time>
      </trkpt>
      <trkpt lat="46.0287" lon="6.79717">
        <ele>1888.6</ele>
        <time>2021-01-16T11:16:02Z</time>
      </trkpt>
      <trkpt lat="46.02869" lon="6.79715">
        <ele>1888.1</ele>
        <time>2021-01-16T11:16:12Z</time>
      </trkpt>
      <trkpt lat="46.02872" lon="6.7971">
        <ele>1883.7</ele>
        <time>2021-01-16T11:16:16Z</time>
      </trkpt>
      <trkpt lat="46.0287" lon="6.79696">
        <ele>1879.1</ele>
        <time>2021-01-16T11:16:21Z</time>
      </trkpt>
      <trkpt lat="46.02866" lon="6.79691">
        <ele>1874.4</ele>
        <time>2021-01-16T11:16:25Z</time>
      </trkpt>
      <trkpt lat="46.02866" lon="6.79691">
        <ele>1874.4</ele>
        <time>2021-01-16T11:16:51Z</time>
      </trkpt>
      <trkpt lat="46.02851" lon="6.79662">
        <ele>1859.2</ele>
        <time>2021-01-16T11:16:56Z</time>
      </trkpt>
      <trkpt lat="46.02844" lon="6.79647">
        <ele>1854.5</ele>
        <time>2021-01-16T11:17:00Z</time>
      </trkpt>
      <trkpt lat="46.02843" lon="6.7965">
        <ele>1848</ele>
        <time>2021-01-16T11:17:06Z</time>
      </trkpt>
      <trkpt lat="46.02839" lon="6.79646">
        <ele>1844.2</ele>
        <time>2021-01-16T11:17:43Z</time>
      </trkpt>
      <trkpt lat="46.02827" lon="6.79622">
        <ele>1835.8</ele>
        <time>2021-01-16T11:17:47Z</time>
      </trkpt>
      <trkpt lat="46.02819" lon="6.79597">
        <ele>1834.9</ele>
        <time>2021-01-16T11:17:51Z</time>
      </trkpt>
      <trkpt lat="46.0281" lon="6.79572">
        <ele>1833.6</ele>
        <time>2021-01-16T11:17:56Z</time>
      </trkpt>
      <trkpt lat="46.02804" lon="6.79551">
        <ele>1832.7</ele>
        <time>2021-01-16T11:18:00Z</time>
      </trkpt>
      <trkpt lat="46.028" lon="6.7953">
        <ele>1831.3</ele>
        <time>2021-01-16T11:18:05Z</time>
      </trkpt>
      <trkpt lat="46.02801" lon="6.79531">
        <ele>1830.9</ele>
        <time>2021-01-16T11:18:41Z</time>
      </trkpt>
      <trkpt lat="46.02793" lon="6.79499">
        <ele>1829.4</ele>
        <time>2021-01-16T11:18:46Z</time>
      </trkpt>
      <trkpt lat="46.02794" lon="6.79476">
        <ele>1828.9</ele>
        <time>2021-01-16T11:18:50Z</time>
      </trkpt>
      <trkpt lat="46.02798" lon="6.79449">
        <ele>1827.8</ele>
        <time>2021-01-16T11:18:55Z</time>
      </trkpt>
      <trkpt lat="46.02804" lon="6.79423">
        <ele>1826.5</ele>
        <time>2021-01-16T11:19:00Z</time>
      </trkpt>
      <trkpt lat="46.02809" lon="6.79406">
        <ele>1824.9</ele>
        <time>2021-01-16T11:19:04Z</time>
      </trkpt>
      <trkpt lat="46.0281" lon="6.79398">
        <ele>1823.9</ele>
        <time>2021-01-16T11:19:08Z</time>
      </trkpt>
      <trkpt lat="46.02808" lon="6.79393">
        <ele>1822.1</ele>
        <time>2021-01-16T11:19:13Z</time>
      </trkpt>
      <trkpt lat="46.02808" lon="6.79375">
        <ele>1820.4</ele>
        <time>2021-01-16T11:19:18Z</time>
      </trkpt>
      <trkpt lat="46.02817" lon="6.79353">
        <ele>1818.7</ele>
        <time>2021-01-16T11:19:22Z</time>
      </trkpt>
      <trkpt lat="46.02813" lon="6.79334">
        <ele>1816.6</ele>
        <time>2021-01-16T11:19:27Z</time>
      </trkpt>
      <trkpt lat="46.02812" lon="6.79319">
        <ele>1813.7</ele>
        <time>2021-01-16T11:19:32Z</time>
      </trkpt>
      <trkpt lat="46.02817" lon="6.79291">
        <ele>1810.2</ele>
        <time>2021-01-16T11:19:37Z</time>
      </trkpt>
      <trkpt lat="46.02815" lon="6.79262">
        <ele>1805.6</ele>
        <time>2021-01-16T11:19:41Z</time>
      </trkpt>
      <trkpt lat="46.02814" lon="6.79243">
        <ele>1799.6</ele>
        <time>2021-01-16T11:19:45Z</time>
      </trkpt>
      <trkpt lat="46.02812" lon="6.79219">
        <ele>1793</ele>
        <time>2021-01-16T11:19:49Z</time>
      </trkpt>
      <trkpt lat="46.02815" lon="6.79206">
        <ele>1788</ele>
        <time>2021-01-16T11:19:53Z</time>
      </trkpt>
      <trkpt lat="46.02812" lon="6.79201">
        <ele>1785.7</ele>
        <time>2021-01-16T11:19:58Z</time>
      </trkpt>
      <trkpt lat="46.02819" lon="6.79191">
        <ele>1777.4</ele>
        <time>2021-01-16T11:20:02Z</time>
      </trkpt>
      <trkpt lat="46.02821" lon="6.79188">
        <ele>1775.4</ele>
        <time>2021-01-16T11:20:10Z</time>
      </trkpt>
      <trkpt lat="46.0283" lon="6.79176">
        <ele>1774.4</ele>
        <time>2021-01-16T11:20:15Z</time>
      </trkpt>
      <trkpt lat="46.02836" lon="6.79164">
        <ele>1773.3</ele>
        <time>2021-01-16T11:20:19Z</time>
      </trkpt>
      <trkpt lat="46.02839" lon="6.79155">
        <ele>1772</ele>
        <time>2021-01-16T11:20:23Z</time>
      </trkpt>
      <trkpt lat="46.02839" lon="6.79155">
        <ele>1772</ele>
        <time>2021-01-16T11:20:31Z</time>
      </trkpt>
      <trkpt lat="46.02854" lon="6.79144">
        <ele>1768</ele>
        <time>2021-01-16T11:20:35Z</time>
      </trkpt>
      <trkpt lat="46.02854" lon="6.79144">
        <ele>1768</ele>
        <time>2021-01-16T11:20:41Z</time>
      </trkpt>
      <trkpt lat="46.0286" lon="6.79127">
        <ele>1763.9</ele>
        <time>2021-01-16T11:20:45Z</time>
      </trkpt>
      <trkpt lat="46.02857" lon="6.79115">
        <ele>1759.4</ele>
        <time>2021-01-16T11:20:50Z</time>
      </trkpt>
      <trkpt lat="46.0285" lon="6.79098">
        <ele>1753.2</ele>
        <time>2021-01-16T11:20:55Z</time>
      </trkpt>
      <trkpt lat="46.02844" lon="6.79099">
        <ele>1748.7</ele>
        <time>2021-01-16T11:20:59Z</time>
      </trkpt>
      <trkpt lat="46.02831" lon="6.79106">
        <ele>1742.6</ele>
        <time>2021-01-16T11:21:04Z</time>
      </trkpt>
      <trkpt lat="46.02826" lon="6.79108">
        <ele>1738.9</ele>
        <time>2021-01-16T11:21:08Z</time>
      </trkpt>
      <trkpt lat="46.02825" lon="6.79109">
        <ele>1738.1</ele>
        <time>2021-01-16T11:21:13Z</time>
      </trkpt>
      <trkpt lat="46.02821" lon="6.79107">
        <ele>1718</ele>
        <time>2021-01-16T11:21:33Z</time>
      </trkpt>
      <trkpt lat="46.02818" lon="6.79102">
        <ele>1715.1</ele>
        <time>2021-01-16T11:21:37Z</time>
      </trkpt>
      <trkpt lat="46.02814" lon="6.79095">
        <ele>1711.2</ele>
        <time>2021-01-16T11:21:42Z</time>
      </trkpt>
      <trkpt lat="46.02805" lon="6.79089">
        <ele>1707.7</ele>
        <time>2021-01-16T11:21:47Z</time>
      </trkpt>
      <trkpt lat="46.02804" lon="6.79088">
        <ele>1707</ele>
        <time>2021-01-16T11:21:51Z</time>
      </trkpt>
      <trkpt lat="46.02797" lon="6.79071">
        <ele>1701</ele>
        <time>2021-01-16T11:21:56Z</time>
      </trkpt>
      <trkpt lat="46.02795" lon="6.79067">
        <ele>1698</ele>
        <time>2021-01-16T11:22:27Z</time>
      </trkpt>
      <trkpt lat="46.02805" lon="6.79072">
        <ele>1685.4</ele>
        <time>2021-01-16T11:22:31Z</time>
      </trkpt>
      <trkpt lat="46.02805" lon="6.79072">
        <ele>1685.4</ele>
        <time>2021-01-16T11:22:57Z</time>
      </trkpt>
      <trkpt lat="46.02805" lon="6.79057">
        <ele>1676</ele>
        <time>2021-01-16T11:23:02Z</time>
      </trkpt>
      <trkpt lat="46.02805" lon="6.79057">
        <ele>1676</ele>
        <time>2021-01-16T11:23:48Z</time>
      </trkpt>
      <trkpt lat="46.02791" lon="6.79058">
        <ele>1675.4</ele>
        <time>2021-01-16T11:23:52Z</time>
      </trkpt>
      <trkpt lat="46.02791" lon="6.79058">
        <ele>1675.4</ele>
        <time>2021-01-16T11:24:12Z</time>
      </trkpt>
      <trkpt lat="46.0278" lon="6.79064">
        <ele>1673.9</ele>
        <time>2021-01-16T11:24:17Z</time>
      </trkpt>
      <trkpt lat="46.0278" lon="6.79064">
        <ele>1673.9</ele>
        <time>2021-01-16T11:24:44Z</time>
      </trkpt>
      <trkpt lat="46.02773" lon="6.79054">
        <ele>1671.9</ele>
        <time>2021-01-16T11:24:49Z</time>
      </trkpt>
      <trkpt lat="46.02773" lon="6.79054">
        <ele>1671.9</ele>
        <time>2021-01-16T11:25:03Z</time>
      </trkpt>
      <trkpt lat="46.02776" lon="6.79032">
        <ele>1669.5</ele>
        <time>2021-01-16T11:25:08Z</time>
      </trkpt>
      <trkpt lat="46.02776" lon="6.79024">
        <ele>1668.6</ele>
        <time>2021-01-16T11:25:12Z</time>
      </trkpt>
      <trkpt lat="46.02778" lon="6.79016">
        <ele>1667.2</ele>
        <time>2021-01-16T11:25:17Z</time>
      </trkpt>
      <trkpt lat="46.02778" lon="6.7901">
        <ele>1666.1</ele>
        <time>2021-01-16T11:25:29Z</time>
      </trkpt>
      <trkpt lat="46.0278" lon="6.78991">
        <ele>1661.4</ele>
        <time>2021-01-16T11:25:33Z</time>
      </trkpt>
      <trkpt lat="46.02776" lon="6.78989">
        <ele>1659.9</ele>
        <time>2021-01-16T11:26:30Z</time>
      </trkpt>
      <trkpt lat="46.0278" lon="6.78973">
        <ele>1641.5</ele>
        <time>2021-01-16T11:26:34Z</time>
      </trkpt>
      <trkpt lat="46.0278" lon="6.78973">
        <ele>1641.5</ele>
        <time>2021-01-16T11:26:38Z</time>
      </trkpt>
      <trkpt lat="46.02765" lon="6.78985">
        <ele>1638.9</ele>
        <time>2021-01-16T11:26:43Z</time>
      </trkpt>
      <trkpt lat="46.02756" lon="6.78987">
        <ele>1637.7</ele>
        <time>2021-01-16T11:26:48Z</time>
      </trkpt>
      <trkpt lat="46.02752" lon="6.78975">
        <ele>1634.2</ele>
        <time>2021-01-16T11:26:52Z</time>
      </trkpt>
      <trkpt lat="46.02754" lon="6.78973">
        <ele>1631.8</ele>
        <time>2021-01-16T11:27:02Z</time>
      </trkpt>
      <trkpt lat="46.02761" lon="6.78956">
        <ele>1626.5</ele>
        <time>2021-01-16T11:27:07Z</time>
      </trkpt>
      <trkpt lat="46.02761" lon="6.78956">
        <ele>1626.3</ele>
        <time>2021-01-16T11:27:12Z</time>
      </trkpt>
      <trkpt lat="46.02773" lon="6.78939">
        <ele>1620.7</ele>
        <time>2021-01-16T11:27:17Z</time>
      </trkpt>
      <trkpt lat="46.02787" lon="6.78929">
        <ele>1616</ele>
        <time>2021-01-16T11:27:21Z</time>
      </trkpt>
      <trkpt lat="46.02796" lon="6.78919">
        <ele>1611.8</ele>
        <time>2021-01-16T11:27:26Z</time>
      </trkpt>
      <trkpt lat="46.02796" lon="6.78918">
        <ele>1609.3</ele>
        <time>2021-01-16T11:27:36Z</time>
      </trkpt>
      <trkpt lat="46.02786" lon="6.78911">
        <ele>1601.6</ele>
        <time>2021-01-16T11:27:41Z</time>
      </trkpt>
      <trkpt lat="46.02786" lon="6.78911">
        <ele>1601.6</ele>
        <time>2021-01-16T11:27:46Z</time>
      </trkpt>
      <trkpt lat="46.02783" lon="6.78892">
        <ele>1595.6</ele>
        <time>2021-01-16T11:27:50Z</time>
      </trkpt>
      <trkpt lat="46.02783" lon="6.78892">
        <ele>1595.6</ele>
        <time>2021-01-16T11:27:58Z</time>
      </trkpt>
      <trkpt lat="46.02791" lon="6.78883">
        <ele>1586.9</ele>
        <time>2021-01-16T11:28:03Z</time>
      </trkpt>
      <trkpt lat="46.02795" lon="6.78881">
        <ele>1582.1</ele>
        <time>2021-01-16T11:28:07Z</time>
      </trkpt>
      <trkpt lat="46.02798" lon="6.78886">
        <ele>1576.4</ele>
        <time>2021-01-16T11:28:11Z</time>
      </trkpt>
      <trkpt lat="46.02797" lon="6.78885">
        <ele>1573.8</ele>
        <time>2021-01-16T11:28:31Z</time>
      </trkpt>
      <trkpt lat="46.02801" lon="6.78873">
        <ele>1562</ele>
        <time>2021-01-16T11:28:35Z</time>
      </trkpt>
      <trkpt lat="46.0281" lon="6.78869">
        <ele>1559.5</ele>
        <time>2021-01-16T11:28:40Z</time>
      </trkpt>
      <trkpt lat="46.02823" lon="6.78866">
        <ele>1555.3</ele>
        <time>2021-01-16T11:28:45Z</time>
      </trkpt>
      <trkpt lat="46.0283" lon="6.78855">
        <ele>1551</ele>
        <time>2021-01-16T11:28:49Z</time>
      </trkpt>
      <trkpt lat="46.02833" lon="6.78849">
        <ele>1546.7</ele>
        <time>2021-01-16T11:28:53Z</time>
      </trkpt>
      <trkpt lat="46.02839" lon="6.78846">
        <ele>1543.7</ele>
        <time>2021-01-16T11:28:57Z</time>
      </trkpt>
      <trkpt lat="46.02841" lon="6.78849">
        <ele>1540.4</ele>
        <time>2021-01-16T11:29:07Z</time>
      </trkpt>
      <trkpt lat="46.02853" lon="6.78853">
        <ele>1529.7</ele>
        <time>2021-01-16T11:29:11Z</time>
      </trkpt>
      <trkpt lat="46.02853" lon="6.78854">
        <ele>1528.4</ele>
        <time>2021-01-16T11:29:38Z</time>
      </trkpt>
      <trkpt lat="46.02859" lon="6.7884">
        <ele>1523.3</ele>
        <time>2021-01-16T11:29:42Z</time>
      </trkpt>
      <trkpt lat="46.02859" lon="6.7884">
        <ele>1523.3</ele>
        <time>2021-01-16T11:29:49Z</time>
      </trkpt>
      <trkpt lat="46.02869" lon="6.78824">
        <ele>1523</ele>
        <time>2021-01-16T11:29:53Z</time>
      </trkpt>
      <trkpt lat="46.02871" lon="6.78815">
        <ele>1522.6</ele>
        <time>2021-01-16T11:29:57Z</time>
      </trkpt>
      <trkpt lat="46.02873" lon="6.78812">
        <ele>1522.2</ele>
        <time>2021-01-16T11:30:01Z</time>
      </trkpt>
      <trkpt lat="46.02881" lon="6.78806">
        <ele>1521.5</ele>
        <time>2021-01-16T11:30:05Z</time>
      </trkpt>
      <trkpt lat="46.02883" lon="6.78802">
        <ele>1520.8</ele>
        <time>2021-01-16T11:30:10Z</time>
      </trkpt>
      <trkpt lat="46.02885" lon="6.78801">
        <ele>1520.8</ele>
        <time>2021-01-16T11:30:18Z</time>
      </trkpt>
      <trkpt lat="46.0289" lon="6.78782">
        <ele>1519.6</ele>
        <time>2021-01-16T11:30:23Z</time>
      </trkpt>
      <trkpt lat="46.0289" lon="6.78782">
        <ele>1519.6</ele>
        <time>2021-01-16T11:30:39Z</time>
      </trkpt>
      <trkpt lat="46.02898" lon="6.78771">
        <ele>1516.8</ele>
        <time>2021-01-16T11:30:43Z</time>
      </trkpt>
      <trkpt lat="46.02898" lon="6.78771">
        <ele>1516.8</ele>
        <time>2021-01-16T11:31:15Z</time>
      </trkpt>
      <trkpt lat="46.02897" lon="6.78754">
        <ele>1515</ele>
        <time>2021-01-16T11:31:20Z</time>
      </trkpt>
      <trkpt lat="46.02909" lon="6.78758">
        <ele>1513.9</ele>
        <time>2021-01-16T11:31:25Z</time>
      </trkpt>
      <trkpt lat="46.02919" lon="6.78753">
        <ele>1512</ele>
        <time>2021-01-16T11:31:29Z</time>
      </trkpt>
      <trkpt lat="46.0293" lon="6.78745">
        <ele>1508.9</ele>
        <time>2021-01-16T11:31:34Z</time>
      </trkpt>
      <trkpt lat="46.0293" lon="6.78747">
        <ele>1504.6</ele>
        <time>2021-01-16T11:32:51Z</time>
      </trkpt>
      <trkpt lat="46.02934" lon="6.78725">
        <ele>1495.8</ele>
        <time>2021-01-16T11:32:55Z</time>
      </trkpt>
      <trkpt lat="46.0293" lon="6.78712">
        <ele>1494</ele>
        <time>2021-01-16T11:33:00Z</time>
      </trkpt>
      <trkpt lat="46.02928" lon="6.78705">
        <ele>1492.2</ele>
        <time>2021-01-16T11:33:04Z</time>
      </trkpt>
      <trkpt lat="46.02929" lon="6.78698">
        <ele>1490.7</ele>
        <time>2021-01-16T11:33:08Z</time>
      </trkpt>
      <trkpt lat="46.02931" lon="6.78684">
        <ele>1488</ele>
        <time>2021-01-16T11:33:13Z</time>
      </trkpt>
      <trkpt lat="46.02934" lon="6.78684">
        <ele>1486.3</ele>
        <time>2021-01-16T11:33:39Z</time>
      </trkpt>
      <trkpt lat="46.02925" lon="6.78674">
        <ele>1473.2</ele>
        <time>2021-01-16T11:33:43Z</time>
      </trkpt>
      <trkpt lat="46.02924" lon="6.78672">
        <ele>1472.8</ele>
        <time>2021-01-16T11:33:47Z</time>
      </trkpt>
      <trkpt lat="46.02914" lon="6.7865">
        <ele>1468.9</ele>
        <time>2021-01-16T11:33:52Z</time>
      </trkpt>
      <trkpt lat="46.02911" lon="6.78645">
        <ele>1467.1</ele>
        <time>2021-01-16T11:33:56Z</time>
      </trkpt>
      <trkpt lat="46.02911" lon="6.78645">
        <ele>1467.1</ele>
        <time>2021-01-16T11:34:12Z</time>
      </trkpt>
      <trkpt lat="46.02923" lon="6.78647">
        <ele>1459</ele>
        <time>2021-01-16T11:34:17Z</time>
      </trkpt>
      <trkpt lat="46.02923" lon="6.78647">
        <ele>1459</ele>
        <time>2021-01-16T11:34:36Z</time>
      </trkpt>
      <trkpt lat="46.02919" lon="6.78635">
        <ele>1449.8</ele>
        <time>2021-01-16T11:34:41Z</time>
      </trkpt>
      <trkpt lat="46.02919" lon="6.78635">
        <ele>1449.8</ele>
        <time>2021-01-16T11:35:01Z</time>
      </trkpt>
      <trkpt lat="46.02906" lon="6.78626">
        <ele>1437</ele>
        <time>2021-01-16T11:35:06Z</time>
      </trkpt>
      <trkpt lat="46.02908" lon="6.78612">
        <ele>1428.1</ele>
        <time>2021-01-16T11:35:11Z</time>
      </trkpt>
      <trkpt lat="46.02913" lon="6.78602">
        <ele>1422.7</ele>
        <time>2021-01-16T11:35:15Z</time>
      </trkpt>
      <trkpt lat="46.02921" lon="6.78599">
        <ele>1415.7</ele>
        <time>2021-01-16T11:35:19Z</time>
      </trkpt>
      <trkpt lat="46.02926" lon="6.78598">
        <ele>1411.6</ele>
        <time>2021-01-16T11:35:23Z</time>
      </trkpt>
      <trkpt lat="46.02926" lon="6.78598">
        <ele>1411.6</ele>
        <time>2021-01-16T11:35:36Z</time>
      </trkpt>
      <trkpt lat="46.02934" lon="6.78591">
        <ele>1401.4</ele>
        <time>2021-01-16T11:35:41Z</time>
      </trkpt>
      <trkpt lat="46.02939" lon="6.78582">
        <ele>1398.1</ele>
        <time>2021-01-16T11:35:45Z</time>
      </trkpt>
      <trkpt lat="46.02941" lon="6.78568">
        <ele>1394.9</ele>
        <time>2021-01-16T11:35:50Z</time>
      </trkpt>
      <trkpt lat="46.02948" lon="6.78557">
        <ele>1392.8</ele>
        <time>2021-01-16T11:35:55Z</time>
      </trkpt>
      <trkpt lat="46.0295" lon="6.78548">
        <ele>1390.7</ele>
        <time>2021-01-16T11:35:59Z</time>
      </trkpt>
      <trkpt lat="46.02948" lon="6.78542">
        <ele>1387.9</ele>
        <time>2021-01-16T11:36:03Z</time>
      </trkpt>
      <trkpt lat="46.02949" lon="6.78536">
        <ele>1386.4</ele>
        <time>2021-01-16T11:36:08Z</time>
      </trkpt>
      <trkpt lat="46.0295" lon="6.78527">
        <ele>1383.8</ele>
        <time>2021-01-16T11:36:13Z</time>
      </trkpt>
      <trkpt lat="46.02959" lon="6.7852">
        <ele>1381.4</ele>
        <time>2021-01-16T11:36:17Z</time>
      </trkpt>
      <trkpt lat="46.02961" lon="6.78521">
        <ele>1378.7</ele>
        <time>2021-01-16T11:36:42Z</time>
      </trkpt>
      <trkpt lat="46.0297" lon="6.78513">
        <ele>1374.6</ele>
        <time>2021-01-16T11:36:46Z</time>
      </trkpt>
      <trkpt lat="46.0297" lon="6.78507">
        <ele>1363.2</ele>
        <time>2021-01-16T11:37:05Z</time>
      </trkpt>
      <trkpt lat="46.02968" lon="6.78504">
        <ele>1360.5</ele>
        <time>2021-01-16T11:37:11Z</time>
      </trkpt>
      <trkpt lat="46.0297" lon="6.785">
        <ele>1357.6</ele>
        <time>2021-01-16T11:37:16Z</time>
      </trkpt>
      <trkpt lat="46.02972" lon="6.78498">
        <ele>1356.1</ele>
        <time>2021-01-16T11:37:24Z</time>
      </trkpt>
      <trkpt lat="46.02965" lon="6.78507">
        <ele>1354.6</ele>
        <time>2021-01-16T11:37:28Z</time>
      </trkpt>
      <trkpt lat="46.02965" lon="6.78501">
        <ele>1354.4</ele>
        <time>2021-01-16T11:38:18Z</time>
      </trkpt>
      <trkpt lat="46.02974" lon="6.78491">
        <ele>1349</ele>
        <time>2021-01-16T11:38:22Z</time>
      </trkpt>
      <trkpt lat="46.02974" lon="6.78491">
        <ele>1349</ele>
        <time>2021-01-16T11:38:29Z</time>
      </trkpt>
      <trkpt lat="46.02972" lon="6.78479">
        <ele>1347.9</ele>
        <time>2021-01-16T11:38:33Z</time>
      </trkpt>
      <trkpt lat="46.02972" lon="6.78479">
        <ele>1347.9</ele>
        <time>2021-01-16T11:38:46Z</time>
      </trkpt>
      <trkpt lat="46.02981" lon="6.78472">
        <ele>1343.5</ele>
        <time>2021-01-16T11:38:50Z</time>
      </trkpt>
      <trkpt lat="46.02981" lon="6.78472">
        <ele>1343.5</ele>
        <time>2021-01-16T11:39:10Z</time>
      </trkpt>
      <trkpt lat="46.02985" lon="6.78458">
        <ele>1340.6</ele>
        <time>2021-01-16T11:39:15Z</time>
      </trkpt>
      <trkpt lat="46.02985" lon="6.78458">
        <ele>1340.6</ele>
        <time>2021-01-16T11:39:42Z</time>
      </trkpt>
      <trkpt lat="46.02993" lon="6.78445">
        <ele>1338.2</ele>
        <time>2021-01-16T11:39:46Z</time>
      </trkpt>
      <trkpt lat="46.02993" lon="6.78445">
        <ele>1338.2</ele>
        <time>2021-01-16T11:39:52Z</time>
      </trkpt>
      <trkpt lat="46.03005" lon="6.78439">
        <ele>1336.1</ele>
        <time>2021-01-16T11:39:56Z</time>
      </trkpt>
      <trkpt lat="46.03005" lon="6.78439">
        <ele>1336.1</ele>
        <time>2021-01-16T11:40:05Z</time>
      </trkpt>
      <trkpt lat="46.03016" lon="6.78427">
        <ele>1334.2</ele>
        <time>2021-01-16T11:40:09Z</time>
      </trkpt>
      <trkpt lat="46.03016" lon="6.78427">
        <ele>1334.2</ele>
        <time>2021-01-16T11:40:20Z</time>
      </trkpt>
      <trkpt lat="46.03017" lon="6.78413">
        <ele>1332.3</ele>
        <time>2021-01-16T11:40:24Z</time>
      </trkpt>
      <trkpt lat="46.03017" lon="6.78413">
        <ele>1332.3</ele>
        <time>2021-01-16T11:40:59Z</time>
      </trkpt>
      <trkpt lat="46.03019" lon="6.78397">
        <ele>1331</ele>
        <time>2021-01-16T11:41:03Z</time>
      </trkpt>
      <trkpt lat="46.03019" lon="6.78397">
        <ele>1331</ele>
        <time>2021-01-16T11:41:09Z</time>
      </trkpt>
      <trkpt lat="46.03026" lon="6.78378">
        <ele>1331.1</ele>
        <time>2021-01-16T11:41:14Z</time>
      </trkpt>
      <trkpt lat="46.03034" lon="6.78367">
        <ele>1331.2</ele>
        <time>2021-01-16T11:41:19Z</time>
      </trkpt>
      <trkpt lat="46.03034" lon="6.78363">
        <ele>1331.3</ele>
        <time>2021-01-16T11:41:23Z</time>
      </trkpt>
      <trkpt lat="46.03035" lon="6.78356">
        <ele>1331.5</ele>
        <time>2021-01-16T11:41:27Z</time>
      </trkpt>
      <trkpt lat="46.03036" lon="6.78354">
        <ele>1331.5</ele>
        <time>2021-01-16T11:41:47Z</time>
      </trkpt>
      <trkpt lat="46.03021" lon="6.78345">
        <ele>1328.6</ele>
        <time>2021-01-16T11:41:52Z</time>
      </trkpt>
      <trkpt lat="46.03006" lon="6.78346">
        <ele>1325.1</ele>
        <time>2021-01-16T11:41:56Z</time>
      </trkpt>
      <trkpt lat="46.02989" lon="6.78344">
        <ele>1322</ele>
        <time>2021-01-16T11:42:00Z</time>
      </trkpt>
      <trkpt lat="46.02972" lon="6.78351">
        <ele>1315.9</ele>
        <time>2021-01-16T11:42:05Z</time>
      </trkpt>
      <trkpt lat="46.02972" lon="6.78346">
        <ele>1309.9</ele>
        <time>2021-01-16T11:42:10Z</time>
      </trkpt>
      <trkpt lat="46.02982" lon="6.78338">
        <ele>1300.2</ele>
        <time>2021-01-16T11:42:15Z</time>
      </trkpt>
      <trkpt lat="46.02993" lon="6.78327">
        <ele>1292</ele>
        <time>2021-01-16T11:42:19Z</time>
      </trkpt>
      <trkpt lat="46.02999" lon="6.78319">
        <ele>1284.2</ele>
        <time>2021-01-16T11:42:23Z</time>
      </trkpt>
      <trkpt lat="46.03011" lon="6.78303">
        <ele>1275.2</ele>
        <time>2021-01-16T11:42:28Z</time>
      </trkpt>
      <trkpt lat="46.03022" lon="6.7829">
        <ele>1271.6</ele>
        <time>2021-01-16T11:42:32Z</time>
      </trkpt>
      <trkpt lat="46.03034" lon="6.78262">
        <ele>1267.1</ele>
        <time>2021-01-16T11:42:37Z</time>
      </trkpt>
      <trkpt lat="46.03044" lon="6.78235">
        <ele>1263.6</ele>
        <time>2021-01-16T11:42:41Z</time>
      </trkpt>
      <trkpt lat="46.03054" lon="6.78204">
        <ele>1256.9</ele>
        <time>2021-01-16T11:42:46Z</time>
      </trkpt>
      <trkpt lat="46.03077" lon="6.78179">
        <ele>1249.3</ele>
        <time>2021-01-16T11:42:51Z</time>
      </trkpt>
      <trkpt lat="46.03091" lon="6.78163">
        <ele>1245.2</ele>
        <time>2021-01-16T11:42:55Z</time>
      </trkpt>
      <trkpt lat="46.03111" lon="6.78143">
        <ele>1241.6</ele>
        <time>2021-01-16T11:42:59Z</time>
      </trkpt>
      <trkpt lat="46.03121" lon="6.78116">
        <ele>1236.9</ele>
        <time>2021-01-16T11:43:04Z</time>
      </trkpt>
      <trkpt lat="46.03127" lon="6.78093">
        <ele>1233.2</ele>
        <time>2021-01-16T11:43:08Z</time>
      </trkpt>
      <trkpt lat="46.03152" lon="6.78062">
        <ele>1225.1</ele>
        <time>2021-01-16T11:43:13Z</time>
      </trkpt>
      <trkpt lat="46.03164" lon="6.78049">
        <ele>1219.1</ele>
        <time>2021-01-16T11:43:17Z</time>
      </trkpt>
      <trkpt lat="46.03176" lon="6.78025">
        <ele>1212</ele>
        <time>2021-01-16T11:43:22Z</time>
      </trkpt>
      <trkpt lat="46.03189" lon="6.77998">
        <ele>1206.9</ele>
        <time>2021-01-16T11:43:26Z</time>
      </trkpt>
      <trkpt lat="46.03207" lon="6.77969">
        <ele>1200.2</ele>
        <time>2021-01-16T11:43:30Z</time>
      </trkpt>
      <trkpt lat="46.03211" lon="6.77971">
        <ele>1195.7</ele>
        <time>2021-01-16T11:43:34Z</time>
      </trkpt>
      <trkpt lat="46.03209" lon="6.7797">
        <ele>1195.6</ele>
        <time>2021-01-16T11:44:05Z</time>
      </trkpt>
      <trkpt lat="46.03204" lon="6.77969">
        <ele>1195.7</ele>
        <time>2021-01-16T11:44:09Z</time>
      </trkpt>
      <trkpt lat="46.03204" lon="6.77968">
        <ele>1195.8</ele>
        <time>2021-01-16T11:44:14Z</time>
      </trkpt>
      <trkpt lat="46.03206" lon="6.77944">
        <ele>1195.8</ele>
        <time>2021-01-16T11:44:19Z</time>
      </trkpt>
      <trkpt lat="46.03208" lon="6.77942">
        <ele>1195.5</ele>
        <time>2021-01-16T11:45:13Z</time>
      </trkpt>
      <trkpt lat="46.03208" lon="6.77936">
        <ele>1193.9</ele>
        <time>2021-01-16T11:45:17Z</time>
      </trkpt>
      <trkpt lat="46.03207" lon="6.77935">
        <ele>1193.8</ele>
        <time>2021-01-16T11:45:55Z</time>
      </trkpt>
      <trkpt lat="46.03205" lon="6.77923">
        <ele>1191.9</ele>
        <time>2021-01-16T11:45:59Z</time>
      </trkpt>
      <trkpt lat="46.03204" lon="6.77915">
        <ele>1190.8</ele>
        <time>2021-01-16T11:46:04Z</time>
      </trkpt>
      <trkpt lat="46.03201" lon="6.77911">
        <ele>1190.1</ele>
        <time>2021-01-16T11:46:08Z</time>
      </trkpt>
      <trkpt lat="46.03198" lon="6.77908">
        <ele>1189.2</ele>
        <time>2021-01-16T11:46:26Z</time>
      </trkpt>
      <trkpt lat="46.03183" lon="6.7789">
        <ele>1187.8</ele>
        <time>2021-01-16T11:46:30Z</time>
      </trkpt>
      <trkpt lat="46.0318" lon="6.7789">
        <ele>1187.4</ele>
        <time>2021-01-16T11:46:36Z</time>
      </trkpt>
      <trkpt lat="46.03171" lon="6.77887">
        <ele>1185.3</ele>
        <time>2021-01-16T11:46:41Z</time>
      </trkpt>
      <trkpt lat="46.03165" lon="6.77884">
        <ele>1184.6</ele>
        <time>2021-01-16T11:46:46Z</time>
      </trkpt>
      <trkpt lat="46.03167" lon="6.77877">
        <ele>1183.5</ele>
        <time>2021-01-16T11:46:51Z</time>
      </trkpt>
      <trkpt lat="46.03169" lon="6.77867">
        <ele>1182.3</ele>
        <time>2021-01-16T11:46:55Z</time>
      </trkpt>
      <trkpt lat="46.03173" lon="6.77858">
        <ele>1181.3</ele>
        <time>2021-01-16T11:46:59Z</time>
      </trkpt>
      <trkpt lat="46.03169" lon="6.77856">
        <ele>1180.1</ele>
        <time>2021-01-16T11:47:19Z</time>
      </trkpt>
      <trkpt lat="46.03168" lon="6.77837">
        <ele>1176.6</ele>
        <time>2021-01-16T11:47:23Z</time>
      </trkpt>
      <trkpt lat="46.03171" lon="6.77829">
        <ele>1175.4</ele>
        <time>2021-01-16T11:47:27Z</time>
      </trkpt>
      <trkpt lat="46.03171" lon="6.77823">
        <ele>1174.8</ele>
        <time>2021-01-16T11:47:31Z</time>
      </trkpt>
      <trkpt lat="46.0317" lon="6.77818">
        <ele>1173.7</ele>
        <time>2021-01-16T11:47:36Z</time>
      </trkpt>
      <trkpt lat="46.03168" lon="6.77808">
        <ele>1171.9</ele>
        <time>2021-01-16T11:47:41Z</time>
      </trkpt>
      <trkpt lat="46.03168" lon="6.77808">
        <ele>1171.9</ele>
        <time>2021-01-16T11:47:48Z</time>
      </trkpt>
      <trkpt lat="46.03167" lon="6.7779">
        <ele>1169.1</ele>
        <time>2021-01-16T11:47:52Z</time>
      </trkpt>
      <trkpt lat="46.03167" lon="6.77784">
        <ele>1166.2</ele>
        <time>2021-01-16T11:48:01Z</time>
      </trkpt>
      <trkpt lat="46.03169" lon="6.77771">
        <ele>1163</ele>
        <time>2021-01-16T11:48:06Z</time>
      </trkpt>
      <trkpt lat="46.03169" lon="6.77769">
        <ele>1162.7</ele>
        <time>2021-01-16T11:48:16Z</time>
      </trkpt>
      <trkpt lat="46.03162" lon="6.7776">
        <ele>1159.6</ele>
        <time>2021-01-16T11:48:21Z</time>
      </trkpt>
      <trkpt lat="46.03162" lon="6.7776">
        <ele>1159.6</ele>
        <time>2021-01-16T11:49:00Z</time>
      </trkpt>
      <trkpt lat="46.03152" lon="6.77745">
        <ele>1157.2</ele>
        <time>2021-01-16T11:49:04Z</time>
      </trkpt>
      <trkpt lat="46.03147" lon="6.77743">
        <ele>1157.1</ele>
        <time>2021-01-16T11:49:08Z</time>
      </trkpt>
      <trkpt lat="46.03148" lon="6.77739">
        <ele>1157.1</ele>
        <time>2021-01-16T11:49:12Z</time>
      </trkpt>
      <trkpt lat="46.03152" lon="6.77723">
        <ele>1156.9</ele>
        <time>2021-01-16T11:49:16Z</time>
      </trkpt>
      <trkpt lat="46.0316" lon="6.77719">
        <ele>1156.4</ele>
        <time>2021-01-16T11:49:20Z</time>
      </trkpt>
      <trkpt lat="46.03163" lon="6.77725">
        <ele>1155.7</ele>
        <time>2021-01-16T11:49:25Z</time>
      </trkpt>
      <trkpt lat="46.03163" lon="6.77725">
        <ele>1155.6</ele>
        <time>2021-01-16T11:49:35Z</time>
      </trkpt>
      <trkpt lat="46.03166" lon="6.77705">
        <ele>1153.9</ele>
        <time>2021-01-16T11:49:39Z</time>
      </trkpt>
      <trkpt lat="46.0317" lon="6.777">
        <ele>1153.3</ele>
        <time>2021-01-16T11:49:43Z</time>
      </trkpt>
      <trkpt lat="46.0317" lon="6.777">
        <ele>1153.3</ele>
        <time>2021-01-16T11:49:52Z</time>
      </trkpt>
      <trkpt lat="46.03181" lon="6.77678">
        <ele>1151</ele>
        <time>2021-01-16T11:49:56Z</time>
      </trkpt>
      <trkpt lat="46.03182" lon="6.77656">
        <ele>1149</ele>
        <time>2021-01-16T11:50:01Z</time>
      </trkpt>
      <trkpt lat="46.03176" lon="6.77646">
        <ele>1147.4</ele>
        <time>2021-01-16T11:50:05Z</time>
      </trkpt>
      <trkpt lat="46.03163" lon="6.77649">
        <ele>1144.7</ele>
        <time>2021-01-16T11:50:09Z</time>
      </trkpt>
      <trkpt lat="46.03156" lon="6.77652">
        <ele>1141.9</ele>
        <time>2021-01-16T11:50:13Z</time>
      </trkpt>
      <trkpt lat="46.0315" lon="6.77649">
        <ele>1138.6</ele>
        <time>2021-01-16T11:50:17Z</time>
      </trkpt>
      <trkpt lat="46.0315" lon="6.77644">
        <ele>1127.9</ele>
        <time>2021-01-16T11:50:36Z</time>
      </trkpt>
      <trkpt lat="46.03152" lon="6.77637">
        <ele>1121.5</ele>
        <time>2021-01-16T11:50:40Z</time>
      </trkpt>
      <trkpt lat="46.03158" lon="6.77626">
        <ele>1117.1</ele>
        <time>2021-01-16T11:50:44Z</time>
      </trkpt>
      <trkpt lat="46.03176" lon="6.77621">
        <ele>1111.1</ele>
        <time>2021-01-16T11:50:49Z</time>
      </trkpt>
      <trkpt lat="46.03193" lon="6.77625">
        <ele>1105.9</ele>
        <time>2021-01-16T11:50:54Z</time>
      </trkpt>
      <trkpt lat="46.03207" lon="6.77629">
        <ele>1102.9</ele>
        <time>2021-01-16T11:50:58Z</time>
      </trkpt>
      <trkpt lat="46.03223" lon="6.77605">
        <ele>1097.6</ele>
        <time>2021-01-16T11:51:03Z</time>
      </trkpt>
      <trkpt lat="46.03218" lon="6.77596">
        <ele>1093.1</ele>
        <time>2021-01-16T11:51:07Z</time>
      </trkpt>
      <trkpt lat="46.03229" lon="6.77586">
        <ele>1088.1</ele>
        <time>2021-01-16T11:51:11Z</time>
      </trkpt>
      <trkpt lat="46.03246" lon="6.77592">
        <ele>1082</ele>
        <time>2021-01-16T11:51:16Z</time>
      </trkpt>
      <trkpt lat="46.03262" lon="6.77603">
        <ele>1077.2</ele>
        <time>2021-01-16T11:51:20Z</time>
      </trkpt>
      <trkpt lat="46.03287" lon="6.77614">
        <ele>1072.4</ele>
        <time>2021-01-16T11:51:25Z</time>
      </trkpt>
      <trkpt lat="46.03313" lon="6.77625">
        <ele>1067.7</ele>
        <time>2021-01-16T11:51:30Z</time>
      </trkpt>
      <trkpt lat="46.03322" lon="6.77626">
        <ele>1067.4</ele>
        <time>2021-01-16T11:51:34Z</time>
      </trkpt>
      <trkpt lat="46.03325" lon="6.77625">
        <ele>1065.8</ele>
        <time>2021-01-16T11:51:48Z</time>
      </trkpt>
      <trkpt lat="46.03343" lon="6.7763">
        <ele>1060.4</ele>
        <time>2021-01-16T11:51:52Z</time>
      </trkpt>
      <trkpt lat="46.0336" lon="6.77641">
        <ele>1057.5</ele>
        <time>2021-01-16T11:51:57Z</time>
      </trkpt>
      <trkpt lat="46.03375" lon="6.77653">
        <ele>1054.4</ele>
        <time>2021-01-16T11:52:02Z</time>
      </trkpt>
      <trkpt lat="46.03387" lon="6.77661">
        <ele>1052.1</ele>
        <time>2021-01-16T11:52:06Z</time>
      </trkpt>
      <trkpt lat="46.03397" lon="6.77662">
        <ele>1048.8</ele>
        <time>2021-01-16T11:52:10Z</time>
      </trkpt>
      <trkpt lat="46.03414" lon="6.77666">
        <ele>1045.5</ele>
        <time>2021-01-16T11:52:14Z</time>
      </trkpt>
      <trkpt lat="46.03438" lon="6.77667">
        <ele>1042.8</ele>
        <time>2021-01-16T11:52:19Z</time>
      </trkpt>
      <trkpt lat="46.03457" lon="6.77647">
        <ele>1034.3</ele>
        <time>2021-01-16T11:52:24Z</time>
      </trkpt>
      <trkpt lat="46.03461" lon="6.77645">
        <ele>1029.9</ele>
        <time>2021-01-16T11:52:29Z</time>
      </trkpt>
      <trkpt lat="46.03461" lon="6.77645">
        <ele>1029.9</ele>
        <time>2021-01-16T11:52:41Z</time>
      </trkpt>
      <trkpt lat="46.03464" lon="6.7763">
        <ele>1025.1</ele>
        <time>2021-01-16T11:52:46Z</time>
      </trkpt>
      <trkpt lat="46.03473" lon="6.77625">
        <ele>1022.5</ele>
        <time>2021-01-16T11:52:50Z</time>
      </trkpt>
      <trkpt lat="46.03486" lon="6.77624">
        <ele>1020.6</ele>
        <time>2021-01-16T11:52:55Z</time>
      </trkpt>
      <trkpt lat="46.03496" lon="6.77624">
        <ele>1017.9</ele>
        <time>2021-01-16T11:52:59Z</time>
      </trkpt>
      <trkpt lat="46.03505" lon="6.77625">
        <ele>1016</ele>
        <time>2021-01-16T11:53:03Z</time>
      </trkpt>
      <trkpt lat="46.03522" lon="6.77629">
        <ele>1013.3</ele>
        <time>2021-01-16T11:53:07Z</time>
      </trkpt>
      <trkpt lat="46.03537" lon="6.77624">
        <ele>1010.6</ele>
        <time>2021-01-16T11:53:12Z</time>
      </trkpt>
      <trkpt lat="46.0355" lon="6.77617">
        <ele>1006.3</ele>
        <time>2021-01-16T11:53:16Z</time>
      </trkpt>
      <trkpt lat="46.03559" lon="6.77617">
        <ele>1002.5</ele>
        <time>2021-01-16T11:53:20Z</time>
      </trkpt>
      <trkpt lat="46.03561" lon="6.77618">
        <ele>1002.2</ele>
        <time>2021-01-16T11:53:36Z</time>
      </trkpt>
      <trkpt lat="46.03575" lon="6.77623">
        <ele>1000.5</ele>
        <time>2021-01-16T11:53:40Z</time>
      </trkpt>
      <trkpt lat="46.03587" lon="6.77625">
        <ele>999.2</ele>
        <time>2021-01-16T11:53:44Z</time>
      </trkpt>
      <trkpt lat="46.03601" lon="6.77615">
        <ele>996.5</ele>
        <time>2021-01-16T11:53:49Z</time>
      </trkpt>
      <trkpt lat="46.0361" lon="6.77606">
        <ele>994.8</ele>
        <time>2021-01-16T11:53:53Z</time>
      </trkpt>
      <trkpt lat="46.03614" lon="6.77609">
        <ele>992.9</ele>
        <time>2021-01-16T11:53:58Z</time>
      </trkpt>
      <trkpt lat="46.03614" lon="6.77609">
        <ele>992.9</ele>
        <time>2021-01-16T11:54:02Z</time>
      </trkpt>
      <trkpt lat="46.03632" lon="6.776">
        <ele>987.7</ele>
        <time>2021-01-16T11:54:06Z</time>
      </trkpt>
      <trkpt lat="46.03645" lon="6.77583">
        <ele>984.8</ele>
        <time>2021-01-16T11:54:11Z</time>
      </trkpt>
      <trkpt lat="46.03655" lon="6.77569">
        <ele>982.1</ele>
        <time>2021-01-16T11:54:15Z</time>
      </trkpt>
      <trkpt lat="46.03661" lon="6.77563">
        <ele>976.9</ele>
        <time>2021-01-16T11:54:19Z</time>
      </trkpt>
      <trkpt lat="46.03663" lon="6.7756">
        <ele>974.4</ele>
        <time>2021-01-16T11:54:31Z</time>
      </trkpt>
      <trkpt lat="46.03671" lon="6.77554">
        <ele>969.6</ele>
        <time>2021-01-16T11:54:35Z</time>
      </trkpt>
      <trkpt lat="46.03673" lon="6.77549">
        <ele>969.1</ele>
        <time>2021-01-16T11:54:41Z</time>
      </trkpt>
      <trkpt lat="46.03682" lon="6.77541">
        <ele>967.7</ele>
        <time>2021-01-16T11:54:46Z</time>
      </trkpt>
      <trkpt lat="46.03689" lon="6.77538">
        <ele>966.3</ele>
        <time>2021-01-16T11:54:51Z</time>
      </trkpt>
      <trkpt lat="46.0369" lon="6.77537">
        <ele>966</ele>
        <time>2021-01-16T11:54:56Z</time>
      </trkpt>
      <trkpt lat="46.03703" lon="6.77535">
        <ele>963.7</ele>
        <time>2021-01-16T11:55:01Z</time>
      </trkpt>
      <trkpt lat="46.03716" lon="6.77532">
        <ele>961.9</ele>
        <time>2021-01-16T11:55:06Z</time>
      </trkpt>
      <trkpt lat="46.03728" lon="6.77529">
        <ele>959.3</ele>
        <time>2021-01-16T11:55:10Z</time>
      </trkpt>
      <trkpt lat="46.03738" lon="6.77527">
        <ele>957</ele>
        <time>2021-01-16T11:55:15Z</time>
      </trkpt>
      <trkpt lat="46.0375" lon="6.77511">
        <ele>955</ele>
        <time>2021-01-16T11:55:19Z</time>
      </trkpt>
      <trkpt lat="46.03777" lon="6.77492">
        <ele>951</ele>
        <time>2021-01-16T11:55:24Z</time>
      </trkpt>
      <trkpt lat="46.03798" lon="6.77484">
        <ele>947.7</ele>
        <time>2021-01-16T11:55:28Z</time>
      </trkpt>
      <trkpt lat="46.03815" lon="6.77482">
        <ele>946.7</ele>
        <time>2021-01-16T11:55:32Z</time>
      </trkpt>
      <trkpt lat="46.03832" lon="6.77486">
        <ele>944.6</ele>
        <time>2021-01-16T11:55:36Z</time>
      </trkpt>
      <trkpt lat="46.03841" lon="6.77484">
        <ele>942.6</ele>
        <time>2021-01-16T11:55:40Z</time>
      </trkpt>
      <trkpt lat="46.03847" lon="6.7748">
        <ele>942.1</ele>
        <time>2021-01-16T11:55:44Z</time>
      </trkpt>
      <trkpt lat="46.03861" lon="6.77474">
        <ele>938.8</ele>
        <time>2021-01-16T11:55:49Z</time>
      </trkpt>
      <trkpt lat="46.03872" lon="6.77467">
        <ele>935</ele>
        <time>2021-01-16T11:55:53Z</time>
      </trkpt>
      <trkpt lat="46.03882" lon="6.77466">
        <ele>931.7</ele>
        <time>2021-01-16T11:55:58Z</time>
      </trkpt>
      <trkpt lat="46.0389" lon="6.77469">
        <ele>929</ele>
        <time>2021-01-16T11:56:02Z</time>
      </trkpt>
      <trkpt lat="46.03898" lon="6.77467">
        <ele>925.1</ele>
        <time>2021-01-16T11:56:07Z</time>
      </trkpt>
      <trkpt lat="46.03903" lon="6.77466">
        <ele>923.2</ele>
        <time>2021-01-16T11:56:11Z</time>
      </trkpt>
      <trkpt lat="46.0392" lon="6.77461">
        <ele>920.9</ele>
        <time>2021-01-16T11:56:16Z</time>
      </trkpt>
      <trkpt lat="46.03937" lon="6.77452">
        <ele>921.2</ele>
        <time>2021-01-16T11:56:20Z</time>
      </trkpt>
      <trkpt lat="46.03952" lon="6.77447">
        <ele>922.7</ele>
        <time>2021-01-16T11:56:24Z</time>
      </trkpt>
      <trkpt lat="46.03964" lon="6.77444">
        <ele>922.5</ele>
        <time>2021-01-16T11:56:28Z</time>
      </trkpt>
      <trkpt lat="46.03981" lon="6.77455">
        <ele>920.9</ele>
        <time>2021-01-16T11:56:33Z</time>
      </trkpt>
      <trkpt lat="46.03992" lon="6.77469">
        <ele>919.9</ele>
        <time>2021-01-16T11:56:37Z</time>
      </trkpt>
      <trkpt lat="46.04007" lon="6.77483">
        <ele>916.3</ele>
        <time>2021-01-16T11:56:42Z</time>
      </trkpt>
      <trkpt lat="46.04022" lon="6.77491">
        <ele>915.5</ele>
        <time>2021-01-16T11:56:46Z</time>
      </trkpt>
      <trkpt lat="46.04042" lon="6.775">
        <ele>916.5</ele>
        <time>2021-01-16T11:56:50Z</time>
      </trkpt>
      <trkpt lat="46.04064" lon="6.77507">
        <ele>915</ele>
        <time>2021-01-16T11:56:55Z</time>
      </trkpt>
      <trkpt lat="46.04075" lon="6.77495">
        <ele>913.9</ele>
        <time>2021-01-16T11:56:59Z</time>
      </trkpt>
      <trkpt lat="46.04087" lon="6.7748">
        <ele>917.7</ele>
        <time>2021-01-16T11:57:04Z</time>
      </trkpt>
      <trkpt lat="46.04098" lon="6.77468">
        <ele>920.6</ele>
        <time>2021-01-16T11:57:09Z</time>
      </trkpt>
      <trkpt lat="46.04105" lon="6.7746">
        <ele>919.7</ele>
        <time>2021-01-16T11:57:13Z</time>
      </trkpt>
      <trkpt lat="46.0411" lon="6.77452">
        <ele>917.4</ele>
        <time>2021-01-16T11:57:18Z</time>
      </trkpt>
      <trkpt lat="46.0411" lon="6.77451">
        <ele>917.5</ele>
        <time>2021-01-16T11:57:24Z</time>
      </trkpt>
      <trkpt lat="46.04116" lon="6.77439">
        <ele>917</ele>
        <time>2021-01-16T11:57:28Z</time>
      </trkpt>
      <trkpt lat="46.04116" lon="6.77437">
        <ele>916.6</ele>
        <time>2021-01-16T11:59:25Z</time>
      </trkpt>
      <trkpt lat="46.04116" lon="6.77437">
        <ele>916.6</ele>
        <time>2021-01-16T11:59:26Z</time>
      </trkpt>
    </trkseg>
  </trk>
</gpx>